<?xml version="1.0" encoding="UTF-8" standalone="no" ?>
<gpx xmlns="http://www.topografix.com/GPX/1/1" xmlns:xsi="http://www.w3.org/2001/XMLSchema-instance" xsi:schemaLocation="http://www.topografix.com/GPX/1/1 http://www.topografix.com/GPX/1/1/gpx.xsd" version="1.1" creator="VisuGPX - https://www.visugpx.com">
  <metadata>
    <name>Rando Lanquais : &quot; boucle des eaux&quot;</name>
    <desc><![CDATA[Parcours très agréable presque entièrement en sous-bois dans la forêt de Lanquais.]]></desc>
  </metadata>
  <trk>
    <name><![CDATA[Rando Lanquais : " boucle des eaux"_1]]></name>
    <trkseg>
      <trkpt lat="44.82199" lon="0.67318">
        <ele>50.4</ele>
        <time>2019-05-07T12:01:39Z</time>
      </trkpt>
      <trkpt lat="44.82199" lon="0.67318">
        <ele>131.718</ele>
        <time>2019-05-07T12:01:42Z</time>
      </trkpt>
      <trkpt lat="44.82192" lon="0.67321">
        <ele>120.775</ele>
        <time>2019-05-07T12:01:43Z</time>
      </trkpt>
      <trkpt lat="44.82186" lon="0.6732">
        <ele>113.169</ele>
        <time>2019-05-07T12:01:45Z</time>
      </trkpt>
      <trkpt lat="44.82183" lon="0.6732">
        <ele>109.317</ele>
        <time>2019-05-07T12:01:48Z</time>
      </trkpt>
      <trkpt lat="44.82183" lon="0.6732">
        <ele>109.317</ele>
        <time>2019-05-07T12:01:56Z</time>
      </trkpt>
      <trkpt lat="44.82183" lon="0.6732">
        <ele>109.317</ele>
        <time>2019-05-07T12:01:57Z</time>
      </trkpt>
      <trkpt lat="44.82188" lon="0.6732">
        <ele>105.617</ele>
        <time>2019-05-07T12:02:54Z</time>
      </trkpt>
      <trkpt lat="44.82193" lon="0.67318">
        <ele>105.323</ele>
        <time>2019-05-07T12:02:58Z</time>
      </trkpt>
      <trkpt lat="44.82196" lon="0.67317">
        <ele>105.201</ele>
        <time>2019-05-07T12:03:00Z</time>
      </trkpt>
      <trkpt lat="44.82199" lon="0.67317">
        <ele>105.105</ele>
        <time>2019-05-07T12:03:02Z</time>
      </trkpt>
      <trkpt lat="44.82202" lon="0.67316">
        <ele>105.032</ele>
        <time>2019-05-07T12:03:04Z</time>
      </trkpt>
      <trkpt lat="44.82205" lon="0.67315">
        <ele>104.983</ele>
        <time>2019-05-07T12:03:06Z</time>
      </trkpt>
      <trkpt lat="44.82208" lon="0.67315">
        <ele>104.954</ele>
        <time>2019-05-07T12:03:08Z</time>
      </trkpt>
      <trkpt lat="44.82211" lon="0.67314">
        <ele>104.939</ele>
        <time>2019-05-07T12:03:10Z</time>
      </trkpt>
      <trkpt lat="44.82213" lon="0.67314">
        <ele>104.943</ele>
        <time>2019-05-07T12:03:12Z</time>
      </trkpt>
      <trkpt lat="44.82218" lon="0.67315">
        <ele>104.971</ele>
        <time>2019-05-07T12:03:16Z</time>
      </trkpt>
      <trkpt lat="44.82223" lon="0.67315">
        <ele>105.026</ele>
        <time>2019-05-07T12:03:20Z</time>
      </trkpt>
      <trkpt lat="44.82228" lon="0.67316">
        <ele>105.077</ele>
        <time>2019-05-07T12:03:23Z</time>
      </trkpt>
      <trkpt lat="44.82232" lon="0.6732">
        <ele>105.133</ele>
        <time>2019-05-07T12:03:26Z</time>
      </trkpt>
      <trkpt lat="44.82235" lon="0.67326">
        <ele>105.185</ele>
        <time>2019-05-07T12:03:29Z</time>
      </trkpt>
      <trkpt lat="44.82236" lon="0.6733">
        <ele>105.216</ele>
        <time>2019-05-07T12:03:31Z</time>
      </trkpt>
      <trkpt lat="44.82238" lon="0.67337">
        <ele>105.267</ele>
        <time>2019-05-07T12:03:35Z</time>
      </trkpt>
      <trkpt lat="44.8224" lon="0.67342">
        <ele>105.298</ele>
        <time>2019-05-07T12:03:38Z</time>
      </trkpt>
      <trkpt lat="44.82237" lon="0.67348">
        <ele>105.364</ele>
        <time>2019-05-07T12:03:44Z</time>
      </trkpt>
      <trkpt lat="44.82231" lon="0.6735">
        <ele>105.409</ele>
        <time>2019-05-07T12:03:49Z</time>
      </trkpt>
      <trkpt lat="44.82228" lon="0.67352">
        <ele>105.424</ele>
        <time>2019-05-07T12:03:51Z</time>
      </trkpt>
      <trkpt lat="44.82225" lon="0.67353">
        <ele>105.437</ele>
        <time>2019-05-07T12:03:53Z</time>
      </trkpt>
      <trkpt lat="44.82223" lon="0.67354">
        <ele>105.449</ele>
        <time>2019-05-07T12:03:55Z</time>
      </trkpt>
      <trkpt lat="44.82218" lon="0.67353">
        <ele>105.485</ele>
        <time>2019-05-07T12:04:00Z</time>
      </trkpt>
      <trkpt lat="44.82214" lon="0.67353">
        <ele>105.511</ele>
        <time>2019-05-07T12:04:03Z</time>
      </trkpt>
      <trkpt lat="44.82209" lon="0.67353">
        <ele>105.551</ele>
        <time>2019-05-07T12:04:07Z</time>
      </trkpt>
      <trkpt lat="44.82204" lon="0.67354">
        <ele>105.602</ele>
        <time>2019-05-07T12:04:11Z</time>
      </trkpt>
      <trkpt lat="44.82202" lon="0.67355">
        <ele>105.634</ele>
        <time>2019-05-07T12:04:13Z</time>
      </trkpt>
      <trkpt lat="44.82197" lon="0.67357">
        <ele>105.685</ele>
        <time>2019-05-07T12:04:16Z</time>
      </trkpt>
      <trkpt lat="44.82195" lon="0.67358">
        <ele>105.721</ele>
        <time>2019-05-07T12:04:18Z</time>
      </trkpt>
      <trkpt lat="44.8219" lon="0.67358">
        <ele>105.799</ele>
        <time>2019-05-07T12:04:22Z</time>
      </trkpt>
      <trkpt lat="44.82184" lon="0.67357">
        <ele>105.905</ele>
        <time>2019-05-07T12:04:27Z</time>
      </trkpt>
      <trkpt lat="44.82181" lon="0.67357">
        <ele>105.948</ele>
        <time>2019-05-07T12:04:29Z</time>
      </trkpt>
      <trkpt lat="44.82176" lon="0.67358">
        <ele>106.013</ele>
        <time>2019-05-07T12:04:32Z</time>
      </trkpt>
      <trkpt lat="44.82174" lon="0.67358">
        <ele>106.055</ele>
        <time>2019-05-07T12:04:34Z</time>
      </trkpt>
      <trkpt lat="44.82169" lon="0.67358">
        <ele>106.142</ele>
        <time>2019-05-07T12:04:38Z</time>
      </trkpt>
      <trkpt lat="44.82166" lon="0.67357">
        <ele>106.208</ele>
        <time>2019-05-07T12:04:41Z</time>
      </trkpt>
      <trkpt lat="44.82161" lon="0.67359">
        <ele>106.299</ele>
        <time>2019-05-07T12:04:45Z</time>
      </trkpt>
      <trkpt lat="44.82157" lon="0.6736">
        <ele>106.347</ele>
        <time>2019-05-07T12:04:47Z</time>
      </trkpt>
      <trkpt lat="44.82154" lon="0.67361">
        <ele>106.423</ele>
        <time>2019-05-07T12:04:50Z</time>
      </trkpt>
      <trkpt lat="44.82151" lon="0.67362">
        <ele>106.476</ele>
        <time>2019-05-07T12:04:52Z</time>
      </trkpt>
      <trkpt lat="44.82148" lon="0.67363">
        <ele>106.532</ele>
        <time>2019-05-07T12:04:54Z</time>
      </trkpt>
      <trkpt lat="44.82145" lon="0.67364">
        <ele>106.621</ele>
        <time>2019-05-07T12:04:57Z</time>
      </trkpt>
      <trkpt lat="44.82142" lon="0.67365">
        <ele>106.682</ele>
        <time>2019-05-07T12:04:59Z</time>
      </trkpt>
      <trkpt lat="44.82139" lon="0.67365">
        <ele>106.744</ele>
        <time>2019-05-07T12:05:01Z</time>
      </trkpt>
      <trkpt lat="44.82135" lon="0.67366">
        <ele>106.837</ele>
        <time>2019-05-07T12:05:04Z</time>
      </trkpt>
      <trkpt lat="44.8213" lon="0.67368">
        <ele>106.898</ele>
        <time>2019-05-07T12:05:06Z</time>
      </trkpt>
      <trkpt lat="44.82127" lon="0.6737">
        <ele>106.958</ele>
        <time>2019-05-07T12:05:08Z</time>
      </trkpt>
      <trkpt lat="44.82124" lon="0.67372">
        <ele>107.016</ele>
        <time>2019-05-07T12:05:10Z</time>
      </trkpt>
      <trkpt lat="44.82121" lon="0.67374">
        <ele>107.073</ele>
        <time>2019-05-07T12:05:12Z</time>
      </trkpt>
      <trkpt lat="44.82117" lon="0.67377">
        <ele>107.155</ele>
        <time>2019-05-07T12:05:15Z</time>
      </trkpt>
      <trkpt lat="44.82112" lon="0.67379">
        <ele>107.283</ele>
        <time>2019-05-07T12:05:20Z</time>
      </trkpt>
      <trkpt lat="44.82108" lon="0.67382">
        <ele>107.379</ele>
        <time>2019-05-07T12:05:24Z</time>
      </trkpt>
      <trkpt lat="44.82104" lon="0.67386">
        <ele>107.474</ele>
        <time>2019-05-07T12:05:28Z</time>
      </trkpt>
      <trkpt lat="44.821" lon="0.6739">
        <ele>107.591</ele>
        <time>2019-05-07T12:05:33Z</time>
      </trkpt>
      <trkpt lat="44.82097" lon="0.67393">
        <ele>107.656</ele>
        <time>2019-05-07T12:05:36Z</time>
      </trkpt>
      <trkpt lat="44.82093" lon="0.67397">
        <ele>107.697</ele>
        <time>2019-05-07T12:05:38Z</time>
      </trkpt>
      <trkpt lat="44.8209" lon="0.67401">
        <ele>107.735</ele>
        <time>2019-05-07T12:05:40Z</time>
      </trkpt>
      <trkpt lat="44.82087" lon="0.67405">
        <ele>107.79</ele>
        <time>2019-05-07T12:05:43Z</time>
      </trkpt>
      <trkpt lat="44.82084" lon="0.67411">
        <ele>107.855</ele>
        <time>2019-05-07T12:05:47Z</time>
      </trkpt>
      <trkpt lat="44.8208" lon="0.67415">
        <ele>107.913</ele>
        <time>2019-05-07T12:05:51Z</time>
      </trkpt>
      <trkpt lat="44.82078" lon="0.67417">
        <ele>107.94</ele>
        <time>2019-05-07T12:05:53Z</time>
      </trkpt>
      <trkpt lat="44.82075" lon="0.67422">
        <ele>108.001</ele>
        <time>2019-05-07T12:05:58Z</time>
      </trkpt>
      <trkpt lat="44.8207" lon="0.67427">
        <ele>108.061</ele>
        <time>2019-05-07T12:06:03Z</time>
      </trkpt>
      <trkpt lat="44.82067" lon="0.67429">
        <ele>108.086</ele>
        <time>2019-05-07T12:06:05Z</time>
      </trkpt>
      <trkpt lat="44.82064" lon="0.67431">
        <ele>108.112</ele>
        <time>2019-05-07T12:06:07Z</time>
      </trkpt>
      <trkpt lat="44.82062" lon="0.67433">
        <ele>108.139</ele>
        <time>2019-05-07T12:06:09Z</time>
      </trkpt>
      <trkpt lat="44.82058" lon="0.67437">
        <ele>108.182</ele>
        <time>2019-05-07T12:06:12Z</time>
      </trkpt>
      <trkpt lat="44.82056" lon="0.67439">
        <ele>108.212</ele>
        <time>2019-05-07T12:06:14Z</time>
      </trkpt>
      <trkpt lat="44.82053" lon="0.67442">
        <ele>108.245</ele>
        <time>2019-05-07T12:06:16Z</time>
      </trkpt>
      <trkpt lat="44.82048" lon="0.67447">
        <ele>108.334</ele>
        <time>2019-05-07T12:06:21Z</time>
      </trkpt>
      <trkpt lat="44.82046" lon="0.6745">
        <ele>108.373</ele>
        <time>2019-05-07T12:06:23Z</time>
      </trkpt>
      <trkpt lat="44.82044" lon="0.67452">
        <ele>108.413</ele>
        <time>2019-05-07T12:06:25Z</time>
      </trkpt>
      <trkpt lat="44.82042" lon="0.67455">
        <ele>108.474</ele>
        <time>2019-05-07T12:06:28Z</time>
      </trkpt>
      <trkpt lat="44.82038" lon="0.67459">
        <ele>108.54</ele>
        <time>2019-05-07T12:06:31Z</time>
      </trkpt>
      <trkpt lat="44.82035" lon="0.67465">
        <ele>108.633</ele>
        <time>2019-05-07T12:06:35Z</time>
      </trkpt>
      <trkpt lat="44.82031" lon="0.6747">
        <ele>108.738</ele>
        <time>2019-05-07T12:06:39Z</time>
      </trkpt>
      <trkpt lat="44.82028" lon="0.67475">
        <ele>108.821</ele>
        <time>2019-05-07T12:06:42Z</time>
      </trkpt>
      <trkpt lat="44.82026" lon="0.67479">
        <ele>108.879</ele>
        <time>2019-05-07T12:06:44Z</time>
      </trkpt>
      <trkpt lat="44.82023" lon="0.67485">
        <ele>109.002</ele>
        <time>2019-05-07T12:06:48Z</time>
      </trkpt>
      <trkpt lat="44.82019" lon="0.6749">
        <ele>109.17</ele>
        <time>2019-05-07T12:06:53Z</time>
      </trkpt>
      <trkpt lat="44.82016" lon="0.67493">
        <ele>109.24</ele>
        <time>2019-05-07T12:06:55Z</time>
      </trkpt>
      <trkpt lat="44.82014" lon="0.67495">
        <ele>109.312</ele>
        <time>2019-05-07T12:06:57Z</time>
      </trkpt>
      <trkpt lat="44.82011" lon="0.67501">
        <ele>109.385</ele>
        <time>2019-05-07T12:06:59Z</time>
      </trkpt>
      <trkpt lat="44.82008" lon="0.67506">
        <ele>109.458</ele>
        <time>2019-05-07T12:07:01Z</time>
      </trkpt>
      <trkpt lat="44.82006" lon="0.67508">
        <ele>109.494</ele>
        <time>2019-05-07T12:07:02Z</time>
      </trkpt>
      <trkpt lat="44.82004" lon="0.67515">
        <ele>109.599</ele>
        <time>2019-05-07T12:07:05Z</time>
      </trkpt>
      <trkpt lat="44.82001" lon="0.6752">
        <ele>109.701</ele>
        <time>2019-05-07T12:07:08Z</time>
      </trkpt>
      <trkpt lat="44.81998" lon="0.67527">
        <ele>109.8</ele>
        <time>2019-05-07T12:07:11Z</time>
      </trkpt>
      <trkpt lat="44.81995" lon="0.67533">
        <ele>109.928</ele>
        <time>2019-05-07T12:07:15Z</time>
      </trkpt>
      <trkpt lat="44.81992" lon="0.67537">
        <ele>110.084</ele>
        <time>2019-05-07T12:07:20Z</time>
      </trkpt>
      <trkpt lat="44.81986" lon="0.67542">
        <ele>110.283</ele>
        <time>2019-05-07T12:07:27Z</time>
      </trkpt>
      <trkpt lat="44.81983" lon="0.67543">
        <ele>110.336</ele>
        <time>2019-05-07T12:07:29Z</time>
      </trkpt>
      <trkpt lat="44.8198" lon="0.67545">
        <ele>110.414</ele>
        <time>2019-05-07T12:07:32Z</time>
      </trkpt>
      <trkpt lat="44.81977" lon="0.67548">
        <ele>110.466</ele>
        <time>2019-05-07T12:07:34Z</time>
      </trkpt>
      <trkpt lat="44.81974" lon="0.67549">
        <ele>110.516</ele>
        <time>2019-05-07T12:07:36Z</time>
      </trkpt>
      <trkpt lat="44.81969" lon="0.67554">
        <ele>110.593</ele>
        <time>2019-05-07T12:07:39Z</time>
      </trkpt>
      <trkpt lat="44.81966" lon="0.67556">
        <ele>110.647</ele>
        <time>2019-05-07T12:07:41Z</time>
      </trkpt>
      <trkpt lat="44.81962" lon="0.67559">
        <ele>110.73</ele>
        <time>2019-05-07T12:07:44Z</time>
      </trkpt>
      <trkpt lat="44.81958" lon="0.67562">
        <ele>110.815</ele>
        <time>2019-05-07T12:07:47Z</time>
      </trkpt>
      <trkpt lat="44.81955" lon="0.67564">
        <ele>110.9</ele>
        <time>2019-05-07T12:07:50Z</time>
      </trkpt>
      <trkpt lat="44.8195" lon="0.67567">
        <ele>110.987</ele>
        <time>2019-05-07T12:07:53Z</time>
      </trkpt>
      <trkpt lat="44.81943" lon="0.67572">
        <ele>111.078</ele>
        <time>2019-05-07T12:07:56Z</time>
      </trkpt>
      <trkpt lat="44.8194" lon="0.67575">
        <ele>111.138</ele>
        <time>2019-05-07T12:07:58Z</time>
      </trkpt>
      <trkpt lat="44.81935" lon="0.67577">
        <ele>111.227</ele>
        <time>2019-05-07T12:08:01Z</time>
      </trkpt>
      <trkpt lat="44.81932" lon="0.67578">
        <ele>111.283</ele>
        <time>2019-05-07T12:08:03Z</time>
      </trkpt>
      <trkpt lat="44.81927" lon="0.67582">
        <ele>111.391</ele>
        <time>2019-05-07T12:08:07Z</time>
      </trkpt>
      <trkpt lat="44.81925" lon="0.67583">
        <ele>111.442</ele>
        <time>2019-05-07T12:08:09Z</time>
      </trkpt>
      <trkpt lat="44.8192" lon="0.67586">
        <ele>111.562</ele>
        <time>2019-05-07T12:08:14Z</time>
      </trkpt>
      <trkpt lat="44.81916" lon="0.67588">
        <ele>111.632</ele>
        <time>2019-05-07T12:08:17Z</time>
      </trkpt>
      <trkpt lat="44.8191" lon="0.67591">
        <ele>111.721</ele>
        <time>2019-05-07T12:08:21Z</time>
      </trkpt>
      <trkpt lat="44.81908" lon="0.67593">
        <ele>111.763</ele>
        <time>2019-05-07T12:08:23Z</time>
      </trkpt>
      <trkpt lat="44.81905" lon="0.67594">
        <ele>111.804</ele>
        <time>2019-05-07T12:08:25Z</time>
      </trkpt>
      <trkpt lat="44.81901" lon="0.67595">
        <ele>111.883</ele>
        <time>2019-05-07T12:08:29Z</time>
      </trkpt>
      <trkpt lat="44.81898" lon="0.67595">
        <ele>111.921</ele>
        <time>2019-05-07T12:08:31Z</time>
      </trkpt>
      <trkpt lat="44.81895" lon="0.67595">
        <ele>111.978</ele>
        <time>2019-05-07T12:08:34Z</time>
      </trkpt>
      <trkpt lat="44.81892" lon="0.67596">
        <ele>112.031</ele>
        <time>2019-05-07T12:08:37Z</time>
      </trkpt>
      <trkpt lat="44.81886" lon="0.67596">
        <ele>112.101</ele>
        <time>2019-05-07T12:08:41Z</time>
      </trkpt>
      <trkpt lat="44.81881" lon="0.67598">
        <ele>112.151</ele>
        <time>2019-05-07T12:08:44Z</time>
      </trkpt>
      <trkpt lat="44.81876" lon="0.67599">
        <ele>112.199</ele>
        <time>2019-05-07T12:08:47Z</time>
      </trkpt>
      <trkpt lat="44.81871" lon="0.67598">
        <ele>112.246</ele>
        <time>2019-05-07T12:08:50Z</time>
      </trkpt>
      <trkpt lat="44.81868" lon="0.67598">
        <ele>112.276</ele>
        <time>2019-05-07T12:08:52Z</time>
      </trkpt>
      <trkpt lat="44.81862" lon="0.67597">
        <ele>112.322</ele>
        <time>2019-05-07T12:08:55Z</time>
      </trkpt>
      <trkpt lat="44.81857" lon="0.67595">
        <ele>112.367</ele>
        <time>2019-05-07T12:08:58Z</time>
      </trkpt>
      <trkpt lat="44.81854" lon="0.67593">
        <ele>112.396</ele>
        <time>2019-05-07T12:09:00Z</time>
      </trkpt>
      <trkpt lat="44.81849" lon="0.6759">
        <ele>112.442</ele>
        <time>2019-05-07T12:09:03Z</time>
      </trkpt>
      <trkpt lat="44.81846" lon="0.67589">
        <ele>112.473</ele>
        <time>2019-05-07T12:09:05Z</time>
      </trkpt>
      <trkpt lat="44.81843" lon="0.67587">
        <ele>112.503</ele>
        <time>2019-05-07T12:09:07Z</time>
      </trkpt>
      <trkpt lat="44.8184" lon="0.67585">
        <ele>112.532</ele>
        <time>2019-05-07T12:09:09Z</time>
      </trkpt>
      <trkpt lat="44.81838" lon="0.67584">
        <ele>112.562</ele>
        <time>2019-05-07T12:09:11Z</time>
      </trkpt>
      <trkpt lat="44.81835" lon="0.67582">
        <ele>112.59</ele>
        <time>2019-05-07T12:09:13Z</time>
      </trkpt>
      <trkpt lat="44.81832" lon="0.6758">
        <ele>112.618</ele>
        <time>2019-05-07T12:09:15Z</time>
      </trkpt>
      <trkpt lat="44.81828" lon="0.67579">
        <ele>112.646</ele>
        <time>2019-05-07T12:09:17Z</time>
      </trkpt>
      <trkpt lat="44.81823" lon="0.67576">
        <ele>112.699</ele>
        <time>2019-05-07T12:09:21Z</time>
      </trkpt>
      <trkpt lat="44.81818" lon="0.67576">
        <ele>112.752</ele>
        <time>2019-05-07T12:09:25Z</time>
      </trkpt>
      <trkpt lat="44.81815" lon="0.67575">
        <ele>112.778</ele>
        <time>2019-05-07T12:09:27Z</time>
      </trkpt>
      <trkpt lat="44.81813" lon="0.67575">
        <ele>112.805</ele>
        <time>2019-05-07T12:09:29Z</time>
      </trkpt>
      <trkpt lat="44.8181" lon="0.67574">
        <ele>112.844</ele>
        <time>2019-05-07T12:09:32Z</time>
      </trkpt>
      <trkpt lat="44.81807" lon="0.67574">
        <ele>112.87</ele>
        <time>2019-05-07T12:09:34Z</time>
      </trkpt>
      <trkpt lat="44.81803" lon="0.67574">
        <ele>112.896</ele>
        <time>2019-05-07T12:09:36Z</time>
      </trkpt>
      <trkpt lat="44.81798" lon="0.67574">
        <ele>112.946</ele>
        <time>2019-05-07T12:09:40Z</time>
      </trkpt>
      <trkpt lat="44.81795" lon="0.67574">
        <ele>112.971</ele>
        <time>2019-05-07T12:09:42Z</time>
      </trkpt>
      <trkpt lat="44.81791" lon="0.67575">
        <ele>113.008</ele>
        <time>2019-05-07T12:09:45Z</time>
      </trkpt>
      <trkpt lat="44.81787" lon="0.67575">
        <ele>113.033</ele>
        <time>2019-05-07T12:09:47Z</time>
      </trkpt>
      <trkpt lat="44.81784" lon="0.67575">
        <ele>113.056</ele>
        <time>2019-05-07T12:09:49Z</time>
      </trkpt>
      <trkpt lat="44.81779" lon="0.67574">
        <ele>113.091</ele>
        <time>2019-05-07T12:09:52Z</time>
      </trkpt>
      <trkpt lat="44.81773" lon="0.67576">
        <ele>113.136</ele>
        <time>2019-05-07T12:09:56Z</time>
      </trkpt>
      <trkpt lat="44.8177" lon="0.67576">
        <ele>113.159</ele>
        <time>2019-05-07T12:09:58Z</time>
      </trkpt>
      <trkpt lat="44.81767" lon="0.67577">
        <ele>113.181</ele>
        <time>2019-05-07T12:10:00Z</time>
      </trkpt>
      <trkpt lat="44.81761" lon="0.67578">
        <ele>113.222</ele>
        <time>2019-05-07T12:10:04Z</time>
      </trkpt>
      <trkpt lat="44.81756" lon="0.67579">
        <ele>113.252</ele>
        <time>2019-05-07T12:10:07Z</time>
      </trkpt>
      <trkpt lat="44.81752" lon="0.6758">
        <ele>113.271</ele>
        <time>2019-05-07T12:10:09Z</time>
      </trkpt>
      <trkpt lat="44.81747" lon="0.67581">
        <ele>113.309</ele>
        <time>2019-05-07T12:10:13Z</time>
      </trkpt>
      <trkpt lat="44.81742" lon="0.67581">
        <ele>113.354</ele>
        <time>2019-05-07T12:10:18Z</time>
      </trkpt>
      <trkpt lat="44.81739" lon="0.67581">
        <ele>113.39</ele>
        <time>2019-05-07T12:10:26Z</time>
      </trkpt>
      <trkpt lat="44.81741" lon="0.67575">
        <ele>113.489</ele>
        <time>2019-05-07T12:10:49Z</time>
      </trkpt>
      <trkpt lat="44.81737" lon="0.67568">
        <ele>113.529</ele>
        <time>2019-05-07T12:10:56Z</time>
      </trkpt>
      <trkpt lat="44.81735" lon="0.67564">
        <ele>113.545</ele>
        <time>2019-05-07T12:10:59Z</time>
      </trkpt>
      <trkpt lat="44.81731" lon="0.67559">
        <ele>113.573</ele>
        <time>2019-05-07T12:11:04Z</time>
      </trkpt>
      <trkpt lat="44.81729" lon="0.67553">
        <ele>113.595</ele>
        <time>2019-05-07T12:11:08Z</time>
      </trkpt>
      <trkpt lat="44.81725" lon="0.67547">
        <ele>113.614</ele>
        <time>2019-05-07T12:11:12Z</time>
      </trkpt>
      <trkpt lat="44.81723" lon="0.67543">
        <ele>113.623</ele>
        <time>2019-05-07T12:11:14Z</time>
      </trkpt>
      <trkpt lat="44.81722" lon="0.6754">
        <ele>113.631</ele>
        <time>2019-05-07T12:11:16Z</time>
      </trkpt>
      <trkpt lat="44.8172" lon="0.67537">
        <ele>113.638</ele>
        <time>2019-05-07T12:11:18Z</time>
      </trkpt>
      <trkpt lat="44.81718" lon="0.67533">
        <ele>113.645</ele>
        <time>2019-05-07T12:11:20Z</time>
      </trkpt>
      <trkpt lat="44.81716" lon="0.6753">
        <ele>113.654</ele>
        <time>2019-05-07T12:11:23Z</time>
      </trkpt>
      <trkpt lat="44.81713" lon="0.67525">
        <ele>113.666</ele>
        <time>2019-05-07T12:11:27Z</time>
      </trkpt>
      <trkpt lat="44.81711" lon="0.67522">
        <ele>113.672</ele>
        <time>2019-05-07T12:11:29Z</time>
      </trkpt>
      <trkpt lat="44.81709" lon="0.67515">
        <ele>113.686</ele>
        <time>2019-05-07T12:11:33Z</time>
      </trkpt>
      <trkpt lat="44.81708" lon="0.67512">
        <ele>113.694</ele>
        <time>2019-05-07T12:11:35Z</time>
      </trkpt>
      <trkpt lat="44.81709" lon="0.67505">
        <ele>113.708</ele>
        <time>2019-05-07T12:11:40Z</time>
      </trkpt>
      <trkpt lat="44.81712" lon="0.675">
        <ele>113.714</ele>
        <time>2019-05-07T12:11:44Z</time>
      </trkpt>
      <trkpt lat="44.81716" lon="0.67495">
        <ele>113.714</ele>
        <time>2019-05-07T12:11:48Z</time>
      </trkpt>
      <trkpt lat="44.8172" lon="0.67491">
        <ele>113.708</ele>
        <time>2019-05-07T12:11:52Z</time>
      </trkpt>
      <trkpt lat="44.81724" lon="0.67486">
        <ele>113.702</ele>
        <time>2019-05-07T12:11:56Z</time>
      </trkpt>
      <trkpt lat="44.81728" lon="0.67483">
        <ele>113.697</ele>
        <time>2019-05-07T12:12:00Z</time>
      </trkpt>
      <trkpt lat="44.81732" lon="0.6748">
        <ele>113.694</ele>
        <time>2019-05-07T12:12:03Z</time>
      </trkpt>
      <trkpt lat="44.81735" lon="0.67479">
        <ele>113.693</ele>
        <time>2019-05-07T12:12:05Z</time>
      </trkpt>
      <trkpt lat="44.8174" lon="0.67476">
        <ele>113.69</ele>
        <time>2019-05-07T12:12:09Z</time>
      </trkpt>
      <trkpt lat="44.81745" lon="0.67471">
        <ele>113.687</ele>
        <time>2019-05-07T12:12:13Z</time>
      </trkpt>
      <trkpt lat="44.81748" lon="0.67467">
        <ele>113.686</ele>
        <time>2019-05-07T12:12:16Z</time>
      </trkpt>
      <trkpt lat="44.81751" lon="0.67465">
        <ele>113.686</ele>
        <time>2019-05-07T12:12:18Z</time>
      </trkpt>
      <trkpt lat="44.81754" lon="0.67461">
        <ele>113.684</ele>
        <time>2019-05-07T12:12:22Z</time>
      </trkpt>
      <trkpt lat="44.81739" lon="0.67463">
        <ele>113.637</ele>
        <time>2019-05-07T12:12:38Z</time>
      </trkpt>
      <trkpt lat="44.81736" lon="0.67464">
        <ele>113.629</ele>
        <time>2019-05-07T12:12:40Z</time>
      </trkpt>
      <trkpt lat="44.81731" lon="0.67464">
        <ele>113.615</ele>
        <time>2019-05-07T12:12:43Z</time>
      </trkpt>
      <trkpt lat="44.81728" lon="0.67464">
        <ele>113.606</ele>
        <time>2019-05-07T12:12:45Z</time>
      </trkpt>
      <trkpt lat="44.81723" lon="0.67465">
        <ele>113.594</ele>
        <time>2019-05-07T12:12:48Z</time>
      </trkpt>
      <trkpt lat="44.81719" lon="0.67464">
        <ele>113.582</ele>
        <time>2019-05-07T12:12:51Z</time>
      </trkpt>
      <trkpt lat="44.81715" lon="0.67465">
        <ele>113.572</ele>
        <time>2019-05-07T12:12:53Z</time>
      </trkpt>
      <trkpt lat="44.81712" lon="0.67465">
        <ele>113.562</ele>
        <time>2019-05-07T12:12:55Z</time>
      </trkpt>
      <trkpt lat="44.81707" lon="0.67464">
        <ele>113.542</ele>
        <time>2019-05-07T12:12:59Z</time>
      </trkpt>
      <trkpt lat="44.81705" lon="0.67463">
        <ele>113.531</ele>
        <time>2019-05-07T12:13:01Z</time>
      </trkpt>
      <trkpt lat="44.817" lon="0.67463">
        <ele>113.516</ele>
        <time>2019-05-07T12:13:04Z</time>
      </trkpt>
      <trkpt lat="44.81697" lon="0.67463">
        <ele>113.506</ele>
        <time>2019-05-07T12:13:06Z</time>
      </trkpt>
      <trkpt lat="44.81692" lon="0.67462">
        <ele>113.493</ele>
        <time>2019-05-07T12:13:09Z</time>
      </trkpt>
      <trkpt lat="44.81688" lon="0.6746">
        <ele>113.485</ele>
        <time>2019-05-07T12:13:11Z</time>
      </trkpt>
      <trkpt lat="44.81682" lon="0.6746">
        <ele>113.474</ele>
        <time>2019-05-07T12:13:15Z</time>
      </trkpt>
      <trkpt lat="44.81679" lon="0.6746">
        <ele>113.47</ele>
        <time>2019-05-07T12:13:17Z</time>
      </trkpt>
      <trkpt lat="44.81674" lon="0.67458">
        <ele>113.465</ele>
        <time>2019-05-07T12:13:20Z</time>
      </trkpt>
      <trkpt lat="44.81671" lon="0.67457">
        <ele>113.463</ele>
        <time>2019-05-07T12:13:22Z</time>
      </trkpt>
      <trkpt lat="44.81668" lon="0.67456">
        <ele>113.461</ele>
        <time>2019-05-07T12:13:24Z</time>
      </trkpt>
      <trkpt lat="44.81663" lon="0.67455">
        <ele>113.46</ele>
        <time>2019-05-07T12:13:28Z</time>
      </trkpt>
      <trkpt lat="44.81657" lon="0.67456">
        <ele>113.46</ele>
        <time>2019-05-07T12:13:32Z</time>
      </trkpt>
      <trkpt lat="44.81652" lon="0.67457">
        <ele>113.461</ele>
        <time>2019-05-07T12:13:35Z</time>
      </trkpt>
      <trkpt lat="44.81648" lon="0.67457">
        <ele>113.461</ele>
        <time>2019-05-07T12:13:38Z</time>
      </trkpt>
      <trkpt lat="44.81644" lon="0.67457">
        <ele>113.46</ele>
        <time>2019-05-07T12:13:40Z</time>
      </trkpt>
      <trkpt lat="44.81638" lon="0.67457">
        <ele>113.458</ele>
        <time>2019-05-07T12:13:45Z</time>
      </trkpt>
      <trkpt lat="44.81635" lon="0.67457">
        <ele>113.456</ele>
        <time>2019-05-07T12:13:47Z</time>
      </trkpt>
      <trkpt lat="44.81631" lon="0.67458">
        <ele>113.454</ele>
        <time>2019-05-07T12:13:49Z</time>
      </trkpt>
      <trkpt lat="44.81626" lon="0.67458">
        <ele>113.45</ele>
        <time>2019-05-07T12:13:51Z</time>
      </trkpt>
      <trkpt lat="44.81623" lon="0.67457">
        <ele>113.446</ele>
        <time>2019-05-07T12:13:53Z</time>
      </trkpt>
      <trkpt lat="44.8162" lon="0.67457">
        <ele>113.44</ele>
        <time>2019-05-07T12:13:55Z</time>
      </trkpt>
      <trkpt lat="44.81618" lon="0.67456">
        <ele>113.434</ele>
        <time>2019-05-07T12:13:57Z</time>
      </trkpt>
      <trkpt lat="44.81612" lon="0.67454">
        <ele>113.421</ele>
        <time>2019-05-07T12:14:00Z</time>
      </trkpt>
      <trkpt lat="44.8161" lon="0.67453">
        <ele>113.413</ele>
        <time>2019-05-07T12:14:02Z</time>
      </trkpt>
      <trkpt lat="44.81605" lon="0.67453">
        <ele>113.401</ele>
        <time>2019-05-07T12:14:05Z</time>
      </trkpt>
      <trkpt lat="44.816" lon="0.67449">
        <ele>113.383</ele>
        <time>2019-05-07T12:14:09Z</time>
      </trkpt>
      <trkpt lat="44.81595" lon="0.67447">
        <ele>113.369</ele>
        <time>2019-05-07T12:14:12Z</time>
      </trkpt>
      <trkpt lat="44.81589" lon="0.67445">
        <ele>113.349</ele>
        <time>2019-05-07T12:14:16Z</time>
      </trkpt>
      <trkpt lat="44.81584" lon="0.67443">
        <ele>113.334</ele>
        <time>2019-05-07T12:14:19Z</time>
      </trkpt>
      <trkpt lat="44.81581" lon="0.67442">
        <ele>113.324</ele>
        <time>2019-05-07T12:14:21Z</time>
      </trkpt>
      <trkpt lat="44.81578" lon="0.67441">
        <ele>113.314</ele>
        <time>2019-05-07T12:14:23Z</time>
      </trkpt>
      <trkpt lat="44.81574" lon="0.67438">
        <ele>113.301</ele>
        <time>2019-05-07T12:14:26Z</time>
      </trkpt>
      <trkpt lat="44.81571" lon="0.67437">
        <ele>113.291</ele>
        <time>2019-05-07T12:14:28Z</time>
      </trkpt>
      <trkpt lat="44.81569" lon="0.67436">
        <ele>113.282</ele>
        <time>2019-05-07T12:14:30Z</time>
      </trkpt>
      <trkpt lat="44.81566" lon="0.67435">
        <ele>113.266</ele>
        <time>2019-05-07T12:14:33Z</time>
      </trkpt>
      <trkpt lat="44.8156" lon="0.67433">
        <ele>113.237</ele>
        <time>2019-05-07T12:14:38Z</time>
      </trkpt>
      <trkpt lat="44.81555" lon="0.67432">
        <ele>113.217</ele>
        <time>2019-05-07T12:14:41Z</time>
      </trkpt>
      <trkpt lat="44.8155" lon="0.67432">
        <ele>113.199</ele>
        <time>2019-05-07T12:14:44Z</time>
      </trkpt>
      <trkpt lat="44.81544" lon="0.67431">
        <ele>113.18</ele>
        <time>2019-05-07T12:14:47Z</time>
      </trkpt>
      <trkpt lat="44.81539" lon="0.67432">
        <ele>113.161</ele>
        <time>2019-05-07T12:14:50Z</time>
      </trkpt>
      <trkpt lat="44.81536" lon="0.67432">
        <ele>113.148</ele>
        <time>2019-05-07T12:14:52Z</time>
      </trkpt>
      <trkpt lat="44.81531" lon="0.67432">
        <ele>113.115</ele>
        <time>2019-05-07T12:14:57Z</time>
      </trkpt>
      <trkpt lat="44.81526" lon="0.67433">
        <ele>113.087</ele>
        <time>2019-05-07T12:15:01Z</time>
      </trkpt>
      <trkpt lat="44.81522" lon="0.67434">
        <ele>113.072</ele>
        <time>2019-05-07T12:15:03Z</time>
      </trkpt>
      <trkpt lat="44.81518" lon="0.67435">
        <ele>113.051</ele>
        <time>2019-05-07T12:15:06Z</time>
      </trkpt>
      <trkpt lat="44.81513" lon="0.67435">
        <ele>113.033</ele>
        <time>2019-05-07T12:15:09Z</time>
      </trkpt>
      <trkpt lat="44.81509" lon="0.67434">
        <ele>113.018</ele>
        <time>2019-05-07T12:15:12Z</time>
      </trkpt>
      <trkpt lat="44.81504" lon="0.67434">
        <ele>113.006</ele>
        <time>2019-05-07T12:15:15Z</time>
      </trkpt>
      <trkpt lat="44.81501" lon="0.67434">
        <ele>112.999</ele>
        <time>2019-05-07T12:15:17Z</time>
      </trkpt>
      <trkpt lat="44.81496" lon="0.67432">
        <ele>112.988</ele>
        <time>2019-05-07T12:15:21Z</time>
      </trkpt>
      <trkpt lat="44.81494" lon="0.67431">
        <ele>112.982</ele>
        <time>2019-05-07T12:15:23Z</time>
      </trkpt>
      <trkpt lat="44.81491" lon="0.67429">
        <ele>112.97</ele>
        <time>2019-05-07T12:15:27Z</time>
      </trkpt>
      <trkpt lat="44.81488" lon="0.67428">
        <ele>112.963</ele>
        <time>2019-05-07T12:15:30Z</time>
      </trkpt>
      <trkpt lat="44.81478" lon="0.67425">
        <ele>112.962</ele>
        <time>2019-05-07T12:15:35Z</time>
      </trkpt>
      <trkpt lat="44.81476" lon="0.67425">
        <ele>112.962</ele>
        <time>2019-05-07T12:15:36Z</time>
      </trkpt>
      <trkpt lat="44.81474" lon="0.67424">
        <ele>112.963</ele>
        <time>2019-05-07T12:15:37Z</time>
      </trkpt>
      <trkpt lat="44.81471" lon="0.67423">
        <ele>112.965</ele>
        <time>2019-05-07T12:15:39Z</time>
      </trkpt>
      <trkpt lat="44.81466" lon="0.67423">
        <ele>112.969</ele>
        <time>2019-05-07T12:15:43Z</time>
      </trkpt>
      <trkpt lat="44.81461" lon="0.67422">
        <ele>112.973</ele>
        <time>2019-05-07T12:15:46Z</time>
      </trkpt>
      <trkpt lat="44.81459" lon="0.67421">
        <ele>112.976</ele>
        <time>2019-05-07T12:15:49Z</time>
      </trkpt>
      <trkpt lat="44.81455" lon="0.67419">
        <ele>112.979</ele>
        <time>2019-05-07T12:15:53Z</time>
      </trkpt>
      <trkpt lat="44.81448" lon="0.67416">
        <ele>112.982</ele>
        <time>2019-05-07T12:15:58Z</time>
      </trkpt>
      <trkpt lat="44.81441" lon="0.67412">
        <ele>112.982</ele>
        <time>2019-05-07T12:16:01Z</time>
      </trkpt>
      <trkpt lat="44.81438" lon="0.67409">
        <ele>112.981</ele>
        <time>2019-05-07T12:16:03Z</time>
      </trkpt>
      <trkpt lat="44.81433" lon="0.67407">
        <ele>112.98</ele>
        <time>2019-05-07T12:16:06Z</time>
      </trkpt>
      <trkpt lat="44.8143" lon="0.67406">
        <ele>112.978</ele>
        <time>2019-05-07T12:16:08Z</time>
      </trkpt>
      <trkpt lat="44.81425" lon="0.67405">
        <ele>112.974</ele>
        <time>2019-05-07T12:16:12Z</time>
      </trkpt>
      <trkpt lat="44.81418" lon="0.67406">
        <ele>112.972</ele>
        <time>2019-05-07T12:16:15Z</time>
      </trkpt>
      <trkpt lat="44.81414" lon="0.67405">
        <ele>112.971</ele>
        <time>2019-05-07T12:16:17Z</time>
      </trkpt>
      <trkpt lat="44.81411" lon="0.67405">
        <ele>112.969</ele>
        <time>2019-05-07T12:16:19Z</time>
      </trkpt>
      <trkpt lat="44.81404" lon="0.67403">
        <ele>112.966</ele>
        <time>2019-05-07T12:16:22Z</time>
      </trkpt>
      <trkpt lat="44.81401" lon="0.67402">
        <ele>112.963</ele>
        <time>2019-05-07T12:16:24Z</time>
      </trkpt>
      <trkpt lat="44.81397" lon="0.67402">
        <ele>112.96</ele>
        <time>2019-05-07T12:16:26Z</time>
      </trkpt>
      <trkpt lat="44.81393" lon="0.674">
        <ele>112.956</ele>
        <time>2019-05-07T12:16:28Z</time>
      </trkpt>
      <trkpt lat="44.81389" lon="0.674">
        <ele>112.952</ele>
        <time>2019-05-07T12:16:30Z</time>
      </trkpt>
      <trkpt lat="44.81384" lon="0.67401">
        <ele>112.944</ele>
        <time>2019-05-07T12:16:33Z</time>
      </trkpt>
      <trkpt lat="44.81381" lon="0.67401">
        <ele>112.939</ele>
        <time>2019-05-07T12:16:35Z</time>
      </trkpt>
      <trkpt lat="44.81377" lon="0.67403">
        <ele>112.931</ele>
        <time>2019-05-07T12:16:38Z</time>
      </trkpt>
      <trkpt lat="44.81371" lon="0.67405">
        <ele>112.921</ele>
        <time>2019-05-07T12:16:41Z</time>
      </trkpt>
      <trkpt lat="44.81367" lon="0.67404">
        <ele>112.914</ele>
        <time>2019-05-07T12:16:43Z</time>
      </trkpt>
      <trkpt lat="44.81362" lon="0.67402">
        <ele>112.909</ele>
        <time>2019-05-07T12:16:44Z</time>
      </trkpt>
      <trkpt lat="44.8136" lon="0.67402">
        <ele>112.904</ele>
        <time>2019-05-07T12:16:45Z</time>
      </trkpt>
      <trkpt lat="44.81355" lon="0.67397">
        <ele>112.893</ele>
        <time>2019-05-07T12:16:47Z</time>
      </trkpt>
      <trkpt lat="44.81353" lon="0.67391">
        <ele>112.877</ele>
        <time>2019-05-07T12:16:50Z</time>
      </trkpt>
      <trkpt lat="44.81352" lon="0.67384">
        <ele>112.861</ele>
        <time>2019-05-07T12:16:53Z</time>
      </trkpt>
      <trkpt lat="44.81353" lon="0.67377">
        <ele>112.833</ele>
        <time>2019-05-07T12:16:57Z</time>
      </trkpt>
      <trkpt lat="44.81355" lon="0.6737">
        <ele>112.804</ele>
        <time>2019-05-07T12:17:00Z</time>
      </trkpt>
      <trkpt lat="44.81357" lon="0.67365">
        <ele>112.783</ele>
        <time>2019-05-07T12:17:02Z</time>
      </trkpt>
      <trkpt lat="44.81358" lon="0.67362">
        <ele>112.772</ele>
        <time>2019-05-07T12:17:03Z</time>
      </trkpt>
      <trkpt lat="44.81359" lon="0.67356">
        <ele>112.738</ele>
        <time>2019-05-07T12:17:06Z</time>
      </trkpt>
      <trkpt lat="44.81361" lon="0.67352">
        <ele>112.715</ele>
        <time>2019-05-07T12:17:08Z</time>
      </trkpt>
      <trkpt lat="44.81361" lon="0.67347">
        <ele>112.692</ele>
        <time>2019-05-07T12:17:10Z</time>
      </trkpt>
      <trkpt lat="44.81362" lon="0.67343">
        <ele>112.669</ele>
        <time>2019-05-07T12:17:12Z</time>
      </trkpt>
      <trkpt lat="44.81363" lon="0.67338">
        <ele>112.647</ele>
        <time>2019-05-07T12:17:14Z</time>
      </trkpt>
      <trkpt lat="44.81364" lon="0.67333">
        <ele>112.623</ele>
        <time>2019-05-07T12:17:16Z</time>
      </trkpt>
      <trkpt lat="44.81364" lon="0.67327">
        <ele>112.588</ele>
        <time>2019-05-07T12:17:19Z</time>
      </trkpt>
      <trkpt lat="44.81366" lon="0.67319">
        <ele>112.542</ele>
        <time>2019-05-07T12:17:23Z</time>
      </trkpt>
      <trkpt lat="44.81366" lon="0.67315">
        <ele>112.518</ele>
        <time>2019-05-07T12:17:25Z</time>
      </trkpt>
      <trkpt lat="44.81367" lon="0.6731">
        <ele>112.494</ele>
        <time>2019-05-07T12:17:27Z</time>
      </trkpt>
      <trkpt lat="44.81368" lon="0.67306">
        <ele>112.471</ele>
        <time>2019-05-07T12:17:29Z</time>
      </trkpt>
      <trkpt lat="44.81369" lon="0.67301">
        <ele>112.446</ele>
        <time>2019-05-07T12:17:31Z</time>
      </trkpt>
      <trkpt lat="44.8137" lon="0.67296">
        <ele>112.423</ele>
        <time>2019-05-07T12:17:33Z</time>
      </trkpt>
      <trkpt lat="44.8137" lon="0.67293">
        <ele>112.4</ele>
        <time>2019-05-07T12:17:35Z</time>
      </trkpt>
      <trkpt lat="44.81371" lon="0.67289">
        <ele>112.376</ele>
        <time>2019-05-07T12:17:37Z</time>
      </trkpt>
      <trkpt lat="44.81371" lon="0.67285">
        <ele>112.353</ele>
        <time>2019-05-07T12:17:39Z</time>
      </trkpt>
      <trkpt lat="44.81372" lon="0.6728">
        <ele>112.33</ele>
        <time>2019-05-07T12:17:41Z</time>
      </trkpt>
      <trkpt lat="44.81372" lon="0.67276">
        <ele>112.308</ele>
        <time>2019-05-07T12:17:43Z</time>
      </trkpt>
      <trkpt lat="44.81373" lon="0.67272">
        <ele>112.286</ele>
        <time>2019-05-07T12:17:45Z</time>
      </trkpt>
      <trkpt lat="44.81373" lon="0.67269">
        <ele>112.264</ele>
        <time>2019-05-07T12:17:47Z</time>
      </trkpt>
      <trkpt lat="44.81374" lon="0.67263">
        <ele>112.232</ele>
        <time>2019-05-07T12:17:50Z</time>
      </trkpt>
      <trkpt lat="44.81375" lon="0.67256">
        <ele>112.202</ele>
        <time>2019-05-07T12:17:53Z</time>
      </trkpt>
      <trkpt lat="44.81376" lon="0.67249">
        <ele>112.174</ele>
        <time>2019-05-07T12:17:56Z</time>
      </trkpt>
      <trkpt lat="44.81376" lon="0.67245">
        <ele>112.156</ele>
        <time>2019-05-07T12:17:58Z</time>
      </trkpt>
      <trkpt lat="44.81378" lon="0.67238">
        <ele>112.131</ele>
        <time>2019-05-07T12:18:01Z</time>
      </trkpt>
      <trkpt lat="44.8138" lon="0.6723">
        <ele>112.105</ele>
        <time>2019-05-07T12:18:04Z</time>
      </trkpt>
      <trkpt lat="44.81381" lon="0.67226">
        <ele>112.088</ele>
        <time>2019-05-07T12:18:06Z</time>
      </trkpt>
      <trkpt lat="44.81382" lon="0.67223">
        <ele>112.071</ele>
        <time>2019-05-07T12:18:08Z</time>
      </trkpt>
      <trkpt lat="44.81383" lon="0.67219">
        <ele>112.055</ele>
        <time>2019-05-07T12:18:10Z</time>
      </trkpt>
      <trkpt lat="44.81385" lon="0.67214">
        <ele>112.036</ele>
        <time>2019-05-07T12:18:12Z</time>
      </trkpt>
      <trkpt lat="44.81386" lon="0.67209">
        <ele>112.004</ele>
        <time>2019-05-07T12:18:15Z</time>
      </trkpt>
      <trkpt lat="44.8139" lon="0.67203">
        <ele>111.95</ele>
        <time>2019-05-07T12:18:19Z</time>
      </trkpt>
      <trkpt lat="44.81391" lon="0.67201">
        <ele>111.922</ele>
        <time>2019-05-07T12:18:21Z</time>
      </trkpt>
      <trkpt lat="44.81396" lon="0.67198">
        <ele>111.845</ele>
        <time>2019-05-07T12:18:26Z</time>
      </trkpt>
      <trkpt lat="44.81398" lon="0.67197">
        <ele>111.813</ele>
        <time>2019-05-07T12:18:28Z</time>
      </trkpt>
      <trkpt lat="44.81404" lon="0.67195">
        <ele>111.729</ele>
        <time>2019-05-07T12:18:33Z</time>
      </trkpt>
      <trkpt lat="44.81408" lon="0.67194">
        <ele>111.68</ele>
        <time>2019-05-07T12:18:36Z</time>
      </trkpt>
      <trkpt lat="44.81411" lon="0.67193">
        <ele>111.648</ele>
        <time>2019-05-07T12:18:38Z</time>
      </trkpt>
      <trkpt lat="44.81416" lon="0.67192">
        <ele>111.586</ele>
        <time>2019-05-07T12:18:42Z</time>
      </trkpt>
      <trkpt lat="44.81422" lon="0.67189">
        <ele>111.54</ele>
        <time>2019-05-07T12:18:45Z</time>
      </trkpt>
      <trkpt lat="44.81426" lon="0.67187">
        <ele>111.508</ele>
        <time>2019-05-07T12:18:47Z</time>
      </trkpt>
      <trkpt lat="44.81429" lon="0.67186">
        <ele>111.476</ele>
        <time>2019-05-07T12:18:49Z</time>
      </trkpt>
      <trkpt lat="44.81433" lon="0.67184">
        <ele>111.445</ele>
        <time>2019-05-07T12:18:51Z</time>
      </trkpt>
      <trkpt lat="44.81439" lon="0.6718">
        <ele>111.377</ele>
        <time>2019-05-07T12:18:55Z</time>
      </trkpt>
      <trkpt lat="44.81444" lon="0.67174">
        <ele>111.325</ele>
        <time>2019-05-07T12:18:58Z</time>
      </trkpt>
      <trkpt lat="44.81446" lon="0.67171">
        <ele>111.291</ele>
        <time>2019-05-07T12:19:00Z</time>
      </trkpt>
      <trkpt lat="44.81448" lon="0.67169">
        <ele>111.274</ele>
        <time>2019-05-07T12:19:01Z</time>
      </trkpt>
      <trkpt lat="44.81451" lon="0.67163">
        <ele>111.223</ele>
        <time>2019-05-07T12:19:04Z</time>
      </trkpt>
      <trkpt lat="44.81448" lon="0.67157">
        <ele>111.16</ele>
        <time>2019-05-07T12:19:08Z</time>
      </trkpt>
      <trkpt lat="44.81444" lon="0.67151">
        <ele>111.103</ele>
        <time>2019-05-07T12:19:12Z</time>
      </trkpt>
      <trkpt lat="44.81442" lon="0.67149">
        <ele>111.075</ele>
        <time>2019-05-07T12:19:14Z</time>
      </trkpt>
      <trkpt lat="44.81438" lon="0.67146">
        <ele>111.021</ele>
        <time>2019-05-07T12:19:18Z</time>
      </trkpt>
      <trkpt lat="44.81433" lon="0.67144">
        <ele>110.953</ele>
        <time>2019-05-07T12:19:24Z</time>
      </trkpt>
      <trkpt lat="44.81429" lon="0.67143">
        <ele>110.906</ele>
        <time>2019-05-07T12:19:29Z</time>
      </trkpt>
      <trkpt lat="44.81423" lon="0.67143">
        <ele>110.869</ele>
        <time>2019-05-07T12:19:34Z</time>
      </trkpt>
      <trkpt lat="44.81419" lon="0.6714">
        <ele>110.844</ele>
        <time>2019-05-07T12:19:38Z</time>
      </trkpt>
      <trkpt lat="44.81416" lon="0.67139">
        <ele>110.828</ele>
        <time>2019-05-07T12:19:41Z</time>
      </trkpt>
      <trkpt lat="44.81411" lon="0.67135">
        <ele>110.808</ele>
        <time>2019-05-07T12:19:46Z</time>
      </trkpt>
      <trkpt lat="44.81409" lon="0.67134">
        <ele>110.798</ele>
        <time>2019-05-07T12:19:49Z</time>
      </trkpt>
      <trkpt lat="44.81407" lon="0.67132">
        <ele>110.786</ele>
        <time>2019-05-07T12:19:53Z</time>
      </trkpt>
      <trkpt lat="44.81403" lon="0.67128">
        <ele>110.776</ele>
        <time>2019-05-07T12:19:57Z</time>
      </trkpt>
      <trkpt lat="44.81399" lon="0.67123">
        <ele>110.762</ele>
        <time>2019-05-07T12:20:01Z</time>
      </trkpt>
      <trkpt lat="44.81394" lon="0.67119">
        <ele>110.749</ele>
        <time>2019-05-07T12:20:05Z</time>
      </trkpt>
      <trkpt lat="44.81391" lon="0.67117">
        <ele>110.739</ele>
        <time>2019-05-07T12:20:09Z</time>
      </trkpt>
      <trkpt lat="44.81386" lon="0.67117">
        <ele>110.729</ele>
        <time>2019-05-07T12:20:13Z</time>
      </trkpt>
      <trkpt lat="44.81384" lon="0.67116">
        <ele>110.723</ele>
        <time>2019-05-07T12:20:16Z</time>
      </trkpt>
      <trkpt lat="44.81378" lon="0.67112">
        <ele>110.722</ele>
        <time>2019-05-07T12:20:19Z</time>
      </trkpt>
      <trkpt lat="44.81374" lon="0.67109">
        <ele>110.726</ele>
        <time>2019-05-07T12:20:21Z</time>
      </trkpt>
      <trkpt lat="44.8137" lon="0.67105">
        <ele>110.734</ele>
        <time>2019-05-07T12:20:24Z</time>
      </trkpt>
      <trkpt lat="44.81367" lon="0.67103">
        <ele>110.74</ele>
        <time>2019-05-07T12:20:26Z</time>
      </trkpt>
      <trkpt lat="44.81362" lon="0.67099">
        <ele>110.747</ele>
        <time>2019-05-07T12:20:30Z</time>
      </trkpt>
      <trkpt lat="44.81356" lon="0.6709">
        <ele>110.752</ele>
        <time>2019-05-07T12:20:33Z</time>
      </trkpt>
      <trkpt lat="44.81351" lon="0.67089">
        <ele>110.76</ele>
        <time>2019-05-07T12:20:37Z</time>
      </trkpt>
      <trkpt lat="44.81346" lon="0.67086">
        <ele>110.768</ele>
        <time>2019-05-07T12:20:42Z</time>
      </trkpt>
      <trkpt lat="44.81342" lon="0.6708">
        <ele>110.771</ele>
        <time>2019-05-07T12:20:46Z</time>
      </trkpt>
      <trkpt lat="44.81338" lon="0.67074">
        <ele>110.771</ele>
        <time>2019-05-07T12:20:49Z</time>
      </trkpt>
      <trkpt lat="44.81336" lon="0.6707">
        <ele>110.77</ele>
        <time>2019-05-07T12:20:51Z</time>
      </trkpt>
      <trkpt lat="44.81332" lon="0.67066">
        <ele>110.767</ele>
        <time>2019-05-07T12:20:54Z</time>
      </trkpt>
      <trkpt lat="44.81328" lon="0.67061">
        <ele>110.765</ele>
        <time>2019-05-07T12:20:59Z</time>
      </trkpt>
      <trkpt lat="44.81323" lon="0.67059">
        <ele>110.765</ele>
        <time>2019-05-07T12:21:02Z</time>
      </trkpt>
      <trkpt lat="44.81319" lon="0.67056">
        <ele>110.763</ele>
        <time>2019-05-07T12:21:04Z</time>
      </trkpt>
      <trkpt lat="44.81315" lon="0.67054">
        <ele>110.759</ele>
        <time>2019-05-07T12:21:06Z</time>
      </trkpt>
      <trkpt lat="44.8131" lon="0.67049">
        <ele>110.754</ele>
        <time>2019-05-07T12:21:08Z</time>
      </trkpt>
      <trkpt lat="44.81306" lon="0.67045">
        <ele>110.745</ele>
        <time>2019-05-07T12:21:11Z</time>
      </trkpt>
      <trkpt lat="44.81301" lon="0.6704">
        <ele>110.73</ele>
        <time>2019-05-07T12:21:14Z</time>
      </trkpt>
      <trkpt lat="44.81298" lon="0.67037">
        <ele>110.717</ele>
        <time>2019-05-07T12:21:16Z</time>
      </trkpt>
      <trkpt lat="44.81295" lon="0.67034">
        <ele>110.702</ele>
        <time>2019-05-07T12:21:18Z</time>
      </trkpt>
      <trkpt lat="44.81292" lon="0.67031">
        <ele>110.685</ele>
        <time>2019-05-07T12:21:20Z</time>
      </trkpt>
      <trkpt lat="44.81287" lon="0.67028">
        <ele>110.657</ele>
        <time>2019-05-07T12:21:23Z</time>
      </trkpt>
      <trkpt lat="44.81283" lon="0.67023">
        <ele>110.629</ele>
        <time>2019-05-07T12:21:26Z</time>
      </trkpt>
      <trkpt lat="44.81279" lon="0.67021">
        <ele>110.602</ele>
        <time>2019-05-07T12:21:29Z</time>
      </trkpt>
      <trkpt lat="44.81274" lon="0.67017">
        <ele>110.568</ele>
        <time>2019-05-07T12:21:33Z</time>
      </trkpt>
      <trkpt lat="44.81269" lon="0.67013">
        <ele>110.547</ele>
        <time>2019-05-07T12:21:36Z</time>
      </trkpt>
      <trkpt lat="44.81264" lon="0.67011">
        <ele>110.528</ele>
        <time>2019-05-07T12:21:39Z</time>
      </trkpt>
      <trkpt lat="44.8126" lon="0.67009">
        <ele>110.516</ele>
        <time>2019-05-07T12:21:41Z</time>
      </trkpt>
      <trkpt lat="44.81257" lon="0.67007">
        <ele>110.502</ele>
        <time>2019-05-07T12:21:43Z</time>
      </trkpt>
      <trkpt lat="44.81252" lon="0.67004">
        <ele>110.468</ele>
        <time>2019-05-07T12:21:48Z</time>
      </trkpt>
      <trkpt lat="44.81248" lon="0.67002">
        <ele>110.449</ele>
        <time>2019-05-07T12:21:51Z</time>
      </trkpt>
      <trkpt lat="44.81244" lon="0.66999">
        <ele>110.421</ele>
        <time>2019-05-07T12:21:56Z</time>
      </trkpt>
      <trkpt lat="44.81239" lon="0.66997">
        <ele>110.406</ele>
        <time>2019-05-07T12:21:59Z</time>
      </trkpt>
      <trkpt lat="44.81235" lon="0.66995">
        <ele>110.396</ele>
        <time>2019-05-07T12:22:01Z</time>
      </trkpt>
      <trkpt lat="44.81231" lon="0.66994">
        <ele>110.387</ele>
        <time>2019-05-07T12:22:03Z</time>
      </trkpt>
      <trkpt lat="44.81226" lon="0.66991">
        <ele>110.372</ele>
        <time>2019-05-07T12:22:07Z</time>
      </trkpt>
      <trkpt lat="44.8122" lon="0.66989">
        <ele>110.358</ele>
        <time>2019-05-07T12:22:11Z</time>
      </trkpt>
      <trkpt lat="44.81216" lon="0.66988">
        <ele>110.349</ele>
        <time>2019-05-07T12:22:13Z</time>
      </trkpt>
      <trkpt lat="44.81212" lon="0.66987">
        <ele>110.34</ele>
        <time>2019-05-07T12:22:15Z</time>
      </trkpt>
      <trkpt lat="44.81206" lon="0.66983">
        <ele>110.323</ele>
        <time>2019-05-07T12:22:20Z</time>
      </trkpt>
      <trkpt lat="44.81202" lon="0.66982">
        <ele>110.318</ele>
        <time>2019-05-07T12:22:24Z</time>
      </trkpt>
      <trkpt lat="44.81196" lon="0.66979">
        <ele>110.321</ele>
        <time>2019-05-07T12:22:27Z</time>
      </trkpt>
      <trkpt lat="44.81191" lon="0.66976">
        <ele>110.331</ele>
        <time>2019-05-07T12:22:30Z</time>
      </trkpt>
      <trkpt lat="44.81184" lon="0.66975">
        <ele>110.352</ele>
        <time>2019-05-07T12:22:33Z</time>
      </trkpt>
      <trkpt lat="44.81179" lon="0.66973">
        <ele>110.37</ele>
        <time>2019-05-07T12:22:35Z</time>
      </trkpt>
      <trkpt lat="44.81175" lon="0.66972">
        <ele>110.391</ele>
        <time>2019-05-07T12:22:37Z</time>
      </trkpt>
      <trkpt lat="44.81171" lon="0.6697">
        <ele>110.471</ele>
        <time>2019-05-07T12:22:43Z</time>
      </trkpt>
      <trkpt lat="44.81167" lon="0.66968">
        <ele>110.549</ele>
        <time>2019-05-07T12:22:49Z</time>
      </trkpt>
      <trkpt lat="44.81163" lon="0.66968">
        <ele>110.629</ele>
        <time>2019-05-07T12:22:54Z</time>
      </trkpt>
      <trkpt lat="44.81158" lon="0.66967">
        <ele>110.674</ele>
        <time>2019-05-07T12:22:57Z</time>
      </trkpt>
      <trkpt lat="44.81154" lon="0.66965">
        <ele>110.718</ele>
        <time>2019-05-07T12:23:00Z</time>
      </trkpt>
      <trkpt lat="44.81143" lon="0.66962">
        <ele>110.781</ele>
        <time>2019-05-07T12:23:04Z</time>
      </trkpt>
      <trkpt lat="44.81141" lon="0.66961">
        <ele>110.799</ele>
        <time>2019-05-07T12:23:06Z</time>
      </trkpt>
      <trkpt lat="44.81136" lon="0.66958">
        <ele>110.861</ele>
        <time>2019-05-07T12:23:11Z</time>
      </trkpt>
      <trkpt lat="44.81132" lon="0.66953">
        <ele>110.917</ele>
        <time>2019-05-07T12:23:15Z</time>
      </trkpt>
      <trkpt lat="44.81128" lon="0.6695">
        <ele>110.995</ele>
        <time>2019-05-07T12:23:21Z</time>
      </trkpt>
      <trkpt lat="44.81122" lon="0.66947">
        <ele>111.036</ele>
        <time>2019-05-07T12:23:24Z</time>
      </trkpt>
      <trkpt lat="44.81118" lon="0.66946">
        <ele>111.066</ele>
        <time>2019-05-07T12:23:26Z</time>
      </trkpt>
      <trkpt lat="44.81114" lon="0.66942">
        <ele>111.115</ele>
        <time>2019-05-07T12:23:29Z</time>
      </trkpt>
      <trkpt lat="44.81106" lon="0.66939">
        <ele>111.168</ele>
        <time>2019-05-07T12:23:32Z</time>
      </trkpt>
      <trkpt lat="44.81102" lon="0.66937">
        <ele>111.205</ele>
        <time>2019-05-07T12:23:34Z</time>
      </trkpt>
      <trkpt lat="44.81099" lon="0.66933">
        <ele>111.282</ele>
        <time>2019-05-07T12:23:38Z</time>
      </trkpt>
      <trkpt lat="44.81096" lon="0.66927">
        <ele>111.382</ele>
        <time>2019-05-07T12:23:43Z</time>
      </trkpt>
      <trkpt lat="44.81092" lon="0.66925">
        <ele>111.475</ele>
        <time>2019-05-07T12:23:48Z</time>
      </trkpt>
      <trkpt lat="44.81087" lon="0.66925">
        <ele>111.51</ele>
        <time>2019-05-07T12:23:50Z</time>
      </trkpt>
      <trkpt lat="44.81082" lon="0.66924">
        <ele>111.546</ele>
        <time>2019-05-07T12:23:52Z</time>
      </trkpt>
      <trkpt lat="44.81077" lon="0.6692">
        <ele>111.634</ele>
        <time>2019-05-07T12:23:57Z</time>
      </trkpt>
      <trkpt lat="44.81074" lon="0.66916">
        <ele>111.7</ele>
        <time>2019-05-07T12:24:01Z</time>
      </trkpt>
      <trkpt lat="44.81071" lon="0.66912">
        <ele>111.765</ele>
        <time>2019-05-07T12:24:05Z</time>
      </trkpt>
      <trkpt lat="44.81067" lon="0.66908">
        <ele>111.827</ele>
        <time>2019-05-07T12:24:09Z</time>
      </trkpt>
      <trkpt lat="44.81063" lon="0.66905">
        <ele>111.889</ele>
        <time>2019-05-07T12:24:13Z</time>
      </trkpt>
      <trkpt lat="44.81058" lon="0.66905">
        <ele>111.918</ele>
        <time>2019-05-07T12:24:15Z</time>
      </trkpt>
      <trkpt lat="44.81052" lon="0.66902">
        <ele>111.96</ele>
        <time>2019-05-07T12:24:18Z</time>
      </trkpt>
      <trkpt lat="44.81042" lon="0.66897">
        <ele>112.049</ele>
        <time>2019-05-07T12:24:23Z</time>
      </trkpt>
      <trkpt lat="44.81039" lon="0.66893">
        <ele>112.087</ele>
        <time>2019-05-07T12:24:25Z</time>
      </trkpt>
      <trkpt lat="44.81034" lon="0.66893">
        <ele>112.158</ele>
        <time>2019-05-07T12:24:29Z</time>
      </trkpt>
      <trkpt lat="44.8103" lon="0.66893">
        <ele>112.21</ele>
        <time>2019-05-07T12:24:32Z</time>
      </trkpt>
      <trkpt lat="44.81025" lon="0.66894">
        <ele>112.274</ele>
        <time>2019-05-07T12:24:36Z</time>
      </trkpt>
      <trkpt lat="44.8102" lon="0.66894">
        <ele>112.33</ele>
        <time>2019-05-07T12:24:40Z</time>
      </trkpt>
      <trkpt lat="44.81018" lon="0.66894">
        <ele>112.354</ele>
        <time>2019-05-07T12:24:42Z</time>
      </trkpt>
      <trkpt lat="44.81006" lon="0.66892">
        <ele>112.415</ele>
        <time>2019-05-07T12:24:48Z</time>
      </trkpt>
      <trkpt lat="44.81003" lon="0.66891">
        <ele>112.423</ele>
        <time>2019-05-07T12:24:49Z</time>
      </trkpt>
      <trkpt lat="44.80997" lon="0.6689">
        <ele>112.439</ele>
        <time>2019-05-07T12:24:51Z</time>
      </trkpt>
      <trkpt lat="44.80992" lon="0.6689">
        <ele>112.465</ele>
        <time>2019-05-07T12:24:54Z</time>
      </trkpt>
      <trkpt lat="44.80987" lon="0.66888">
        <ele>112.514</ele>
        <time>2019-05-07T12:25:00Z</time>
      </trkpt>
      <trkpt lat="44.80983" lon="0.6688">
        <ele>112.55</ele>
        <time>2019-05-07T12:25:07Z</time>
      </trkpt>
      <trkpt lat="44.80981" lon="0.66878">
        <ele>112.56</ele>
        <time>2019-05-07T12:25:08Z</time>
      </trkpt>
      <trkpt lat="44.80976" lon="0.66874">
        <ele>112.581</ele>
        <time>2019-05-07T12:25:10Z</time>
      </trkpt>
      <trkpt lat="44.80972" lon="0.6687">
        <ele>112.611</ele>
        <time>2019-05-07T12:25:14Z</time>
      </trkpt>
      <trkpt lat="44.80967" lon="0.66866">
        <ele>112.663</ele>
        <time>2019-05-07T12:25:20Z</time>
      </trkpt>
      <trkpt lat="44.80962" lon="0.66864">
        <ele>112.686</ele>
        <time>2019-05-07T12:25:23Z</time>
      </trkpt>
      <trkpt lat="44.80959" lon="0.66858">
        <ele>112.704</ele>
        <time>2019-05-07T12:25:27Z</time>
      </trkpt>
      <trkpt lat="44.8095" lon="0.66848">
        <ele>112.715</ele>
        <time>2019-05-07T12:25:36Z</time>
      </trkpt>
      <trkpt lat="44.80945" lon="0.66845">
        <ele>112.717</ele>
        <time>2019-05-07T12:25:38Z</time>
      </trkpt>
      <trkpt lat="44.80941" lon="0.66841">
        <ele>112.72</ele>
        <time>2019-05-07T12:25:41Z</time>
      </trkpt>
      <trkpt lat="44.80937" lon="0.66838">
        <ele>112.721</ele>
        <time>2019-05-07T12:25:44Z</time>
      </trkpt>
      <trkpt lat="44.80933" lon="0.66833">
        <ele>112.721</ele>
        <time>2019-05-07T12:25:47Z</time>
      </trkpt>
      <trkpt lat="44.80928" lon="0.66833">
        <ele>112.719</ele>
        <time>2019-05-07T12:25:50Z</time>
      </trkpt>
      <trkpt lat="44.80924" lon="0.66828">
        <ele>112.726</ele>
        <time>2019-05-07T12:25:55Z</time>
      </trkpt>
      <trkpt lat="44.8092" lon="0.66823">
        <ele>112.732</ele>
        <time>2019-05-07T12:25:58Z</time>
      </trkpt>
      <trkpt lat="44.80915" lon="0.66818">
        <ele>112.74</ele>
        <time>2019-05-07T12:26:01Z</time>
      </trkpt>
      <trkpt lat="44.80913" lon="0.66816">
        <ele>112.746</ele>
        <time>2019-05-07T12:26:03Z</time>
      </trkpt>
      <trkpt lat="44.80908" lon="0.66812">
        <ele>112.754</ele>
        <time>2019-05-07T12:26:06Z</time>
      </trkpt>
      <trkpt lat="44.80904" lon="0.66809">
        <ele>112.763</ele>
        <time>2019-05-07T12:26:09Z</time>
      </trkpt>
      <trkpt lat="44.80899" lon="0.66807">
        <ele>112.775</ele>
        <time>2019-05-07T12:26:12Z</time>
      </trkpt>
      <trkpt lat="44.80894" lon="0.66806">
        <ele>112.793</ele>
        <time>2019-05-07T12:26:16Z</time>
      </trkpt>
      <trkpt lat="44.80888" lon="0.66802">
        <ele>112.824</ele>
        <time>2019-05-07T12:26:22Z</time>
      </trkpt>
      <trkpt lat="44.80883" lon="0.66801">
        <ele>112.849</ele>
        <time>2019-05-07T12:26:26Z</time>
      </trkpt>
      <trkpt lat="44.8088" lon="0.66797">
        <ele>112.869</ele>
        <time>2019-05-07T12:26:29Z</time>
      </trkpt>
      <trkpt lat="44.80877" lon="0.66795">
        <ele>112.883</ele>
        <time>2019-05-07T12:26:31Z</time>
      </trkpt>
      <trkpt lat="44.80872" lon="0.66792">
        <ele>112.904</ele>
        <time>2019-05-07T12:26:34Z</time>
      </trkpt>
      <trkpt lat="44.80867" lon="0.66791">
        <ele>112.931</ele>
        <time>2019-05-07T12:26:38Z</time>
      </trkpt>
      <trkpt lat="44.80863" lon="0.66788">
        <ele>112.949</ele>
        <time>2019-05-07T12:26:41Z</time>
      </trkpt>
      <trkpt lat="44.80859" lon="0.66782">
        <ele>112.97</ele>
        <time>2019-05-07T12:26:44Z</time>
      </trkpt>
      <trkpt lat="44.80855" lon="0.66778">
        <ele>112.985</ele>
        <time>2019-05-07T12:26:46Z</time>
      </trkpt>
      <trkpt lat="44.80852" lon="0.66772">
        <ele>113.029</ele>
        <time>2019-05-07T12:26:51Z</time>
      </trkpt>
      <trkpt lat="44.8085" lon="0.66769">
        <ele>113.048</ele>
        <time>2019-05-07T12:26:53Z</time>
      </trkpt>
      <trkpt lat="44.80847" lon="0.66763">
        <ele>113.09</ele>
        <time>2019-05-07T12:26:57Z</time>
      </trkpt>
      <trkpt lat="44.80843" lon="0.66756">
        <ele>113.121</ele>
        <time>2019-05-07T12:27:00Z</time>
      </trkpt>
      <trkpt lat="44.80838" lon="0.66751">
        <ele>113.142</ele>
        <time>2019-05-07T12:27:02Z</time>
      </trkpt>
      <trkpt lat="44.80836" lon="0.66749">
        <ele>113.153</ele>
        <time>2019-05-07T12:27:04Z</time>
      </trkpt>
      <trkpt lat="44.80835" lon="0.66743">
        <ele>113.244</ele>
        <time>2019-05-07T12:27:11Z</time>
      </trkpt>
      <trkpt lat="44.80829" lon="0.66736">
        <ele>113.298</ele>
        <time>2019-05-07T12:27:15Z</time>
      </trkpt>
      <trkpt lat="44.80826" lon="0.66731">
        <ele>113.353</ele>
        <time>2019-05-07T12:27:20Z</time>
      </trkpt>
      <trkpt lat="44.8082" lon="0.66728">
        <ele>113.381</ele>
        <time>2019-05-07T12:27:24Z</time>
      </trkpt>
      <trkpt lat="44.80817" lon="0.66727">
        <ele>113.403</ele>
        <time>2019-05-07T12:27:27Z</time>
      </trkpt>
      <trkpt lat="44.80814" lon="0.66722">
        <ele>113.417</ele>
        <time>2019-05-07T12:27:29Z</time>
      </trkpt>
      <trkpt lat="44.80812" lon="0.66718">
        <ele>113.429</ele>
        <time>2019-05-07T12:27:31Z</time>
      </trkpt>
      <trkpt lat="44.80808" lon="0.66714">
        <ele>113.451</ele>
        <time>2019-05-07T12:27:35Z</time>
      </trkpt>
      <trkpt lat="44.80803" lon="0.6671">
        <ele>113.471</ele>
        <time>2019-05-07T12:27:40Z</time>
      </trkpt>
      <trkpt lat="44.80798" lon="0.66705">
        <ele>113.483</ele>
        <time>2019-05-07T12:27:43Z</time>
      </trkpt>
      <trkpt lat="44.80791" lon="0.66701">
        <ele>113.495</ele>
        <time>2019-05-07T12:27:46Z</time>
      </trkpt>
      <trkpt lat="44.80787" lon="0.66697">
        <ele>113.519</ele>
        <time>2019-05-07T12:27:52Z</time>
      </trkpt>
      <trkpt lat="44.80783" lon="0.66694">
        <ele>113.527</ele>
        <time>2019-05-07T12:27:57Z</time>
      </trkpt>
      <trkpt lat="44.80779" lon="0.66691">
        <ele>113.528</ele>
        <time>2019-05-07T12:27:59Z</time>
      </trkpt>
      <trkpt lat="44.8077" lon="0.66685">
        <ele>113.529</ele>
        <time>2019-05-07T12:28:03Z</time>
      </trkpt>
      <trkpt lat="44.80768" lon="0.66683">
        <ele>113.529</ele>
        <time>2019-05-07T12:28:06Z</time>
      </trkpt>
      <trkpt lat="44.80765" lon="0.66681">
        <ele>113.53</ele>
        <time>2019-05-07T12:28:08Z</time>
      </trkpt>
      <trkpt lat="44.80754" lon="0.6668">
        <ele>113.535</ele>
        <time>2019-05-07T12:28:11Z</time>
      </trkpt>
      <trkpt lat="44.80749" lon="0.66674">
        <ele>113.539</ele>
        <time>2019-05-07T12:28:13Z</time>
      </trkpt>
      <trkpt lat="44.80744" lon="0.6667">
        <ele>113.556</ele>
        <time>2019-05-07T12:28:19Z</time>
      </trkpt>
      <trkpt lat="44.80743" lon="0.66663">
        <ele>113.598</ele>
        <time>2019-05-07T12:28:25Z</time>
      </trkpt>
      <trkpt lat="44.80736" lon="0.66659">
        <ele>113.648</ele>
        <time>2019-05-07T12:28:29Z</time>
      </trkpt>
      <trkpt lat="44.80729" lon="0.66656">
        <ele>113.692</ele>
        <time>2019-05-07T12:28:32Z</time>
      </trkpt>
      <trkpt lat="44.80725" lon="0.66656">
        <ele>113.722</ele>
        <time>2019-05-07T12:28:34Z</time>
      </trkpt>
      <trkpt lat="44.8072" lon="0.66653">
        <ele>113.827</ele>
        <time>2019-05-07T12:28:40Z</time>
      </trkpt>
      <trkpt lat="44.80715" lon="0.6665">
        <ele>113.881</ele>
        <time>2019-05-07T12:28:43Z</time>
      </trkpt>
      <trkpt lat="44.80712" lon="0.66647">
        <ele>113.955</ele>
        <time>2019-05-07T12:28:50Z</time>
      </trkpt>
      <trkpt lat="44.80702" lon="0.66641">
        <ele>114.077</ele>
        <time>2019-05-07T12:28:57Z</time>
      </trkpt>
      <trkpt lat="44.80698" lon="0.66637">
        <ele>114.135</ele>
        <time>2019-05-07T12:29:00Z</time>
      </trkpt>
      <trkpt lat="44.80693" lon="0.66634">
        <ele>114.174</ele>
        <time>2019-05-07T12:29:02Z</time>
      </trkpt>
      <trkpt lat="44.80687" lon="0.66633">
        <ele>114.211</ele>
        <time>2019-05-07T12:29:04Z</time>
      </trkpt>
      <trkpt lat="44.80682" lon="0.66631">
        <ele>114.262</ele>
        <time>2019-05-07T12:29:07Z</time>
      </trkpt>
      <trkpt lat="44.8068" lon="0.6663">
        <ele>114.278</ele>
        <time>2019-05-07T12:29:08Z</time>
      </trkpt>
      <trkpt lat="44.80677" lon="0.66624">
        <ele>114.343</ele>
        <time>2019-05-07T12:29:12Z</time>
      </trkpt>
      <trkpt lat="44.80672" lon="0.66622">
        <ele>114.394</ele>
        <time>2019-05-07T12:29:15Z</time>
      </trkpt>
      <trkpt lat="44.80667" lon="0.66618">
        <ele>114.475</ele>
        <time>2019-05-07T12:29:19Z</time>
      </trkpt>
      <trkpt lat="44.80663" lon="0.66613">
        <ele>114.591</ele>
        <time>2019-05-07T12:29:24Z</time>
      </trkpt>
      <trkpt lat="44.80658" lon="0.6661">
        <ele>114.678</ele>
        <time>2019-05-07T12:29:28Z</time>
      </trkpt>
      <trkpt lat="44.80655" lon="0.66608">
        <ele>114.707</ele>
        <time>2019-05-07T12:29:34Z</time>
      </trkpt>
      <trkpt lat="44.8065" lon="0.66608">
        <ele>114.765</ele>
        <time>2019-05-07T12:29:37Z</time>
      </trkpt>
      <trkpt lat="44.80646" lon="0.66607">
        <ele>114.805</ele>
        <time>2019-05-07T12:29:39Z</time>
      </trkpt>
      <trkpt lat="44.80641" lon="0.66604">
        <ele>114.866</ele>
        <time>2019-05-07T12:29:42Z</time>
      </trkpt>
      <trkpt lat="44.80636" lon="0.66598">
        <ele>114.889</ele>
        <time>2019-05-07T12:29:44Z</time>
      </trkpt>
      <trkpt lat="44.80631" lon="0.66598">
        <ele>114.978</ele>
        <time>2019-05-07T12:29:51Z</time>
      </trkpt>
      <trkpt lat="44.80626" lon="0.66599">
        <ele>115.069</ele>
        <time>2019-05-07T12:29:55Z</time>
      </trkpt>
      <trkpt lat="44.80619" lon="0.666">
        <ele>115.135</ele>
        <time>2019-05-07T12:29:58Z</time>
      </trkpt>
      <trkpt lat="44.80614" lon="0.66598">
        <ele>115.222</ele>
        <time>2019-05-07T12:30:03Z</time>
      </trkpt>
      <trkpt lat="44.8061" lon="0.66592">
        <ele>115.303</ele>
        <time>2019-05-07T12:30:07Z</time>
      </trkpt>
      <trkpt lat="44.80607" lon="0.66584">
        <ele>115.382</ele>
        <time>2019-05-07T12:30:11Z</time>
      </trkpt>
      <trkpt lat="44.80601" lon="0.66578">
        <ele>115.443</ele>
        <time>2019-05-07T12:30:14Z</time>
      </trkpt>
      <trkpt lat="44.80599" lon="0.6657">
        <ele>115.589</ele>
        <time>2019-05-07T12:30:20Z</time>
      </trkpt>
      <trkpt lat="44.80597" lon="0.66564">
        <ele>115.866</ele>
        <time>2019-05-07T12:30:30Z</time>
      </trkpt>
      <trkpt lat="44.80592" lon="0.66554">
        <ele>115.979</ele>
        <time>2019-05-07T12:30:34Z</time>
      </trkpt>
      <trkpt lat="44.80591" lon="0.6655">
        <ele>116.037</ele>
        <time>2019-05-07T12:30:36Z</time>
      </trkpt>
      <trkpt lat="44.80589" lon="0.66544">
        <ele>116.126</ele>
        <time>2019-05-07T12:30:39Z</time>
      </trkpt>
      <trkpt lat="44.80587" lon="0.66537">
        <ele>116.249</ele>
        <time>2019-05-07T12:30:43Z</time>
      </trkpt>
      <trkpt lat="44.80591" lon="0.66527">
        <ele>116.316</ele>
        <time>2019-05-07T12:30:45Z</time>
      </trkpt>
      <trkpt lat="44.80591" lon="0.66521">
        <ele>116.544</ele>
        <time>2019-05-07T12:30:51Z</time>
      </trkpt>
      <trkpt lat="44.80586" lon="0.66515">
        <ele>116.71</ele>
        <time>2019-05-07T12:30:55Z</time>
      </trkpt>
      <trkpt lat="44.80583" lon="0.66512">
        <ele>116.834</ele>
        <time>2019-05-07T12:30:58Z</time>
      </trkpt>
      <trkpt lat="44.8058" lon="0.66508">
        <ele>116.958</ele>
        <time>2019-05-07T12:31:01Z</time>
      </trkpt>
      <trkpt lat="44.80578" lon="0.66501">
        <ele>117.158</ele>
        <time>2019-05-07T12:31:06Z</time>
      </trkpt>
      <trkpt lat="44.80574" lon="0.66495">
        <ele>117.357</ele>
        <time>2019-05-07T12:31:11Z</time>
      </trkpt>
      <trkpt lat="44.80571" lon="0.66489">
        <ele>117.475</ele>
        <time>2019-05-07T12:31:14Z</time>
      </trkpt>
      <trkpt lat="44.80564" lon="0.66484">
        <ele>117.593</ele>
        <time>2019-05-07T12:31:17Z</time>
      </trkpt>
      <trkpt lat="44.80559" lon="0.66481">
        <ele>117.711</ele>
        <time>2019-05-07T12:31:20Z</time>
      </trkpt>
      <trkpt lat="44.80556" lon="0.6648">
        <ele>117.786</ele>
        <time>2019-05-07T12:31:22Z</time>
      </trkpt>
      <trkpt lat="44.80552" lon="0.66478">
        <ele>117.886</ele>
        <time>2019-05-07T12:31:25Z</time>
      </trkpt>
      <trkpt lat="44.80551" lon="0.66453">
        <ele>118.043</ele>
        <time>2019-05-07T12:31:30Z</time>
      </trkpt>
      <trkpt lat="44.80555" lon="0.66448">
        <ele>118.073</ele>
        <time>2019-05-07T12:31:31Z</time>
      </trkpt>
      <trkpt lat="44.8055" lon="0.6644">
        <ele>118.161</ele>
        <time>2019-05-07T12:31:34Z</time>
      </trkpt>
      <trkpt lat="44.80547" lon="0.66435">
        <ele>118.289</ele>
        <time>2019-05-07T12:31:39Z</time>
      </trkpt>
      <trkpt lat="44.80544" lon="0.66428">
        <ele>118.383</ele>
        <time>2019-05-07T12:31:43Z</time>
      </trkpt>
      <trkpt lat="44.80541" lon="0.66423">
        <ele>118.456</ele>
        <time>2019-05-07T12:31:46Z</time>
      </trkpt>
      <trkpt lat="44.80539" lon="0.66416">
        <ele>118.528</ele>
        <time>2019-05-07T12:31:49Z</time>
      </trkpt>
      <trkpt lat="44.80538" lon="0.66411">
        <ele>118.578</ele>
        <time>2019-05-07T12:31:51Z</time>
      </trkpt>
      <trkpt lat="44.80536" lon="0.66404">
        <ele>118.686</ele>
        <time>2019-05-07T12:31:55Z</time>
      </trkpt>
      <trkpt lat="44.80535" lon="0.66397">
        <ele>118.831</ele>
        <time>2019-05-07T12:32:00Z</time>
      </trkpt>
      <trkpt lat="44.8053" lon="0.6639">
        <ele>118.889</ele>
        <time>2019-05-07T12:32:02Z</time>
      </trkpt>
      <trkpt lat="44.80528" lon="0.66382">
        <ele>118.976</ele>
        <time>2019-05-07T12:32:05Z</time>
      </trkpt>
      <trkpt lat="44.80529" lon="0.66373">
        <ele>119.035</ele>
        <time>2019-05-07T12:32:07Z</time>
      </trkpt>
      <trkpt lat="44.80529" lon="0.66363">
        <ele>119.129</ele>
        <time>2019-05-07T12:32:10Z</time>
      </trkpt>
      <trkpt lat="44.80532" lon="0.66357">
        <ele>119.267</ele>
        <time>2019-05-07T12:32:14Z</time>
      </trkpt>
      <trkpt lat="44.80534" lon="0.66349">
        <ele>119.376</ele>
        <time>2019-05-07T12:32:17Z</time>
      </trkpt>
      <trkpt lat="44.80535" lon="0.66338">
        <ele>119.484</ele>
        <time>2019-05-07T12:32:20Z</time>
      </trkpt>
      <trkpt lat="44.80534" lon="0.66331">
        <ele>119.737</ele>
        <time>2019-05-07T12:32:26Z</time>
      </trkpt>
      <trkpt lat="44.80533" lon="0.66324">
        <ele>119.863</ele>
        <time>2019-05-07T12:32:29Z</time>
      </trkpt>
      <trkpt lat="44.80534" lon="0.66317">
        <ele>119.949</ele>
        <time>2019-05-07T12:32:31Z</time>
      </trkpt>
      <trkpt lat="44.80533" lon="0.6631">
        <ele>120.085</ele>
        <time>2019-05-07T12:32:34Z</time>
      </trkpt>
      <trkpt lat="44.80532" lon="0.66304">
        <ele>120.18</ele>
        <time>2019-05-07T12:32:36Z</time>
      </trkpt>
      <trkpt lat="44.8053" lon="0.663">
        <ele>120.429</ele>
        <time>2019-05-07T12:32:41Z</time>
      </trkpt>
      <trkpt lat="44.80532" lon="0.66292">
        <ele>120.578</ele>
        <time>2019-05-07T12:32:44Z</time>
      </trkpt>
      <trkpt lat="44.80533" lon="0.66289">
        <ele>120.628</ele>
        <time>2019-05-07T12:32:45Z</time>
      </trkpt>
      <trkpt lat="44.80532" lon="0.6628">
        <ele>120.78</ele>
        <time>2019-05-07T12:32:48Z</time>
      </trkpt>
      <trkpt lat="44.80531" lon="0.66272">
        <ele>121.031</ele>
        <time>2019-05-07T12:32:53Z</time>
      </trkpt>
      <trkpt lat="44.80529" lon="0.66265">
        <ele>121.232</ele>
        <time>2019-05-07T12:32:57Z</time>
      </trkpt>
      <trkpt lat="44.80522" lon="0.66264">
        <ele>121.432</ele>
        <time>2019-05-07T12:33:01Z</time>
      </trkpt>
      <trkpt lat="44.80517" lon="0.66262">
        <ele>121.627</ele>
        <time>2019-05-07T12:33:05Z</time>
      </trkpt>
      <trkpt lat="44.80513" lon="0.66258">
        <ele>121.723</ele>
        <time>2019-05-07T12:33:07Z</time>
      </trkpt>
      <trkpt lat="44.80512" lon="0.66252">
        <ele>121.865</ele>
        <time>2019-05-07T12:33:10Z</time>
      </trkpt>
      <trkpt lat="44.80511" lon="0.66243">
        <ele>122.003</ele>
        <time>2019-05-07T12:33:13Z</time>
      </trkpt>
      <trkpt lat="44.8051" lon="0.66236">
        <ele>122.137</ele>
        <time>2019-05-07T12:33:17Z</time>
      </trkpt>
      <trkpt lat="44.80512" lon="0.66228">
        <ele>122.262</ele>
        <time>2019-05-07T12:33:20Z</time>
      </trkpt>
      <trkpt lat="44.80511" lon="0.66217">
        <ele>122.343</ele>
        <time>2019-05-07T12:33:22Z</time>
      </trkpt>
      <trkpt lat="44.80511" lon="0.66213">
        <ele>122.383</ele>
        <time>2019-05-07T12:33:23Z</time>
      </trkpt>
      <trkpt lat="44.80511" lon="0.6621">
        <ele>122.423</ele>
        <time>2019-05-07T12:33:24Z</time>
      </trkpt>
      <trkpt lat="44.80512" lon="0.66206">
        <ele>122.504</ele>
        <time>2019-05-07T12:33:26Z</time>
      </trkpt>
      <trkpt lat="44.80512" lon="0.66203">
        <ele>122.584</ele>
        <time>2019-05-07T12:33:28Z</time>
      </trkpt>
      <trkpt lat="44.80511" lon="0.66195">
        <ele>122.785</ele>
        <time>2019-05-07T12:33:33Z</time>
      </trkpt>
      <trkpt lat="44.80512" lon="0.66187">
        <ele>122.907</ele>
        <time>2019-05-07T12:33:36Z</time>
      </trkpt>
      <trkpt lat="44.80513" lon="0.6618">
        <ele>123.076</ele>
        <time>2019-05-07T12:33:40Z</time>
      </trkpt>
      <trkpt lat="44.80516" lon="0.66174">
        <ele>123.242</ele>
        <time>2019-05-07T12:33:44Z</time>
      </trkpt>
      <trkpt lat="44.8052" lon="0.66167">
        <ele>123.531</ele>
        <time>2019-05-07T12:33:51Z</time>
      </trkpt>
      <trkpt lat="44.80525" lon="0.66161">
        <ele>123.657</ele>
        <time>2019-05-07T12:33:54Z</time>
      </trkpt>
      <trkpt lat="44.80527" lon="0.66155">
        <ele>123.83</ele>
        <time>2019-05-07T12:33:58Z</time>
      </trkpt>
      <trkpt lat="44.80528" lon="0.66148">
        <ele>123.999</ele>
        <time>2019-05-07T12:34:02Z</time>
      </trkpt>
      <trkpt lat="44.80529" lon="0.66145">
        <ele>124.042</ele>
        <time>2019-05-07T12:34:03Z</time>
      </trkpt>
      <trkpt lat="44.80528" lon="0.66137">
        <ele>124.168</ele>
        <time>2019-05-07T12:34:06Z</time>
      </trkpt>
      <trkpt lat="44.80527" lon="0.66129">
        <ele>124.337</ele>
        <time>2019-05-07T12:34:10Z</time>
      </trkpt>
      <trkpt lat="44.80527" lon="0.66121">
        <ele>124.505</ele>
        <time>2019-05-07T12:34:14Z</time>
      </trkpt>
      <trkpt lat="44.80527" lon="0.66117">
        <ele>124.589</ele>
        <time>2019-05-07T12:34:16Z</time>
      </trkpt>
      <trkpt lat="44.80527" lon="0.66109">
        <ele>124.754</ele>
        <time>2019-05-07T12:34:20Z</time>
      </trkpt>
      <trkpt lat="44.80524" lon="0.66102">
        <ele>125.009</ele>
        <time>2019-05-07T12:34:26Z</time>
      </trkpt>
      <trkpt lat="44.80521" lon="0.66097">
        <ele>125.142</ele>
        <time>2019-05-07T12:34:29Z</time>
      </trkpt>
      <trkpt lat="44.80519" lon="0.66094">
        <ele>125.233</ele>
        <time>2019-05-07T12:34:31Z</time>
      </trkpt>
      <trkpt lat="44.80518" lon="0.66085">
        <ele>125.419</ele>
        <time>2019-05-07T12:34:35Z</time>
      </trkpt>
      <trkpt lat="44.80518" lon="0.66078">
        <ele>125.562</ele>
        <time>2019-05-07T12:34:38Z</time>
      </trkpt>
      <trkpt lat="44.80517" lon="0.66072">
        <ele>125.706</ele>
        <time>2019-05-07T12:34:41Z</time>
      </trkpt>
      <trkpt lat="44.80517" lon="0.66068">
        <ele>125.801</ele>
        <time>2019-05-07T12:34:43Z</time>
      </trkpt>
      <trkpt lat="44.80516" lon="0.66063">
        <ele>125.939</ele>
        <time>2019-05-07T12:34:46Z</time>
      </trkpt>
      <trkpt lat="44.80516" lon="0.66056">
        <ele>126.074</ele>
        <time>2019-05-07T12:34:49Z</time>
      </trkpt>
      <trkpt lat="44.80515" lon="0.66049">
        <ele>126.299</ele>
        <time>2019-05-07T12:34:54Z</time>
      </trkpt>
      <trkpt lat="44.80516" lon="0.66041">
        <ele>126.538</ele>
        <time>2019-05-07T12:34:59Z</time>
      </trkpt>
      <trkpt lat="44.80514" lon="0.66034">
        <ele>126.867</ele>
        <time>2019-05-07T12:35:05Z</time>
      </trkpt>
      <trkpt lat="44.80516" lon="0.66026">
        <ele>127.276</ele>
        <time>2019-05-07T12:35:12Z</time>
      </trkpt>
      <trkpt lat="44.80511" lon="0.66019">
        <ele>127.46</ele>
        <time>2019-05-07T12:35:16Z</time>
      </trkpt>
      <trkpt lat="44.80502" lon="0.66021">
        <ele>127.639</ele>
        <time>2019-05-07T12:35:20Z</time>
      </trkpt>
      <trkpt lat="44.80499" lon="0.66026">
        <ele>127.83</ele>
        <time>2019-05-07T12:35:26Z</time>
      </trkpt>
      <trkpt lat="44.80494" lon="0.66026">
        <ele>127.956</ele>
        <time>2019-05-07T12:35:28Z</time>
      </trkpt>
      <trkpt lat="44.80491" lon="0.66026">
        <ele>128.145</ele>
        <time>2019-05-07T12:35:31Z</time>
      </trkpt>
      <trkpt lat="44.80487" lon="0.66027">
        <ele>128.52</ele>
        <time>2019-05-07T12:35:37Z</time>
      </trkpt>
      <trkpt lat="44.80482" lon="0.66025">
        <ele>128.84</ele>
        <time>2019-05-07T12:35:42Z</time>
      </trkpt>
      <trkpt lat="44.80477" lon="0.66024">
        <ele>129.098</ele>
        <time>2019-05-07T12:35:46Z</time>
      </trkpt>
      <trkpt lat="44.80474" lon="0.66023">
        <ele>129.225</ele>
        <time>2019-05-07T12:35:48Z</time>
      </trkpt>
      <trkpt lat="44.80469" lon="0.66023">
        <ele>129.414</ele>
        <time>2019-05-07T12:35:51Z</time>
      </trkpt>
      <trkpt lat="44.80463" lon="0.66021">
        <ele>129.602</ele>
        <time>2019-05-07T12:35:54Z</time>
      </trkpt>
      <trkpt lat="44.80459" lon="0.66019">
        <ele>129.795</ele>
        <time>2019-05-07T12:35:57Z</time>
      </trkpt>
      <trkpt lat="44.80455" lon="0.66016">
        <ele>130.057</ele>
        <time>2019-05-07T12:36:01Z</time>
      </trkpt>
      <trkpt lat="44.80452" lon="0.66014">
        <ele>130.188</ele>
        <time>2019-05-07T12:36:03Z</time>
      </trkpt>
      <trkpt lat="44.80447" lon="0.66012">
        <ele>130.586</ele>
        <time>2019-05-07T12:36:09Z</time>
      </trkpt>
      <trkpt lat="44.80443" lon="0.66008">
        <ele>130.846</ele>
        <time>2019-05-07T12:36:13Z</time>
      </trkpt>
      <trkpt lat="44.80438" lon="0.6601">
        <ele>131.175</ele>
        <time>2019-05-07T12:36:18Z</time>
      </trkpt>
      <trkpt lat="44.80433" lon="0.6601">
        <ele>131.503</ele>
        <time>2019-05-07T12:36:23Z</time>
      </trkpt>
      <trkpt lat="44.80427" lon="0.66008">
        <ele>131.694</ele>
        <time>2019-05-07T12:36:26Z</time>
      </trkpt>
      <trkpt lat="44.80421" lon="0.66008">
        <ele>131.946</ele>
        <time>2019-05-07T12:36:30Z</time>
      </trkpt>
      <trkpt lat="44.80419" lon="0.66008">
        <ele>132.204</ele>
        <time>2019-05-07T12:36:34Z</time>
      </trkpt>
      <trkpt lat="44.80417" lon="0.66008">
        <ele>132.332</ele>
        <time>2019-05-07T12:36:36Z</time>
      </trkpt>
      <trkpt lat="44.80411" lon="0.66009">
        <ele>132.46</ele>
        <time>2019-05-07T12:36:38Z</time>
      </trkpt>
      <trkpt lat="44.80405" lon="0.66009">
        <ele>132.587</ele>
        <time>2019-05-07T12:36:40Z</time>
      </trkpt>
      <trkpt lat="44.80401" lon="0.66009">
        <ele>132.714</ele>
        <time>2019-05-07T12:36:42Z</time>
      </trkpt>
      <trkpt lat="44.80395" lon="0.66008">
        <ele>132.905</ele>
        <time>2019-05-07T12:36:45Z</time>
      </trkpt>
      <trkpt lat="44.80392" lon="0.66008">
        <ele>133.098</ele>
        <time>2019-05-07T12:36:48Z</time>
      </trkpt>
      <trkpt lat="44.80387" lon="0.66006">
        <ele>133.292</ele>
        <time>2019-05-07T12:36:51Z</time>
      </trkpt>
      <trkpt lat="44.80381" lon="0.66006">
        <ele>133.555</ele>
        <time>2019-05-07T12:36:55Z</time>
      </trkpt>
      <trkpt lat="44.80379" lon="0.66006">
        <ele>133.755</ele>
        <time>2019-05-07T12:36:58Z</time>
      </trkpt>
      <trkpt lat="44.80374" lon="0.66003">
        <ele>133.953</ele>
        <time>2019-05-07T12:37:01Z</time>
      </trkpt>
      <trkpt lat="44.80369" lon="0.66002">
        <ele>134.213</ele>
        <time>2019-05-07T12:37:05Z</time>
      </trkpt>
      <trkpt lat="44.80364" lon="0.66001">
        <ele>134.407</ele>
        <time>2019-05-07T12:37:08Z</time>
      </trkpt>
      <trkpt lat="44.80359" lon="0.66">
        <ele>134.603</ele>
        <time>2019-05-07T12:37:11Z</time>
      </trkpt>
      <trkpt lat="44.80356" lon="0.66">
        <ele>134.798</ele>
        <time>2019-05-07T12:37:14Z</time>
      </trkpt>
      <trkpt lat="44.80351" lon="0.65997">
        <ele>135.06</ele>
        <time>2019-05-07T12:37:18Z</time>
      </trkpt>
      <trkpt lat="44.80347" lon="0.65993">
        <ele>135.4</ele>
        <time>2019-05-07T12:37:23Z</time>
      </trkpt>
      <trkpt lat="44.80344" lon="0.65989">
        <ele>135.68</ele>
        <time>2019-05-07T12:37:27Z</time>
      </trkpt>
      <trkpt lat="44.80342" lon="0.65986">
        <ele>135.898</ele>
        <time>2019-05-07T12:37:30Z</time>
      </trkpt>
      <trkpt lat="44.80337" lon="0.65984">
        <ele>136.291</ele>
        <time>2019-05-07T12:37:35Z</time>
      </trkpt>
      <trkpt lat="44.80332" lon="0.65983">
        <ele>136.458</ele>
        <time>2019-05-07T12:37:37Z</time>
      </trkpt>
      <trkpt lat="44.80329" lon="0.65983">
        <ele>136.627</ele>
        <time>2019-05-07T12:37:39Z</time>
      </trkpt>
      <trkpt lat="44.80322" lon="0.65983">
        <ele>136.88</ele>
        <time>2019-05-07T12:37:42Z</time>
      </trkpt>
      <trkpt lat="44.80318" lon="0.65982">
        <ele>137.142</ele>
        <time>2019-05-07T12:37:45Z</time>
      </trkpt>
      <trkpt lat="44.80315" lon="0.65975">
        <ele>137.901</ele>
        <time>2019-05-07T12:37:53Z</time>
      </trkpt>
      <trkpt lat="44.8031" lon="0.65973">
        <ele>138.975</ele>
        <time>2019-05-07T12:38:03Z</time>
      </trkpt>
      <trkpt lat="44.80304" lon="0.65973">
        <ele>139.227</ele>
        <time>2019-05-07T12:38:05Z</time>
      </trkpt>
      <trkpt lat="44.80299" lon="0.6597">
        <ele>139.741</ele>
        <time>2019-05-07T12:38:09Z</time>
      </trkpt>
      <trkpt lat="44.80294" lon="0.65968">
        <ele>140.126</ele>
        <time>2019-05-07T12:38:12Z</time>
      </trkpt>
      <trkpt lat="44.80288" lon="0.65965">
        <ele>140.38</ele>
        <time>2019-05-07T12:38:14Z</time>
      </trkpt>
      <trkpt lat="44.80285" lon="0.65963">
        <ele>140.754</ele>
        <time>2019-05-07T12:38:17Z</time>
      </trkpt>
      <trkpt lat="44.8028" lon="0.65963">
        <ele>141.124</ele>
        <time>2019-05-07T12:38:20Z</time>
      </trkpt>
      <trkpt lat="44.80277" lon="0.65963">
        <ele>141.37</ele>
        <time>2019-05-07T12:38:22Z</time>
      </trkpt>
      <trkpt lat="44.80277" lon="0.65963">
        <ele>141.37</ele>
        <time>2019-05-07T12:38:30Z</time>
      </trkpt>
      <trkpt lat="44.80277" lon="0.65963">
        <ele>141.37</ele>
        <time>2019-05-07T12:38:31Z</time>
      </trkpt>
      <trkpt lat="44.80271" lon="0.65964">
        <ele>142.625</ele>
        <time>2019-05-07T12:38:32Z</time>
      </trkpt>
      <trkpt lat="44.80266" lon="0.65958">
        <ele>143.004</ele>
        <time>2019-05-07T12:38:35Z</time>
      </trkpt>
      <trkpt lat="44.80259" lon="0.65954">
        <ele>143.507</ele>
        <time>2019-05-07T12:38:39Z</time>
      </trkpt>
      <trkpt lat="44.80254" lon="0.65956">
        <ele>144.486</ele>
        <time>2019-05-07T12:38:47Z</time>
      </trkpt>
      <trkpt lat="44.80252" lon="0.65956">
        <ele>144.842</ele>
        <time>2019-05-07T12:38:50Z</time>
      </trkpt>
      <trkpt lat="44.80252" lon="0.65956">
        <ele>144.842</ele>
        <time>2019-05-07T12:38:57Z</time>
      </trkpt>
      <trkpt lat="44.80252" lon="0.65956">
        <ele>144.842</ele>
        <time>2019-05-07T12:38:58Z</time>
      </trkpt>
      <trkpt lat="44.80249" lon="0.65965">
        <ele>149.759</ele>
        <time>2019-05-07T12:40:47Z</time>
      </trkpt>
      <trkpt lat="44.80252" lon="0.65974">
        <ele>151.796</ele>
        <time>2019-05-07T12:40:54Z</time>
      </trkpt>
      <trkpt lat="44.80254" lon="0.65982">
        <ele>152.631</ele>
        <time>2019-05-07T12:40:57Z</time>
      </trkpt>
      <trkpt lat="44.80253" lon="0.65989">
        <ele>153.454</ele>
        <time>2019-05-07T12:41:00Z</time>
      </trkpt>
      <trkpt lat="44.80253" lon="0.65995">
        <ele>154.794</ele>
        <time>2019-05-07T12:41:05Z</time>
      </trkpt>
      <trkpt lat="44.80253" lon="0.65998">
        <ele>155.31</ele>
        <time>2019-05-07T12:41:07Z</time>
      </trkpt>
      <trkpt lat="44.80252" lon="0.66002">
        <ele>156.056</ele>
        <time>2019-05-07T12:41:10Z</time>
      </trkpt>
      <trkpt lat="44.80253" lon="0.66009">
        <ele>157.902</ele>
        <time>2019-05-07T12:41:18Z</time>
      </trkpt>
      <trkpt lat="44.80254" lon="0.66014">
        <ele>158.536</ele>
        <time>2019-05-07T12:41:21Z</time>
      </trkpt>
      <trkpt lat="44.80257" lon="0.66023">
        <ele>159.339</ele>
        <time>2019-05-07T12:41:25Z</time>
      </trkpt>
      <trkpt lat="44.80259" lon="0.66029">
        <ele>160.094</ele>
        <time>2019-05-07T12:41:29Z</time>
      </trkpt>
      <trkpt lat="44.8026" lon="0.66033">
        <ele>160.456</ele>
        <time>2019-05-07T12:41:31Z</time>
      </trkpt>
      <trkpt lat="44.80261" lon="0.66039">
        <ele>160.975</ele>
        <time>2019-05-07T12:41:34Z</time>
      </trkpt>
      <trkpt lat="44.80261" lon="0.66046">
        <ele>161.625</ele>
        <time>2019-05-07T12:41:38Z</time>
      </trkpt>
      <trkpt lat="44.80261" lon="0.66053">
        <ele>162.523</ele>
        <time>2019-05-07T12:41:44Z</time>
      </trkpt>
      <trkpt lat="44.80261" lon="0.66057">
        <ele>162.806</ele>
        <time>2019-05-07T12:41:46Z</time>
      </trkpt>
      <trkpt lat="44.80261" lon="0.6606">
        <ele>163.083</ele>
        <time>2019-05-07T12:41:48Z</time>
      </trkpt>
      <trkpt lat="44.80262" lon="0.66067">
        <ele>163.485</ele>
        <time>2019-05-07T12:41:51Z</time>
      </trkpt>
      <trkpt lat="44.80262" lon="0.66071">
        <ele>163.745</ele>
        <time>2019-05-07T12:41:53Z</time>
      </trkpt>
      <trkpt lat="44.80265" lon="0.66078">
        <ele>164.258</ele>
        <time>2019-05-07T12:41:57Z</time>
      </trkpt>
      <trkpt lat="44.80267" lon="0.66084">
        <ele>164.891</ele>
        <time>2019-05-07T12:42:02Z</time>
      </trkpt>
      <trkpt lat="44.80269" lon="0.66091">
        <ele>165.381</ele>
        <time>2019-05-07T12:42:06Z</time>
      </trkpt>
      <trkpt lat="44.8027" lon="0.66094">
        <ele>165.621</ele>
        <time>2019-05-07T12:42:08Z</time>
      </trkpt>
      <trkpt lat="44.80272" lon="0.66098">
        <ele>165.975</ele>
        <time>2019-05-07T12:42:11Z</time>
      </trkpt>
      <trkpt lat="44.80275" lon="0.66103">
        <ele>166.543</ele>
        <time>2019-05-07T12:42:16Z</time>
      </trkpt>
      <trkpt lat="44.80276" lon="0.66107">
        <ele>166.864</ele>
        <time>2019-05-07T12:42:19Z</time>
      </trkpt>
      <trkpt lat="44.8028" lon="0.66113">
        <ele>167.267</ele>
        <time>2019-05-07T12:42:23Z</time>
      </trkpt>
      <trkpt lat="44.80282" lon="0.6612">
        <ele>167.552</ele>
        <time>2019-05-07T12:42:26Z</time>
      </trkpt>
      <trkpt lat="44.80284" lon="0.66126">
        <ele>167.91</ele>
        <time>2019-05-07T12:42:30Z</time>
      </trkpt>
      <trkpt lat="44.80286" lon="0.66134">
        <ele>168.245</ele>
        <time>2019-05-07T12:42:34Z</time>
      </trkpt>
      <trkpt lat="44.80287" lon="0.66141">
        <ele>168.482</ele>
        <time>2019-05-07T12:42:37Z</time>
      </trkpt>
      <trkpt lat="44.80289" lon="0.66145">
        <ele>168.633</ele>
        <time>2019-05-07T12:42:39Z</time>
      </trkpt>
      <trkpt lat="44.80289" lon="0.66153">
        <ele>168.851</ele>
        <time>2019-05-07T12:42:42Z</time>
      </trkpt>
      <trkpt lat="44.8029" lon="0.66159">
        <ele>169.126</ele>
        <time>2019-05-07T12:42:46Z</time>
      </trkpt>
      <trkpt lat="44.80291" lon="0.66164">
        <ele>169.319</ele>
        <time>2019-05-07T12:42:49Z</time>
      </trkpt>
      <trkpt lat="44.80291" lon="0.6617">
        <ele>169.501</ele>
        <time>2019-05-07T12:42:52Z</time>
      </trkpt>
      <trkpt lat="44.80292" lon="0.66173">
        <ele>169.559</ele>
        <time>2019-05-07T12:42:53Z</time>
      </trkpt>
      <trkpt lat="44.80293" lon="0.66182">
        <ele>169.822</ele>
        <time>2019-05-07T12:42:58Z</time>
      </trkpt>
      <trkpt lat="44.80292" lon="0.6619">
        <ele>169.967</ele>
        <time>2019-05-07T12:43:01Z</time>
      </trkpt>
      <trkpt lat="44.80293" lon="0.66198">
        <ele>170.149</ele>
        <time>2019-05-07T12:43:05Z</time>
      </trkpt>
      <trkpt lat="44.80293" lon="0.66204">
        <ele>170.28</ele>
        <time>2019-05-07T12:43:08Z</time>
      </trkpt>
      <trkpt lat="44.80294" lon="0.66208">
        <ele>170.367</ele>
        <time>2019-05-07T12:43:10Z</time>
      </trkpt>
      <trkpt lat="44.80294" lon="0.66212">
        <ele>170.452</ele>
        <time>2019-05-07T12:43:12Z</time>
      </trkpt>
      <trkpt lat="44.80294" lon="0.66215">
        <ele>170.536</ele>
        <time>2019-05-07T12:43:14Z</time>
      </trkpt>
      <trkpt lat="44.80294" lon="0.6622">
        <ele>170.659</ele>
        <time>2019-05-07T12:43:17Z</time>
      </trkpt>
      <trkpt lat="44.80294" lon="0.66228">
        <ele>170.859</ele>
        <time>2019-05-07T12:43:22Z</time>
      </trkpt>
      <trkpt lat="44.80294" lon="0.66232">
        <ele>170.939</ele>
        <time>2019-05-07T12:43:24Z</time>
      </trkpt>
      <trkpt lat="44.80293" lon="0.66237">
        <ele>171.021</ele>
        <time>2019-05-07T12:43:26Z</time>
      </trkpt>
      <trkpt lat="44.80293" lon="0.66247">
        <ele>171.144</ele>
        <time>2019-05-07T12:43:29Z</time>
      </trkpt>
      <trkpt lat="44.80293" lon="0.66252">
        <ele>171.224</ele>
        <time>2019-05-07T12:43:31Z</time>
      </trkpt>
      <trkpt lat="44.80293" lon="0.66256">
        <ele>171.301</ele>
        <time>2019-05-07T12:43:33Z</time>
      </trkpt>
      <trkpt lat="44.80293" lon="0.66259">
        <ele>171.338</ele>
        <time>2019-05-07T12:43:34Z</time>
      </trkpt>
      <trkpt lat="44.80292" lon="0.66264">
        <ele>171.411</ele>
        <time>2019-05-07T12:43:36Z</time>
      </trkpt>
      <trkpt lat="44.80293" lon="0.66271">
        <ele>171.519</ele>
        <time>2019-05-07T12:43:39Z</time>
      </trkpt>
      <trkpt lat="44.80292" lon="0.66277">
        <ele>171.589</ele>
        <time>2019-05-07T12:43:41Z</time>
      </trkpt>
      <trkpt lat="44.80292" lon="0.66282">
        <ele>171.624</ele>
        <time>2019-05-07T12:43:42Z</time>
      </trkpt>
      <trkpt lat="44.80292" lon="0.66285">
        <ele>171.658</ele>
        <time>2019-05-07T12:43:43Z</time>
      </trkpt>
      <trkpt lat="44.8029" lon="0.66293">
        <ele>171.761</ele>
        <time>2019-05-07T12:43:46Z</time>
      </trkpt>
      <trkpt lat="44.80288" lon="0.66299">
        <ele>171.829</ele>
        <time>2019-05-07T12:43:48Z</time>
      </trkpt>
      <trkpt lat="44.80287" lon="0.66303">
        <ele>171.897</ele>
        <time>2019-05-07T12:43:50Z</time>
      </trkpt>
      <trkpt lat="44.80286" lon="0.66307">
        <ele>171.963</ele>
        <time>2019-05-07T12:43:52Z</time>
      </trkpt>
      <trkpt lat="44.80284" lon="0.66312">
        <ele>172.027</ele>
        <time>2019-05-07T12:43:54Z</time>
      </trkpt>
      <trkpt lat="44.80283" lon="0.66318">
        <ele>172.089</ele>
        <time>2019-05-07T12:43:56Z</time>
      </trkpt>
      <trkpt lat="44.80282" lon="0.66325">
        <ele>172.179</ele>
        <time>2019-05-07T12:43:59Z</time>
      </trkpt>
      <trkpt lat="44.80282" lon="0.66328">
        <ele>172.208</ele>
        <time>2019-05-07T12:44:00Z</time>
      </trkpt>
      <trkpt lat="44.80282" lon="0.66333">
        <ele>172.262</ele>
        <time>2019-05-07T12:44:02Z</time>
      </trkpt>
      <trkpt lat="44.80281" lon="0.66338">
        <ele>172.312</ele>
        <time>2019-05-07T12:44:04Z</time>
      </trkpt>
      <trkpt lat="44.80281" lon="0.66341">
        <ele>172.358</ele>
        <time>2019-05-07T12:44:06Z</time>
      </trkpt>
      <trkpt lat="44.80281" lon="0.66349">
        <ele>172.442</ele>
        <time>2019-05-07T12:44:10Z</time>
      </trkpt>
      <trkpt lat="44.80282" lon="0.66357">
        <ele>172.499</ele>
        <time>2019-05-07T12:44:13Z</time>
      </trkpt>
      <trkpt lat="44.80281" lon="0.66365">
        <ele>172.555</ele>
        <time>2019-05-07T12:44:16Z</time>
      </trkpt>
      <trkpt lat="44.80281" lon="0.6637">
        <ele>172.592</ele>
        <time>2019-05-07T12:44:18Z</time>
      </trkpt>
      <trkpt lat="44.80281" lon="0.66375">
        <ele>172.63</ele>
        <time>2019-05-07T12:44:20Z</time>
      </trkpt>
      <trkpt lat="44.80281" lon="0.6638">
        <ele>172.668</ele>
        <time>2019-05-07T12:44:22Z</time>
      </trkpt>
      <trkpt lat="44.80281" lon="0.66385">
        <ele>172.707</ele>
        <time>2019-05-07T12:44:24Z</time>
      </trkpt>
      <trkpt lat="44.80281" lon="0.6639">
        <ele>172.747</ele>
        <time>2019-05-07T12:44:26Z</time>
      </trkpt>
      <trkpt lat="44.8028" lon="0.66395">
        <ele>172.787</ele>
        <time>2019-05-07T12:44:28Z</time>
      </trkpt>
      <trkpt lat="44.8028" lon="0.66402">
        <ele>172.844</ele>
        <time>2019-05-07T12:44:31Z</time>
      </trkpt>
      <trkpt lat="44.80278" lon="0.66409">
        <ele>172.914</ele>
        <time>2019-05-07T12:44:35Z</time>
      </trkpt>
      <trkpt lat="44.80277" lon="0.66413">
        <ele>172.948</ele>
        <time>2019-05-07T12:44:37Z</time>
      </trkpt>
      <trkpt lat="44.80275" lon="0.66417">
        <ele>172.983</ele>
        <time>2019-05-07T12:44:39Z</time>
      </trkpt>
      <trkpt lat="44.80272" lon="0.66423">
        <ele>173.057</ele>
        <time>2019-05-07T12:44:43Z</time>
      </trkpt>
      <trkpt lat="44.80268" lon="0.66427">
        <ele>173.135</ele>
        <time>2019-05-07T12:44:47Z</time>
      </trkpt>
      <trkpt lat="44.80268" lon="0.66434">
        <ele>173.229</ele>
        <time>2019-05-07T12:44:52Z</time>
      </trkpt>
      <trkpt lat="44.80267" lon="0.66441">
        <ele>173.313</ele>
        <time>2019-05-07T12:44:57Z</time>
      </trkpt>
      <trkpt lat="44.80264" lon="0.66447">
        <ele>173.374</ele>
        <time>2019-05-07T12:45:01Z</time>
      </trkpt>
      <trkpt lat="44.80263" lon="0.66451">
        <ele>173.416</ele>
        <time>2019-05-07T12:45:04Z</time>
      </trkpt>
      <trkpt lat="44.80261" lon="0.66458">
        <ele>173.471</ele>
        <time>2019-05-07T12:45:08Z</time>
      </trkpt>
      <trkpt lat="44.8026" lon="0.66463">
        <ele>173.496</ele>
        <time>2019-05-07T12:45:10Z</time>
      </trkpt>
      <trkpt lat="44.8026" lon="0.6647">
        <ele>173.546</ele>
        <time>2019-05-07T12:45:14Z</time>
      </trkpt>
      <trkpt lat="44.80258" lon="0.66478">
        <ele>173.591</ele>
        <time>2019-05-07T12:45:18Z</time>
      </trkpt>
      <trkpt lat="44.80254" lon="0.66485">
        <ele>173.619</ele>
        <time>2019-05-07T12:45:21Z</time>
      </trkpt>
      <trkpt lat="44.80252" lon="0.66489">
        <ele>173.635</ele>
        <time>2019-05-07T12:45:23Z</time>
      </trkpt>
      <trkpt lat="44.8025" lon="0.66496">
        <ele>173.658</ele>
        <time>2019-05-07T12:45:26Z</time>
      </trkpt>
      <trkpt lat="44.80248" lon="0.665">
        <ele>173.671</ele>
        <time>2019-05-07T12:45:28Z</time>
      </trkpt>
      <trkpt lat="44.80247" lon="0.66505">
        <ele>173.682</ele>
        <time>2019-05-07T12:45:30Z</time>
      </trkpt>
      <trkpt lat="44.80244" lon="0.66512">
        <ele>173.701</ele>
        <time>2019-05-07T12:45:34Z</time>
      </trkpt>
      <trkpt lat="44.80243" lon="0.66518">
        <ele>173.709</ele>
        <time>2019-05-07T12:45:38Z</time>
      </trkpt>
      <trkpt lat="44.80243" lon="0.66523">
        <ele>173.708</ele>
        <time>2019-05-07T12:45:40Z</time>
      </trkpt>
      <trkpt lat="44.80242" lon="0.66528">
        <ele>173.704</ele>
        <time>2019-05-07T12:45:42Z</time>
      </trkpt>
      <trkpt lat="44.80239" lon="0.66537">
        <ele>173.694</ele>
        <time>2019-05-07T12:45:45Z</time>
      </trkpt>
      <trkpt lat="44.80238" lon="0.66541">
        <ele>173.69</ele>
        <time>2019-05-07T12:45:46Z</time>
      </trkpt>
      <trkpt lat="44.80237" lon="0.66544">
        <ele>173.685</ele>
        <time>2019-05-07T12:45:47Z</time>
      </trkpt>
      <trkpt lat="44.80237" lon="0.66551">
        <ele>173.669</ele>
        <time>2019-05-07T12:45:50Z</time>
      </trkpt>
      <trkpt lat="44.80236" lon="0.66557">
        <ele>173.66</ele>
        <time>2019-05-07T12:45:52Z</time>
      </trkpt>
      <trkpt lat="44.80236" lon="0.66561">
        <ele>173.65</ele>
        <time>2019-05-07T12:45:54Z</time>
      </trkpt>
      <trkpt lat="44.80235" lon="0.66566">
        <ele>173.639</ele>
        <time>2019-05-07T12:45:56Z</time>
      </trkpt>
      <trkpt lat="44.80234" lon="0.6657">
        <ele>173.628</ele>
        <time>2019-05-07T12:45:58Z</time>
      </trkpt>
      <trkpt lat="44.80234" lon="0.66577">
        <ele>173.609</ele>
        <time>2019-05-07T12:46:01Z</time>
      </trkpt>
      <trkpt lat="44.80233" lon="0.66584">
        <ele>173.587</ele>
        <time>2019-05-07T12:46:04Z</time>
      </trkpt>
      <trkpt lat="44.80233" lon="0.66589">
        <ele>173.57</ele>
        <time>2019-05-07T12:46:06Z</time>
      </trkpt>
      <trkpt lat="44.80233" lon="0.66592">
        <ele>173.554</ele>
        <time>2019-05-07T12:46:08Z</time>
      </trkpt>
      <trkpt lat="44.80231" lon="0.66599">
        <ele>173.522</ele>
        <time>2019-05-07T12:46:12Z</time>
      </trkpt>
      <trkpt lat="44.80231" lon="0.66607">
        <ele>173.488</ele>
        <time>2019-05-07T12:46:16Z</time>
      </trkpt>
      <trkpt lat="44.80229" lon="0.66614">
        <ele>173.461</ele>
        <time>2019-05-07T12:46:19Z</time>
      </trkpt>
      <trkpt lat="44.80228" lon="0.66618">
        <ele>173.441</ele>
        <time>2019-05-07T12:46:21Z</time>
      </trkpt>
      <trkpt lat="44.80227" lon="0.66622">
        <ele>173.421</ele>
        <time>2019-05-07T12:46:23Z</time>
      </trkpt>
      <trkpt lat="44.80226" lon="0.66629">
        <ele>173.4</ele>
        <time>2019-05-07T12:46:25Z</time>
      </trkpt>
      <trkpt lat="44.80222" lon="0.66636">
        <ele>173.367</ele>
        <time>2019-05-07T12:46:28Z</time>
      </trkpt>
      <trkpt lat="44.80219" lon="0.66641">
        <ele>173.336</ele>
        <time>2019-05-07T12:46:31Z</time>
      </trkpt>
      <trkpt lat="44.80214" lon="0.66645">
        <ele>173.295</ele>
        <time>2019-05-07T12:46:35Z</time>
      </trkpt>
      <trkpt lat="44.80209" lon="0.66647">
        <ele>173.261</ele>
        <time>2019-05-07T12:46:38Z</time>
      </trkpt>
      <trkpt lat="44.80204" lon="0.6665">
        <ele>173.224</ele>
        <time>2019-05-07T12:46:41Z</time>
      </trkpt>
      <trkpt lat="44.80201" lon="0.66653">
        <ele>173.185</ele>
        <time>2019-05-07T12:46:44Z</time>
      </trkpt>
      <trkpt lat="44.80198" lon="0.66658">
        <ele>173.144</ele>
        <time>2019-05-07T12:46:47Z</time>
      </trkpt>
      <trkpt lat="44.80194" lon="0.66664">
        <ele>173.091</ele>
        <time>2019-05-07T12:46:51Z</time>
      </trkpt>
      <trkpt lat="44.80192" lon="0.66667">
        <ele>173.063</ele>
        <time>2019-05-07T12:46:53Z</time>
      </trkpt>
      <trkpt lat="44.80189" lon="0.66673">
        <ele>173.01</ele>
        <time>2019-05-07T12:46:57Z</time>
      </trkpt>
      <trkpt lat="44.80183" lon="0.66679">
        <ele>172.945</ele>
        <time>2019-05-07T12:47:02Z</time>
      </trkpt>
      <trkpt lat="44.80179" lon="0.6668">
        <ele>172.907</ele>
        <time>2019-05-07T12:47:05Z</time>
      </trkpt>
      <trkpt lat="44.80174" lon="0.66684">
        <ele>172.871</ele>
        <time>2019-05-07T12:47:08Z</time>
      </trkpt>
      <trkpt lat="44.80171" lon="0.66686">
        <ele>172.847</ele>
        <time>2019-05-07T12:47:10Z</time>
      </trkpt>
      <trkpt lat="44.80167" lon="0.6669">
        <ele>172.809</ele>
        <time>2019-05-07T12:47:13Z</time>
      </trkpt>
      <trkpt lat="44.80163" lon="0.66694">
        <ele>172.758</ele>
        <time>2019-05-07T12:47:17Z</time>
      </trkpt>
      <trkpt lat="44.80159" lon="0.66697">
        <ele>172.711</ele>
        <time>2019-05-07T12:47:21Z</time>
      </trkpt>
      <trkpt lat="44.80155" lon="0.667">
        <ele>172.661</ele>
        <time>2019-05-07T12:47:25Z</time>
      </trkpt>
      <trkpt lat="44.80153" lon="0.66701">
        <ele>172.635</ele>
        <time>2019-05-07T12:47:27Z</time>
      </trkpt>
      <trkpt lat="44.8015" lon="0.66703">
        <ele>172.608</ele>
        <time>2019-05-07T12:47:29Z</time>
      </trkpt>
      <trkpt lat="44.80146" lon="0.66707">
        <ele>172.57</ele>
        <time>2019-05-07T12:47:32Z</time>
      </trkpt>
      <trkpt lat="44.80144" lon="0.66713">
        <ele>172.535</ele>
        <time>2019-05-07T12:47:35Z</time>
      </trkpt>
      <trkpt lat="44.8014" lon="0.66718">
        <ele>172.503</ele>
        <time>2019-05-07T12:47:38Z</time>
      </trkpt>
      <trkpt lat="44.80138" lon="0.66724">
        <ele>172.475</ele>
        <time>2019-05-07T12:47:41Z</time>
      </trkpt>
      <trkpt lat="44.80135" lon="0.66729">
        <ele>172.453</ele>
        <time>2019-05-07T12:47:44Z</time>
      </trkpt>
      <trkpt lat="44.80133" lon="0.66736">
        <ele>172.437</ele>
        <time>2019-05-07T12:47:47Z</time>
      </trkpt>
      <trkpt lat="44.8013" lon="0.66741">
        <ele>172.421</ele>
        <time>2019-05-07T12:47:51Z</time>
      </trkpt>
      <trkpt lat="44.80127" lon="0.66747">
        <ele>172.41</ele>
        <time>2019-05-07T12:47:54Z</time>
      </trkpt>
      <trkpt lat="44.80125" lon="0.66754">
        <ele>172.397</ele>
        <time>2019-05-07T12:47:57Z</time>
      </trkpt>
      <trkpt lat="44.80124" lon="0.66758">
        <ele>172.389</ele>
        <time>2019-05-07T12:47:59Z</time>
      </trkpt>
      <trkpt lat="44.80123" lon="0.66764">
        <ele>172.375</ele>
        <time>2019-05-07T12:48:03Z</time>
      </trkpt>
      <trkpt lat="44.80122" lon="0.66772">
        <ele>172.365</ele>
        <time>2019-05-07T12:48:07Z</time>
      </trkpt>
      <trkpt lat="44.80121" lon="0.66779">
        <ele>172.357</ele>
        <time>2019-05-07T12:48:10Z</time>
      </trkpt>
      <trkpt lat="44.80121" lon="0.66783">
        <ele>172.351</ele>
        <time>2019-05-07T12:48:12Z</time>
      </trkpt>
      <trkpt lat="44.80119" lon="0.6679">
        <ele>172.336</ele>
        <time>2019-05-07T12:48:16Z</time>
      </trkpt>
      <trkpt lat="44.80116" lon="0.66795">
        <ele>172.325</ele>
        <time>2019-05-07T12:48:19Z</time>
      </trkpt>
      <trkpt lat="44.80114" lon="0.668">
        <ele>172.318</ele>
        <time>2019-05-07T12:48:21Z</time>
      </trkpt>
      <trkpt lat="44.80112" lon="0.66803">
        <ele>172.31</ele>
        <time>2019-05-07T12:48:24Z</time>
      </trkpt>
      <trkpt lat="44.80108" lon="0.66809">
        <ele>172.302</ele>
        <time>2019-05-07T12:48:27Z</time>
      </trkpt>
      <trkpt lat="44.80106" lon="0.66813">
        <ele>172.298</ele>
        <time>2019-05-07T12:48:29Z</time>
      </trkpt>
      <trkpt lat="44.80103" lon="0.66818">
        <ele>172.296</ele>
        <time>2019-05-07T12:48:32Z</time>
      </trkpt>
      <trkpt lat="44.801" lon="0.66822">
        <ele>172.295</ele>
        <time>2019-05-07T12:48:34Z</time>
      </trkpt>
      <trkpt lat="44.80098" lon="0.66825">
        <ele>172.296</ele>
        <time>2019-05-07T12:48:36Z</time>
      </trkpt>
      <trkpt lat="44.80095" lon="0.66831">
        <ele>172.298</ele>
        <time>2019-05-07T12:48:40Z</time>
      </trkpt>
      <trkpt lat="44.80093" lon="0.66838">
        <ele>172.302</ele>
        <time>2019-05-07T12:48:45Z</time>
      </trkpt>
      <trkpt lat="44.80092" lon="0.66841">
        <ele>172.304</ele>
        <time>2019-05-07T12:48:47Z</time>
      </trkpt>
      <trkpt lat="44.80089" lon="0.66847">
        <ele>172.308</ele>
        <time>2019-05-07T12:48:52Z</time>
      </trkpt>
      <trkpt lat="44.80085" lon="0.66851">
        <ele>172.31</ele>
        <time>2019-05-07T12:48:56Z</time>
      </trkpt>
      <trkpt lat="44.80081" lon="0.66854">
        <ele>172.311</ele>
        <time>2019-05-07T12:48:59Z</time>
      </trkpt>
      <trkpt lat="44.80077" lon="0.66859">
        <ele>172.311</ele>
        <time>2019-05-07T12:49:03Z</time>
      </trkpt>
      <trkpt lat="44.80075" lon="0.66863">
        <ele>172.312</ele>
        <time>2019-05-07T12:49:06Z</time>
      </trkpt>
      <trkpt lat="44.80071" lon="0.66868">
        <ele>172.312</ele>
        <time>2019-05-07T12:49:09Z</time>
      </trkpt>
      <trkpt lat="44.80067" lon="0.66871">
        <ele>172.311</ele>
        <time>2019-05-07T12:49:12Z</time>
      </trkpt>
      <trkpt lat="44.80063" lon="0.66874">
        <ele>172.305</ele>
        <time>2019-05-07T12:49:18Z</time>
      </trkpt>
      <trkpt lat="44.80062" lon="0.66873">
        <ele>172.303</ele>
        <time>2019-05-07T12:49:26Z</time>
      </trkpt>
      <trkpt lat="44.80067" lon="0.66878">
        <ele>172.701</ele>
        <time>2019-05-07T12:51:06Z</time>
      </trkpt>
      <trkpt lat="44.80072" lon="0.66881">
        <ele>172.762</ele>
        <time>2019-05-07T12:51:09Z</time>
      </trkpt>
      <trkpt lat="44.80074" lon="0.66886">
        <ele>172.824</ele>
        <time>2019-05-07T12:51:12Z</time>
      </trkpt>
      <trkpt lat="44.80076" lon="0.66893">
        <ele>172.909</ele>
        <time>2019-05-07T12:51:16Z</time>
      </trkpt>
      <trkpt lat="44.80079" lon="0.66901">
        <ele>172.974</ele>
        <time>2019-05-07T12:51:19Z</time>
      </trkpt>
      <trkpt lat="44.80082" lon="0.66906">
        <ele>173.04</ele>
        <time>2019-05-07T12:51:22Z</time>
      </trkpt>
      <trkpt lat="44.80084" lon="0.6691">
        <ele>173.108</ele>
        <time>2019-05-07T12:51:25Z</time>
      </trkpt>
      <trkpt lat="44.80087" lon="0.66915">
        <ele>173.177</ele>
        <time>2019-05-07T12:51:28Z</time>
      </trkpt>
      <trkpt lat="44.8009" lon="0.66919">
        <ele>173.223</ele>
        <time>2019-05-07T12:51:30Z</time>
      </trkpt>
      <trkpt lat="44.80092" lon="0.66923">
        <ele>173.268</ele>
        <time>2019-05-07T12:51:32Z</time>
      </trkpt>
      <trkpt lat="44.80095" lon="0.66926">
        <ele>173.312</ele>
        <time>2019-05-07T12:51:34Z</time>
      </trkpt>
      <trkpt lat="44.80099" lon="0.6693">
        <ele>173.376</ele>
        <time>2019-05-07T12:51:37Z</time>
      </trkpt>
      <trkpt lat="44.80101" lon="0.66932">
        <ele>173.418</ele>
        <time>2019-05-07T12:51:39Z</time>
      </trkpt>
      <trkpt lat="44.80105" lon="0.66937">
        <ele>173.5</ele>
        <time>2019-05-07T12:51:43Z</time>
      </trkpt>
      <trkpt lat="44.80109" lon="0.66941">
        <ele>173.562</ele>
        <time>2019-05-07T12:51:46Z</time>
      </trkpt>
      <trkpt lat="44.80113" lon="0.66943">
        <ele>173.624</ele>
        <time>2019-05-07T12:51:49Z</time>
      </trkpt>
      <trkpt lat="44.80118" lon="0.66945">
        <ele>173.688</ele>
        <time>2019-05-07T12:51:52Z</time>
      </trkpt>
      <trkpt lat="44.80123" lon="0.66947">
        <ele>173.752</ele>
        <time>2019-05-07T12:51:55Z</time>
      </trkpt>
      <trkpt lat="44.80127" lon="0.66948">
        <ele>173.815</ele>
        <time>2019-05-07T12:51:58Z</time>
      </trkpt>
      <trkpt lat="44.80131" lon="0.66949">
        <ele>173.858</ele>
        <time>2019-05-07T12:52:00Z</time>
      </trkpt>
      <trkpt lat="44.80135" lon="0.6695">
        <ele>173.901</ele>
        <time>2019-05-07T12:52:02Z</time>
      </trkpt>
      <trkpt lat="44.80137" lon="0.66951">
        <ele>173.945</ele>
        <time>2019-05-07T12:52:04Z</time>
      </trkpt>
      <trkpt lat="44.80141" lon="0.66952">
        <ele>173.988</ele>
        <time>2019-05-07T12:52:06Z</time>
      </trkpt>
      <trkpt lat="44.80146" lon="0.66954">
        <ele>174.055</ele>
        <time>2019-05-07T12:52:09Z</time>
      </trkpt>
      <trkpt lat="44.8015" lon="0.66956">
        <ele>174.143</ele>
        <time>2019-05-07T12:52:13Z</time>
      </trkpt>
      <trkpt lat="44.80154" lon="0.66959">
        <ele>174.208</ele>
        <time>2019-05-07T12:52:16Z</time>
      </trkpt>
      <trkpt lat="44.80156" lon="0.6696">
        <ele>174.251</ele>
        <time>2019-05-07T12:52:18Z</time>
      </trkpt>
      <trkpt lat="44.80161" lon="0.66961">
        <ele>174.338</ele>
        <time>2019-05-07T12:52:22Z</time>
      </trkpt>
      <trkpt lat="44.80164" lon="0.66962">
        <ele>174.38</ele>
        <time>2019-05-07T12:52:24Z</time>
      </trkpt>
      <trkpt lat="44.80169" lon="0.66963">
        <ele>174.444</ele>
        <time>2019-05-07T12:52:27Z</time>
      </trkpt>
      <trkpt lat="44.80173" lon="0.66964">
        <ele>174.489</ele>
        <time>2019-05-07T12:52:29Z</time>
      </trkpt>
      <trkpt lat="44.80177" lon="0.66967">
        <ele>174.554</ele>
        <time>2019-05-07T12:52:32Z</time>
      </trkpt>
      <trkpt lat="44.80182" lon="0.66968">
        <ele>174.619</ele>
        <time>2019-05-07T12:52:35Z</time>
      </trkpt>
      <trkpt lat="44.80187" lon="0.66967">
        <ele>174.684</ele>
        <time>2019-05-07T12:52:38Z</time>
      </trkpt>
      <trkpt lat="44.80192" lon="0.66964">
        <ele>174.751</ele>
        <time>2019-05-07T12:52:41Z</time>
      </trkpt>
      <trkpt lat="44.80195" lon="0.66963">
        <ele>174.797</ele>
        <time>2019-05-07T12:52:43Z</time>
      </trkpt>
      <trkpt lat="44.80198" lon="0.66961">
        <ele>174.844</ele>
        <time>2019-05-07T12:52:45Z</time>
      </trkpt>
      <trkpt lat="44.80204" lon="0.66962">
        <ele>174.962</ele>
        <time>2019-05-07T12:52:50Z</time>
      </trkpt>
      <trkpt lat="44.80209" lon="0.66964">
        <ele>175.033</ele>
        <time>2019-05-07T12:52:53Z</time>
      </trkpt>
      <trkpt lat="44.80213" lon="0.66964">
        <ele>175.104</ele>
        <time>2019-05-07T12:52:56Z</time>
      </trkpt>
      <trkpt lat="44.80219" lon="0.66966">
        <ele>175.2</ele>
        <time>2019-05-07T12:53:00Z</time>
      </trkpt>
      <trkpt lat="44.80224" lon="0.66967">
        <ele>175.298</ele>
        <time>2019-05-07T12:53:04Z</time>
      </trkpt>
      <trkpt lat="44.80227" lon="0.66967">
        <ele>175.347</ele>
        <time>2019-05-07T12:53:06Z</time>
      </trkpt>
      <trkpt lat="44.80232" lon="0.66967">
        <ele>175.448</ele>
        <time>2019-05-07T12:53:10Z</time>
      </trkpt>
      <trkpt lat="44.80237" lon="0.66966">
        <ele>175.552</ele>
        <time>2019-05-07T12:53:14Z</time>
      </trkpt>
      <trkpt lat="44.8024" lon="0.66965">
        <ele>175.631</ele>
        <time>2019-05-07T12:53:17Z</time>
      </trkpt>
      <trkpt lat="44.80245" lon="0.66965">
        <ele>175.737</ele>
        <time>2019-05-07T12:53:21Z</time>
      </trkpt>
      <trkpt lat="44.8025" lon="0.66967">
        <ele>175.817</ele>
        <time>2019-05-07T12:53:24Z</time>
      </trkpt>
      <trkpt lat="44.80253" lon="0.66968">
        <ele>175.844</ele>
        <time>2019-05-07T12:53:25Z</time>
      </trkpt>
      <trkpt lat="44.80258" lon="0.66971">
        <ele>175.93</ele>
        <time>2019-05-07T12:53:28Z</time>
      </trkpt>
      <trkpt lat="44.80262" lon="0.66974">
        <ele>175.99</ele>
        <time>2019-05-07T12:53:30Z</time>
      </trkpt>
      <trkpt lat="44.80265" lon="0.66975">
        <ele>176.05</ele>
        <time>2019-05-07T12:53:32Z</time>
      </trkpt>
      <trkpt lat="44.80269" lon="0.66977">
        <ele>176.14</ele>
        <time>2019-05-07T12:53:35Z</time>
      </trkpt>
      <trkpt lat="44.80274" lon="0.66979">
        <ele>176.259</ele>
        <time>2019-05-07T12:53:39Z</time>
      </trkpt>
      <trkpt lat="44.8028" lon="0.66978">
        <ele>176.349</ele>
        <time>2019-05-07T12:53:42Z</time>
      </trkpt>
      <trkpt lat="44.80285" lon="0.66979">
        <ele>176.496</ele>
        <time>2019-05-07T12:53:47Z</time>
      </trkpt>
      <trkpt lat="44.80289" lon="0.66983">
        <ele>176.584</ele>
        <time>2019-05-07T12:53:50Z</time>
      </trkpt>
      <trkpt lat="44.80295" lon="0.66984">
        <ele>176.701</ele>
        <time>2019-05-07T12:53:54Z</time>
      </trkpt>
      <trkpt lat="44.803" lon="0.66986">
        <ele>176.791</ele>
        <time>2019-05-07T12:53:57Z</time>
      </trkpt>
      <trkpt lat="44.80304" lon="0.66986">
        <ele>176.849</ele>
        <time>2019-05-07T12:53:59Z</time>
      </trkpt>
      <trkpt lat="44.80306" lon="0.66986">
        <ele>176.878</ele>
        <time>2019-05-07T12:54:00Z</time>
      </trkpt>
      <trkpt lat="44.8031" lon="0.66987">
        <ele>176.964</ele>
        <time>2019-05-07T12:54:03Z</time>
      </trkpt>
      <trkpt lat="44.80313" lon="0.66987">
        <ele>177.051</ele>
        <time>2019-05-07T12:54:06Z</time>
      </trkpt>
      <trkpt lat="44.80317" lon="0.66988">
        <ele>177.194</ele>
        <time>2019-05-07T12:54:11Z</time>
      </trkpt>
      <trkpt lat="44.80322" lon="0.6699">
        <ele>177.28</ele>
        <time>2019-05-07T12:54:14Z</time>
      </trkpt>
      <trkpt lat="44.80324" lon="0.6699">
        <ele>177.337</ele>
        <time>2019-05-07T12:54:16Z</time>
      </trkpt>
      <trkpt lat="44.80329" lon="0.66992">
        <ele>177.42</ele>
        <time>2019-05-07T12:54:19Z</time>
      </trkpt>
      <trkpt lat="44.80333" lon="0.66992">
        <ele>177.503</ele>
        <time>2019-05-07T12:54:22Z</time>
      </trkpt>
      <trkpt lat="44.80338" lon="0.66995">
        <ele>177.617</ele>
        <time>2019-05-07T12:54:26Z</time>
      </trkpt>
      <trkpt lat="44.80343" lon="0.66997">
        <ele>177.703</ele>
        <time>2019-05-07T12:54:29Z</time>
      </trkpt>
      <trkpt lat="44.80346" lon="0.66998">
        <ele>177.762</ele>
        <time>2019-05-07T12:54:31Z</time>
      </trkpt>
      <trkpt lat="44.80353" lon="0.67004">
        <ele>177.85</ele>
        <time>2019-05-07T12:54:34Z</time>
      </trkpt>
      <trkpt lat="44.80358" lon="0.67009">
        <ele>177.938</ele>
        <time>2019-05-07T12:54:37Z</time>
      </trkpt>
      <trkpt lat="44.80363" lon="0.67013">
        <ele>178.025</ele>
        <time>2019-05-07T12:54:40Z</time>
      </trkpt>
      <trkpt lat="44.80368" lon="0.67015">
        <ele>178.137</ele>
        <time>2019-05-07T12:54:44Z</time>
      </trkpt>
      <trkpt lat="44.80372" lon="0.67018">
        <ele>178.191</ele>
        <time>2019-05-07T12:54:46Z</time>
      </trkpt>
      <trkpt lat="44.80377" lon="0.67023">
        <ele>178.271</ele>
        <time>2019-05-07T12:54:49Z</time>
      </trkpt>
      <trkpt lat="44.8038" lon="0.67029">
        <ele>178.373</ele>
        <time>2019-05-07T12:54:53Z</time>
      </trkpt>
      <trkpt lat="44.80384" lon="0.67032">
        <ele>178.447</ele>
        <time>2019-05-07T12:54:56Z</time>
      </trkpt>
      <trkpt lat="44.80387" lon="0.67034">
        <ele>178.471</ele>
        <time>2019-05-07T12:54:58Z</time>
      </trkpt>
      <trkpt lat="44.80389" lon="0.67036">
        <ele>178.535</ele>
        <time>2019-05-07T12:55:01Z</time>
      </trkpt>
      <trkpt lat="44.80394" lon="0.67038">
        <ele>178.637</ele>
        <time>2019-05-07T12:55:06Z</time>
      </trkpt>
      <trkpt lat="44.80399" lon="0.67041">
        <ele>178.731</ele>
        <time>2019-05-07T12:55:11Z</time>
      </trkpt>
      <trkpt lat="44.80402" lon="0.67042">
        <ele>178.786</ele>
        <time>2019-05-07T12:55:14Z</time>
      </trkpt>
      <trkpt lat="44.80407" lon="0.67046">
        <ele>178.839</ele>
        <time>2019-05-07T12:55:17Z</time>
      </trkpt>
      <trkpt lat="44.80412" lon="0.67048">
        <ele>178.889</ele>
        <time>2019-05-07T12:55:20Z</time>
      </trkpt>
      <trkpt lat="44.80417" lon="0.6705">
        <ele>178.937</ele>
        <time>2019-05-07T12:55:23Z</time>
      </trkpt>
      <trkpt lat="44.80422" lon="0.67051">
        <ele>178.98</ele>
        <time>2019-05-07T12:55:26Z</time>
      </trkpt>
      <trkpt lat="44.80425" lon="0.67051">
        <ele>179.007</ele>
        <time>2019-05-07T12:55:28Z</time>
      </trkpt>
      <trkpt lat="44.8043" lon="0.6705">
        <ele>179.068</ele>
        <time>2019-05-07T12:55:33Z</time>
      </trkpt>
      <trkpt lat="44.80435" lon="0.67051">
        <ele>179.103</ele>
        <time>2019-05-07T12:55:36Z</time>
      </trkpt>
      <trkpt lat="44.80441" lon="0.67053">
        <ele>179.15</ele>
        <time>2019-05-07T12:55:40Z</time>
      </trkpt>
      <trkpt lat="44.80445" lon="0.67053">
        <ele>179.185</ele>
        <time>2019-05-07T12:55:43Z</time>
      </trkpt>
      <trkpt lat="44.80451" lon="0.67054">
        <ele>179.22</ele>
        <time>2019-05-07T12:55:46Z</time>
      </trkpt>
      <trkpt lat="44.80454" lon="0.67055">
        <ele>179.243</ele>
        <time>2019-05-07T12:55:48Z</time>
      </trkpt>
      <trkpt lat="44.8046" lon="0.67053">
        <ele>179.285</ele>
        <time>2019-05-07T12:55:52Z</time>
      </trkpt>
      <trkpt lat="44.80463" lon="0.67052">
        <ele>179.304</ele>
        <time>2019-05-07T12:55:54Z</time>
      </trkpt>
      <trkpt lat="44.80468" lon="0.67052">
        <ele>179.331</ele>
        <time>2019-05-07T12:55:57Z</time>
      </trkpt>
      <trkpt lat="44.80471" lon="0.67053">
        <ele>179.348</ele>
        <time>2019-05-07T12:55:59Z</time>
      </trkpt>
      <trkpt lat="44.80473" lon="0.67053">
        <ele>179.365</ele>
        <time>2019-05-07T12:56:01Z</time>
      </trkpt>
      <trkpt lat="44.80479" lon="0.67054">
        <ele>179.397</ele>
        <time>2019-05-07T12:56:05Z</time>
      </trkpt>
      <trkpt lat="44.80482" lon="0.67055">
        <ele>179.413</ele>
        <time>2019-05-07T12:56:07Z</time>
      </trkpt>
      <trkpt lat="44.80485" lon="0.67056">
        <ele>179.429</ele>
        <time>2019-05-07T12:56:09Z</time>
      </trkpt>
      <trkpt lat="44.8049" lon="0.67058">
        <ele>179.454</ele>
        <time>2019-05-07T12:56:12Z</time>
      </trkpt>
      <trkpt lat="44.80493" lon="0.67059">
        <ele>179.47</ele>
        <time>2019-05-07T12:56:14Z</time>
      </trkpt>
      <trkpt lat="44.80496" lon="0.67061">
        <ele>179.486</ele>
        <time>2019-05-07T12:56:16Z</time>
      </trkpt>
      <trkpt lat="44.80499" lon="0.67062">
        <ele>179.495</ele>
        <time>2019-05-07T12:56:17Z</time>
      </trkpt>
      <trkpt lat="44.80501" lon="0.67062">
        <ele>179.505</ele>
        <time>2019-05-07T12:56:18Z</time>
      </trkpt>
      <trkpt lat="44.80507" lon="0.67062">
        <ele>179.551</ele>
        <time>2019-05-07T12:56:23Z</time>
      </trkpt>
      <trkpt lat="44.80511" lon="0.67067">
        <ele>179.58</ele>
        <time>2019-05-07T12:56:26Z</time>
      </trkpt>
      <trkpt lat="44.80518" lon="0.67069">
        <ele>179.611</ele>
        <time>2019-05-07T12:56:29Z</time>
      </trkpt>
      <trkpt lat="44.80523" lon="0.67072">
        <ele>179.642</ele>
        <time>2019-05-07T12:56:32Z</time>
      </trkpt>
      <trkpt lat="44.80527" lon="0.67073">
        <ele>179.662</ele>
        <time>2019-05-07T12:56:34Z</time>
      </trkpt>
      <trkpt lat="44.80529" lon="0.67074">
        <ele>179.672</ele>
        <time>2019-05-07T12:56:35Z</time>
      </trkpt>
      <trkpt lat="44.80534" lon="0.67076">
        <ele>179.703</ele>
        <time>2019-05-07T12:56:38Z</time>
      </trkpt>
      <trkpt lat="44.80537" lon="0.67077">
        <ele>179.722</ele>
        <time>2019-05-07T12:56:40Z</time>
      </trkpt>
      <trkpt lat="44.80542" lon="0.67079">
        <ele>179.75</ele>
        <time>2019-05-07T12:56:43Z</time>
      </trkpt>
      <trkpt lat="44.80546" lon="0.67083">
        <ele>179.777</ele>
        <time>2019-05-07T12:56:47Z</time>
      </trkpt>
      <trkpt lat="44.8055" lon="0.67085">
        <ele>179.801</ele>
        <time>2019-05-07T12:56:49Z</time>
      </trkpt>
      <trkpt lat="44.80554" lon="0.67086">
        <ele>179.816</ele>
        <time>2019-05-07T12:56:51Z</time>
      </trkpt>
      <trkpt lat="44.80559" lon="0.67087">
        <ele>179.845</ele>
        <time>2019-05-07T12:56:55Z</time>
      </trkpt>
      <trkpt lat="44.80562" lon="0.67087">
        <ele>179.861</ele>
        <time>2019-05-07T12:56:57Z</time>
      </trkpt>
      <trkpt lat="44.80564" lon="0.67087">
        <ele>179.877</ele>
        <time>2019-05-07T12:56:59Z</time>
      </trkpt>
      <trkpt lat="44.8057" lon="0.67086">
        <ele>179.91</ele>
        <time>2019-05-07T12:57:03Z</time>
      </trkpt>
      <trkpt lat="44.80575" lon="0.67088">
        <ele>179.945</ele>
        <time>2019-05-07T12:57:07Z</time>
      </trkpt>
      <trkpt lat="44.8058" lon="0.67089">
        <ele>179.971</ele>
        <time>2019-05-07T12:57:10Z</time>
      </trkpt>
      <trkpt lat="44.80583" lon="0.6709">
        <ele>179.989</ele>
        <time>2019-05-07T12:57:12Z</time>
      </trkpt>
      <trkpt lat="44.80585" lon="0.67091">
        <ele>180.007</ele>
        <time>2019-05-07T12:57:14Z</time>
      </trkpt>
      <trkpt lat="44.8059" lon="0.67092">
        <ele>180.025</ele>
        <time>2019-05-07T12:57:16Z</time>
      </trkpt>
      <trkpt lat="44.80595" lon="0.67095">
        <ele>180.041</ele>
        <time>2019-05-07T12:57:18Z</time>
      </trkpt>
      <trkpt lat="44.806" lon="0.67101">
        <ele>180.057</ele>
        <time>2019-05-07T12:57:20Z</time>
      </trkpt>
      <trkpt lat="44.80605" lon="0.67105">
        <ele>180.078</ele>
        <time>2019-05-07T12:57:23Z</time>
      </trkpt>
      <trkpt lat="44.8061" lon="0.67103">
        <ele>180.099</ele>
        <time>2019-05-07T12:57:26Z</time>
      </trkpt>
      <trkpt lat="44.80615" lon="0.67103">
        <ele>180.121</ele>
        <time>2019-05-07T12:57:29Z</time>
      </trkpt>
      <trkpt lat="44.80619" lon="0.67102">
        <ele>180.136</ele>
        <time>2019-05-07T12:57:31Z</time>
      </trkpt>
      <trkpt lat="44.80623" lon="0.67103">
        <ele>180.156</ele>
        <time>2019-05-07T12:57:34Z</time>
      </trkpt>
      <trkpt lat="44.80628" lon="0.67102">
        <ele>180.183</ele>
        <time>2019-05-07T12:57:38Z</time>
      </trkpt>
      <trkpt lat="44.80633" lon="0.67101">
        <ele>180.203</ele>
        <time>2019-05-07T12:57:41Z</time>
      </trkpt>
      <trkpt lat="44.80638" lon="0.67098">
        <ele>180.224</ele>
        <time>2019-05-07T12:57:44Z</time>
      </trkpt>
      <trkpt lat="44.80641" lon="0.67097">
        <ele>180.237</ele>
        <time>2019-05-07T12:57:46Z</time>
      </trkpt>
      <trkpt lat="44.80647" lon="0.67096">
        <ele>180.26</ele>
        <time>2019-05-07T12:57:50Z</time>
      </trkpt>
      <trkpt lat="44.8065" lon="0.67096">
        <ele>180.268</ele>
        <time>2019-05-07T12:57:52Z</time>
      </trkpt>
      <trkpt lat="44.80655" lon="0.67095">
        <ele>180.274</ele>
        <time>2019-05-07T12:57:54Z</time>
      </trkpt>
      <trkpt lat="44.80657" lon="0.67095">
        <ele>180.277</ele>
        <time>2019-05-07T12:57:55Z</time>
      </trkpt>
      <trkpt lat="44.80661" lon="0.67095">
        <ele>180.282</ele>
        <time>2019-05-07T12:57:57Z</time>
      </trkpt>
      <trkpt lat="44.80667" lon="0.67096">
        <ele>180.288</ele>
        <time>2019-05-07T12:58:00Z</time>
      </trkpt>
      <trkpt lat="44.80672" lon="0.67096">
        <ele>180.292</ele>
        <time>2019-05-07T12:58:03Z</time>
      </trkpt>
      <trkpt lat="44.80678" lon="0.67096">
        <ele>180.295</ele>
        <time>2019-05-07T12:58:06Z</time>
      </trkpt>
      <trkpt lat="44.80683" lon="0.67095">
        <ele>180.296</ele>
        <time>2019-05-07T12:58:09Z</time>
      </trkpt>
      <trkpt lat="44.80688" lon="0.67093">
        <ele>180.294</ele>
        <time>2019-05-07T12:58:12Z</time>
      </trkpt>
      <trkpt lat="44.80693" lon="0.67093">
        <ele>180.289</ele>
        <time>2019-05-07T12:58:15Z</time>
      </trkpt>
      <trkpt lat="44.80696" lon="0.67093">
        <ele>180.283</ele>
        <time>2019-05-07T12:58:18Z</time>
      </trkpt>
      <trkpt lat="44.80701" lon="0.67089">
        <ele>180.274</ele>
        <time>2019-05-07T12:58:22Z</time>
      </trkpt>
      <trkpt lat="44.80707" lon="0.67087">
        <ele>180.266</ele>
        <time>2019-05-07T12:58:26Z</time>
      </trkpt>
      <trkpt lat="44.80711" lon="0.67086">
        <ele>180.259</ele>
        <time>2019-05-07T12:58:29Z</time>
      </trkpt>
      <trkpt lat="44.80717" lon="0.67087">
        <ele>180.25</ele>
        <time>2019-05-07T12:58:32Z</time>
      </trkpt>
      <trkpt lat="44.80721" lon="0.67085">
        <ele>180.236</ele>
        <time>2019-05-07T12:58:36Z</time>
      </trkpt>
      <trkpt lat="44.80727" lon="0.67085">
        <ele>180.224</ele>
        <time>2019-05-07T12:58:39Z</time>
      </trkpt>
      <trkpt lat="44.80734" lon="0.67083">
        <ele>180.211</ele>
        <time>2019-05-07T12:58:42Z</time>
      </trkpt>
      <trkpt lat="44.80736" lon="0.67083">
        <ele>180.202</ele>
        <time>2019-05-07T12:58:44Z</time>
      </trkpt>
      <trkpt lat="44.80739" lon="0.67082">
        <ele>180.194</ele>
        <time>2019-05-07T12:58:46Z</time>
      </trkpt>
      <trkpt lat="44.80747" lon="0.67082">
        <ele>180.18</ele>
        <time>2019-05-07T12:58:50Z</time>
      </trkpt>
      <trkpt lat="44.8075" lon="0.67082">
        <ele>180.173</ele>
        <time>2019-05-07T12:58:52Z</time>
      </trkpt>
      <trkpt lat="44.80754" lon="0.67083">
        <ele>180.165</ele>
        <time>2019-05-07T12:58:54Z</time>
      </trkpt>
      <trkpt lat="44.80757" lon="0.67083">
        <ele>180.158</ele>
        <time>2019-05-07T12:58:56Z</time>
      </trkpt>
      <trkpt lat="44.8076" lon="0.67082">
        <ele>180.15</ele>
        <time>2019-05-07T12:58:58Z</time>
      </trkpt>
      <trkpt lat="44.80762" lon="0.67082">
        <ele>180.141</ele>
        <time>2019-05-07T12:59:00Z</time>
      </trkpt>
      <trkpt lat="44.80767" lon="0.67082">
        <ele>180.124</ele>
        <time>2019-05-07T12:59:04Z</time>
      </trkpt>
      <trkpt lat="44.80771" lon="0.67082">
        <ele>180.111</ele>
        <time>2019-05-07T12:59:07Z</time>
      </trkpt>
      <trkpt lat="44.80774" lon="0.67082">
        <ele>180.101</ele>
        <time>2019-05-07T12:59:09Z</time>
      </trkpt>
      <trkpt lat="44.80776" lon="0.67081">
        <ele>180.091</ele>
        <time>2019-05-07T12:59:11Z</time>
      </trkpt>
      <trkpt lat="44.80781" lon="0.67081">
        <ele>180.074</ele>
        <time>2019-05-07T12:59:14Z</time>
      </trkpt>
      <trkpt lat="44.80787" lon="0.67083">
        <ele>180.05</ele>
        <time>2019-05-07T12:59:18Z</time>
      </trkpt>
      <trkpt lat="44.80794" lon="0.67083">
        <ele>180.024</ele>
        <time>2019-05-07T12:59:22Z</time>
      </trkpt>
      <trkpt lat="44.808" lon="0.67081">
        <ele>179.995</ele>
        <time>2019-05-07T12:59:26Z</time>
      </trkpt>
      <trkpt lat="44.80805" lon="0.67081">
        <ele>179.972</ele>
        <time>2019-05-07T12:59:29Z</time>
      </trkpt>
      <trkpt lat="44.80808" lon="0.6708">
        <ele>179.955</ele>
        <time>2019-05-07T12:59:31Z</time>
      </trkpt>
      <trkpt lat="44.80813" lon="0.6708">
        <ele>179.928</ele>
        <time>2019-05-07T12:59:34Z</time>
      </trkpt>
      <trkpt lat="44.80818" lon="0.67081">
        <ele>179.89</ele>
        <time>2019-05-07T12:59:38Z</time>
      </trkpt>
      <trkpt lat="44.80821" lon="0.67081">
        <ele>179.861</ele>
        <time>2019-05-07T12:59:41Z</time>
      </trkpt>
      <trkpt lat="44.80827" lon="0.67082">
        <ele>179.823</ele>
        <time>2019-05-07T12:59:45Z</time>
      </trkpt>
      <trkpt lat="44.80833" lon="0.67082">
        <ele>179.796</ele>
        <time>2019-05-07T12:59:48Z</time>
      </trkpt>
      <trkpt lat="44.80837" lon="0.67084">
        <ele>179.772</ele>
        <time>2019-05-07T12:59:51Z</time>
      </trkpt>
      <trkpt lat="44.80842" lon="0.67085">
        <ele>179.751</ele>
        <time>2019-05-07T12:59:54Z</time>
      </trkpt>
      <trkpt lat="44.80846" lon="0.67085">
        <ele>179.738</ele>
        <time>2019-05-07T12:59:56Z</time>
      </trkpt>
      <trkpt lat="44.80849" lon="0.67087">
        <ele>179.726</ele>
        <time>2019-05-07T12:59:58Z</time>
      </trkpt>
      <trkpt lat="44.80853" lon="0.67088">
        <ele>179.715</ele>
        <time>2019-05-07T13:00:00Z</time>
      </trkpt>
      <trkpt lat="44.80858" lon="0.67087">
        <ele>179.698</ele>
        <time>2019-05-07T13:00:03Z</time>
      </trkpt>
      <trkpt lat="44.80864" lon="0.67087">
        <ele>179.673</ele>
        <time>2019-05-07T13:00:07Z</time>
      </trkpt>
      <trkpt lat="44.80867" lon="0.67087">
        <ele>179.659</ele>
        <time>2019-05-07T13:00:09Z</time>
      </trkpt>
      <trkpt lat="44.80871" lon="0.67087">
        <ele>179.645</ele>
        <time>2019-05-07T13:00:11Z</time>
      </trkpt>
      <trkpt lat="44.80876" lon="0.67085">
        <ele>179.629</ele>
        <time>2019-05-07T13:00:13Z</time>
      </trkpt>
      <trkpt lat="44.80881" lon="0.67085">
        <ele>179.597</ele>
        <time>2019-05-07T13:00:17Z</time>
      </trkpt>
      <trkpt lat="44.80886" lon="0.67087">
        <ele>179.571</ele>
        <time>2019-05-07T13:00:20Z</time>
      </trkpt>
      <trkpt lat="44.80891" lon="0.67087">
        <ele>179.552</ele>
        <time>2019-05-07T13:00:22Z</time>
      </trkpt>
      <trkpt lat="44.80894" lon="0.67086">
        <ele>179.533</ele>
        <time>2019-05-07T13:00:24Z</time>
      </trkpt>
      <trkpt lat="44.809" lon="0.67084">
        <ele>179.504</ele>
        <time>2019-05-07T13:00:27Z</time>
      </trkpt>
      <trkpt lat="44.80905" lon="0.67083">
        <ele>179.461</ele>
        <time>2019-05-07T13:00:31Z</time>
      </trkpt>
      <trkpt lat="44.80908" lon="0.67083">
        <ele>179.426</ele>
        <time>2019-05-07T13:00:34Z</time>
      </trkpt>
      <trkpt lat="44.80912" lon="0.67083">
        <ele>179.402</ele>
        <time>2019-05-07T13:00:36Z</time>
      </trkpt>
      <trkpt lat="44.80921" lon="0.67079">
        <ele>179.365</ele>
        <time>2019-05-07T13:00:39Z</time>
      </trkpt>
      <trkpt lat="44.80926" lon="0.67079">
        <ele>179.325</ele>
        <time>2019-05-07T13:00:42Z</time>
      </trkpt>
      <trkpt lat="44.80931" lon="0.67078">
        <ele>179.282</ele>
        <time>2019-05-07T13:00:45Z</time>
      </trkpt>
      <trkpt lat="44.80937" lon="0.6708">
        <ele>179.235</ele>
        <time>2019-05-07T13:00:48Z</time>
      </trkpt>
      <trkpt lat="44.80941" lon="0.67082">
        <ele>179.185</ele>
        <time>2019-05-07T13:00:51Z</time>
      </trkpt>
      <trkpt lat="44.80946" lon="0.67082">
        <ele>179.133</ele>
        <time>2019-05-07T13:00:54Z</time>
      </trkpt>
      <trkpt lat="44.80952" lon="0.67085">
        <ele>179.06</ele>
        <time>2019-05-07T13:00:58Z</time>
      </trkpt>
      <trkpt lat="44.80956" lon="0.67088">
        <ele>179.004</ele>
        <time>2019-05-07T13:01:01Z</time>
      </trkpt>
      <trkpt lat="44.80958" lon="0.67089">
        <ele>178.966</ele>
        <time>2019-05-07T13:01:03Z</time>
      </trkpt>
      <trkpt lat="44.8096" lon="0.67091">
        <ele>178.93</ele>
        <time>2019-05-07T13:01:05Z</time>
      </trkpt>
      <trkpt lat="44.80964" lon="0.67093">
        <ele>178.893</ele>
        <time>2019-05-07T13:01:07Z</time>
      </trkpt>
      <trkpt lat="44.8097" lon="0.67094">
        <ele>178.838</ele>
        <time>2019-05-07T13:01:10Z</time>
      </trkpt>
      <trkpt lat="44.80973" lon="0.67094">
        <ele>178.8</ele>
        <time>2019-05-07T13:01:12Z</time>
      </trkpt>
      <trkpt lat="44.80977" lon="0.67098">
        <ele>178.744</ele>
        <time>2019-05-07T13:01:15Z</time>
      </trkpt>
      <trkpt lat="44.8098" lon="0.67104">
        <ele>178.645</ele>
        <time>2019-05-07T13:01:20Z</time>
      </trkpt>
      <trkpt lat="44.80985" lon="0.67107">
        <ele>178.536</ele>
        <time>2019-05-07T13:01:25Z</time>
      </trkpt>
      <trkpt lat="44.80988" lon="0.67108">
        <ele>178.49</ele>
        <time>2019-05-07T13:01:27Z</time>
      </trkpt>
      <trkpt lat="44.80995" lon="0.6711">
        <ele>178.399</ele>
        <time>2019-05-07T13:01:31Z</time>
      </trkpt>
      <trkpt lat="44.80999" lon="0.67113">
        <ele>178.353</ele>
        <time>2019-05-07T13:01:33Z</time>
      </trkpt>
      <trkpt lat="44.81003" lon="0.67118">
        <ele>178.26</ele>
        <time>2019-05-07T13:01:37Z</time>
      </trkpt>
      <trkpt lat="44.81008" lon="0.67123">
        <ele>178.187</ele>
        <time>2019-05-07T13:01:40Z</time>
      </trkpt>
      <trkpt lat="44.8101" lon="0.67129">
        <ele>178.114</ele>
        <time>2019-05-07T13:01:43Z</time>
      </trkpt>
      <trkpt lat="44.8101" lon="0.67135">
        <ele>178.013</ele>
        <time>2019-05-07T13:01:47Z</time>
      </trkpt>
      <trkpt lat="44.81011" lon="0.67141">
        <ele>177.962</ele>
        <time>2019-05-07T13:01:49Z</time>
      </trkpt>
      <trkpt lat="44.8101" lon="0.67149">
        <ele>177.907</ele>
        <time>2019-05-07T13:01:51Z</time>
      </trkpt>
      <trkpt lat="44.81009" lon="0.67155">
        <ele>177.794</ele>
        <time>2019-05-07T13:01:55Z</time>
      </trkpt>
      <trkpt lat="44.81006" lon="0.6716">
        <ele>177.652</ele>
        <time>2019-05-07T13:02:00Z</time>
      </trkpt>
      <trkpt lat="44.81004" lon="0.67165">
        <ele>177.594</ele>
        <time>2019-05-07T13:02:02Z</time>
      </trkpt>
      <trkpt lat="44.81002" lon="0.67168">
        <ele>177.534</ele>
        <time>2019-05-07T13:02:04Z</time>
      </trkpt>
      <trkpt lat="44.81" lon="0.67172">
        <ele>177.473</ele>
        <time>2019-05-07T13:02:06Z</time>
      </trkpt>
      <trkpt lat="44.80999" lon="0.67179">
        <ele>177.41</ele>
        <time>2019-05-07T13:02:08Z</time>
      </trkpt>
      <trkpt lat="44.80998" lon="0.67185">
        <ele>177.314</ele>
        <time>2019-05-07T13:02:11Z</time>
      </trkpt>
      <trkpt lat="44.80996" lon="0.67191">
        <ele>177.217</ele>
        <time>2019-05-07T13:02:14Z</time>
      </trkpt>
      <trkpt lat="44.80993" lon="0.67197">
        <ele>177.124</ele>
        <time>2019-05-07T13:02:17Z</time>
      </trkpt>
      <trkpt lat="44.80989" lon="0.67202">
        <ele>177.003</ele>
        <time>2019-05-07T13:02:21Z</time>
      </trkpt>
      <trkpt lat="44.80986" lon="0.67204">
        <ele>176.944</ele>
        <time>2019-05-07T13:02:23Z</time>
      </trkpt>
      <trkpt lat="44.80984" lon="0.67207">
        <ele>176.886</ele>
        <time>2019-05-07T13:02:25Z</time>
      </trkpt>
      <trkpt lat="44.80981" lon="0.67211">
        <ele>176.774</ele>
        <time>2019-05-07T13:02:29Z</time>
      </trkpt>
      <trkpt lat="44.80977" lon="0.67215">
        <ele>176.665</ele>
        <time>2019-05-07T13:02:33Z</time>
      </trkpt>
      <trkpt lat="44.80971" lon="0.67216">
        <ele>176.56</ele>
        <time>2019-05-07T13:02:37Z</time>
      </trkpt>
      <trkpt lat="44.80966" lon="0.6722">
        <ele>176.483</ele>
        <time>2019-05-07T13:02:40Z</time>
      </trkpt>
      <trkpt lat="44.80964" lon="0.67222">
        <ele>176.433</ele>
        <time>2019-05-07T13:02:42Z</time>
      </trkpt>
      <trkpt lat="44.80961" lon="0.67224">
        <ele>176.385</ele>
        <time>2019-05-07T13:02:44Z</time>
      </trkpt>
      <trkpt lat="44.80957" lon="0.6723">
        <ele>176.292</ele>
        <time>2019-05-07T13:02:48Z</time>
      </trkpt>
      <trkpt lat="44.80953" lon="0.67237">
        <ele>176.224</ele>
        <time>2019-05-07T13:02:51Z</time>
      </trkpt>
      <trkpt lat="44.8095" lon="0.67241">
        <ele>176.201</ele>
        <time>2019-05-07T13:02:52Z</time>
      </trkpt>
      <trkpt lat="44.80945" lon="0.67244">
        <ele>176.152</ele>
        <time>2019-05-07T13:02:54Z</time>
      </trkpt>
      <trkpt lat="44.8094" lon="0.67248">
        <ele>176.049</ele>
        <time>2019-05-07T13:02:58Z</time>
      </trkpt>
      <trkpt lat="44.80937" lon="0.67254">
        <ele>175.94</ele>
        <time>2019-05-07T13:03:02Z</time>
      </trkpt>
      <trkpt lat="44.80932" lon="0.67255">
        <ele>175.789</ele>
        <time>2019-05-07T13:03:07Z</time>
      </trkpt>
      <trkpt lat="44.80926" lon="0.67257">
        <ele>175.603</ele>
        <time>2019-05-07T13:03:13Z</time>
      </trkpt>
      <trkpt lat="44.8092" lon="0.67261">
        <ele>175.508</ele>
        <time>2019-05-07T13:03:16Z</time>
      </trkpt>
      <trkpt lat="44.80917" lon="0.67262">
        <ele>175.443</ele>
        <time>2019-05-07T13:03:18Z</time>
      </trkpt>
      <trkpt lat="44.80914" lon="0.67263">
        <ele>175.41</ele>
        <time>2019-05-07T13:03:19Z</time>
      </trkpt>
      <trkpt lat="44.80909" lon="0.67264">
        <ele>175.31</ele>
        <time>2019-05-07T13:03:22Z</time>
      </trkpt>
      <trkpt lat="44.80905" lon="0.67264">
        <ele>175.241</ele>
        <time>2019-05-07T13:03:24Z</time>
      </trkpt>
      <trkpt lat="44.80901" lon="0.67266">
        <ele>175.103</ele>
        <time>2019-05-07T13:03:28Z</time>
      </trkpt>
      <trkpt lat="44.80895" lon="0.67268">
        <ele>175.001</ele>
        <time>2019-05-07T13:03:31Z</time>
      </trkpt>
      <trkpt lat="44.80892" lon="0.67269">
        <ele>174.935</ele>
        <time>2019-05-07T13:03:33Z</time>
      </trkpt>
      <trkpt lat="44.80887" lon="0.6727">
        <ele>174.838</ele>
        <time>2019-05-07T13:03:36Z</time>
      </trkpt>
      <trkpt lat="44.80884" lon="0.6727">
        <ele>174.742</ele>
        <time>2019-05-07T13:03:39Z</time>
      </trkpt>
      <trkpt lat="44.8088" lon="0.6727">
        <ele>174.677</ele>
        <time>2019-05-07T13:03:41Z</time>
      </trkpt>
      <trkpt lat="44.80878" lon="0.67271">
        <ele>174.613</ele>
        <time>2019-05-07T13:03:43Z</time>
      </trkpt>
      <trkpt lat="44.80872" lon="0.67268">
        <ele>174.518</ele>
        <time>2019-05-07T13:03:46Z</time>
      </trkpt>
      <trkpt lat="44.80865" lon="0.67265">
        <ele>174.454</ele>
        <time>2019-05-07T13:03:48Z</time>
      </trkpt>
      <trkpt lat="44.8086" lon="0.67266">
        <ele>174.359</ele>
        <time>2019-05-07T13:03:51Z</time>
      </trkpt>
      <trkpt lat="44.80856" lon="0.67268">
        <ele>174.194</ele>
        <time>2019-05-07T13:03:56Z</time>
      </trkpt>
      <trkpt lat="44.80853" lon="0.67269">
        <ele>174.092</ele>
        <time>2019-05-07T13:03:59Z</time>
      </trkpt>
      <trkpt lat="44.80849" lon="0.67271">
        <ele>173.989</ele>
        <time>2019-05-07T13:04:02Z</time>
      </trkpt>
      <trkpt lat="44.80844" lon="0.67271">
        <ele>173.883</ele>
        <time>2019-05-07T13:04:05Z</time>
      </trkpt>
      <trkpt lat="44.80841" lon="0.67271">
        <ele>173.814</ele>
        <time>2019-05-07T13:04:07Z</time>
      </trkpt>
      <trkpt lat="44.80837" lon="0.67272">
        <ele>173.744</ele>
        <time>2019-05-07T13:04:09Z</time>
      </trkpt>
      <trkpt lat="44.80832" lon="0.67274">
        <ele>173.638</ele>
        <time>2019-05-07T13:04:12Z</time>
      </trkpt>
      <trkpt lat="44.80828" lon="0.67277">
        <ele>173.531</ele>
        <time>2019-05-07T13:04:15Z</time>
      </trkpt>
      <trkpt lat="44.80824" lon="0.67278">
        <ele>173.426</ele>
        <time>2019-05-07T13:04:18Z</time>
      </trkpt>
      <trkpt lat="44.8082" lon="0.67279">
        <ele>173.324</ele>
        <time>2019-05-07T13:04:21Z</time>
      </trkpt>
      <trkpt lat="44.80815" lon="0.6728">
        <ele>173.253</ele>
        <time>2019-05-07T13:04:23Z</time>
      </trkpt>
      <trkpt lat="44.80809" lon="0.67281">
        <ele>173.106</ele>
        <time>2019-05-07T13:04:27Z</time>
      </trkpt>
      <trkpt lat="44.80804" lon="0.67279">
        <ele>172.949</ele>
        <time>2019-05-07T13:04:31Z</time>
      </trkpt>
      <trkpt lat="44.80799" lon="0.67279">
        <ele>172.792</ele>
        <time>2019-05-07T13:04:35Z</time>
      </trkpt>
      <trkpt lat="44.80795" lon="0.67279">
        <ele>172.672</ele>
        <time>2019-05-07T13:04:38Z</time>
      </trkpt>
      <trkpt lat="44.80789" lon="0.6728">
        <ele>172.512</ele>
        <time>2019-05-07T13:04:42Z</time>
      </trkpt>
      <trkpt lat="44.80784" lon="0.67282">
        <ele>172.391</ele>
        <time>2019-05-07T13:04:45Z</time>
      </trkpt>
      <trkpt lat="44.80781" lon="0.67282">
        <ele>172.31</ele>
        <time>2019-05-07T13:04:47Z</time>
      </trkpt>
      <trkpt lat="44.80778" lon="0.67283">
        <ele>172.229</ele>
        <time>2019-05-07T13:04:49Z</time>
      </trkpt>
      <trkpt lat="44.80769" lon="0.67282">
        <ele>172.067</ele>
        <time>2019-05-07T13:04:53Z</time>
      </trkpt>
      <trkpt lat="44.80765" lon="0.67283">
        <ele>171.943</ele>
        <time>2019-05-07T13:04:56Z</time>
      </trkpt>
      <trkpt lat="44.80759" lon="0.67282">
        <ele>171.86</ele>
        <time>2019-05-07T13:04:58Z</time>
      </trkpt>
      <trkpt lat="44.80754" lon="0.67283">
        <ele>171.775</ele>
        <time>2019-05-07T13:05:00Z</time>
      </trkpt>
      <trkpt lat="44.80751" lon="0.67284">
        <ele>171.643</ele>
        <time>2019-05-07T13:05:03Z</time>
      </trkpt>
      <trkpt lat="44.80747" lon="0.67284">
        <ele>171.554</ele>
        <time>2019-05-07T13:05:05Z</time>
      </trkpt>
      <trkpt lat="44.80745" lon="0.67284">
        <ele>171.508</ele>
        <time>2019-05-07T13:05:06Z</time>
      </trkpt>
      <trkpt lat="44.8074" lon="0.67284">
        <ele>171.366</ele>
        <time>2019-05-07T13:05:09Z</time>
      </trkpt>
      <trkpt lat="44.80735" lon="0.67281">
        <ele>171.17</ele>
        <time>2019-05-07T13:05:13Z</time>
      </trkpt>
      <trkpt lat="44.80731" lon="0.67279">
        <ele>170.976</ele>
        <time>2019-05-07T13:05:17Z</time>
      </trkpt>
      <trkpt lat="44.80727" lon="0.67278">
        <ele>170.784</ele>
        <time>2019-05-07T13:05:21Z</time>
      </trkpt>
      <trkpt lat="44.80721" lon="0.67279">
        <ele>170.552</ele>
        <time>2019-05-07T13:05:26Z</time>
      </trkpt>
      <trkpt lat="44.80716" lon="0.67281">
        <ele>170.414</ele>
        <time>2019-05-07T13:05:29Z</time>
      </trkpt>
      <trkpt lat="44.80711" lon="0.67281">
        <ele>170.233</ele>
        <time>2019-05-07T13:05:33Z</time>
      </trkpt>
      <trkpt lat="44.80707" lon="0.6728">
        <ele>170.099</ele>
        <time>2019-05-07T13:05:36Z</time>
      </trkpt>
      <trkpt lat="44.80703" lon="0.67279">
        <ele>169.927</ele>
        <time>2019-05-07T13:05:40Z</time>
      </trkpt>
      <trkpt lat="44.80698" lon="0.67281">
        <ele>169.8</ele>
        <time>2019-05-07T13:05:43Z</time>
      </trkpt>
      <trkpt lat="44.80692" lon="0.67281">
        <ele>169.634</ele>
        <time>2019-05-07T13:05:47Z</time>
      </trkpt>
      <trkpt lat="44.8069" lon="0.67281">
        <ele>169.514</ele>
        <time>2019-05-07T13:05:50Z</time>
      </trkpt>
      <trkpt lat="44.80683" lon="0.67283">
        <ele>169.32</ele>
        <time>2019-05-07T13:05:55Z</time>
      </trkpt>
      <trkpt lat="44.8068" lon="0.67284">
        <ele>169.28</ele>
        <time>2019-05-07T13:05:56Z</time>
      </trkpt>
      <trkpt lat="44.80674" lon="0.67283">
        <ele>169.197</ele>
        <time>2019-05-07T13:05:58Z</time>
      </trkpt>
      <trkpt lat="44.80672" lon="0.67283">
        <ele>169.156</ele>
        <time>2019-05-07T13:05:59Z</time>
      </trkpt>
      <trkpt lat="44.80667" lon="0.67286">
        <ele>168.996</ele>
        <time>2019-05-07T13:06:03Z</time>
      </trkpt>
      <trkpt lat="44.80662" lon="0.67288">
        <ele>168.885</ele>
        <time>2019-05-07T13:06:06Z</time>
      </trkpt>
      <trkpt lat="44.80658" lon="0.67291">
        <ele>168.746</ele>
        <time>2019-05-07T13:06:10Z</time>
      </trkpt>
      <trkpt lat="44.80654" lon="0.67292">
        <ele>168.647</ele>
        <time>2019-05-07T13:06:13Z</time>
      </trkpt>
      <trkpt lat="44.80651" lon="0.67294">
        <ele>168.552</ele>
        <time>2019-05-07T13:06:16Z</time>
      </trkpt>
      <trkpt lat="44.80646" lon="0.673">
        <ele>168.462</ele>
        <time>2019-05-07T13:06:19Z</time>
      </trkpt>
      <trkpt lat="44.80645" lon="0.67302">
        <ele>168.433</ele>
        <time>2019-05-07T13:06:20Z</time>
      </trkpt>
      <trkpt lat="44.80641" lon="0.67307">
        <ele>168.347</ele>
        <time>2019-05-07T13:06:23Z</time>
      </trkpt>
      <trkpt lat="44.80636" lon="0.67309">
        <ele>168.262</ele>
        <time>2019-05-07T13:06:26Z</time>
      </trkpt>
      <trkpt lat="44.80631" lon="0.67314">
        <ele>168.121</ele>
        <time>2019-05-07T13:06:31Z</time>
      </trkpt>
      <trkpt lat="44.80629" lon="0.67316">
        <ele>168.066</ele>
        <time>2019-05-07T13:06:33Z</time>
      </trkpt>
      <trkpt lat="44.80625" lon="0.67321">
        <ele>167.985</ele>
        <time>2019-05-07T13:06:36Z</time>
      </trkpt>
      <trkpt lat="44.8062" lon="0.67323">
        <ele>167.85</ele>
        <time>2019-05-07T13:06:41Z</time>
      </trkpt>
      <trkpt lat="44.80616" lon="0.67328">
        <ele>167.744</ele>
        <time>2019-05-07T13:06:45Z</time>
      </trkpt>
      <trkpt lat="44.80612" lon="0.67331">
        <ele>167.663</ele>
        <time>2019-05-07T13:06:48Z</time>
      </trkpt>
      <trkpt lat="44.80609" lon="0.67333">
        <ele>167.609</ele>
        <time>2019-05-07T13:06:50Z</time>
      </trkpt>
      <trkpt lat="44.80604" lon="0.67337">
        <ele>167.475</ele>
        <time>2019-05-07T13:06:55Z</time>
      </trkpt>
      <trkpt lat="44.80599" lon="0.67339">
        <ele>167.395</ele>
        <time>2019-05-07T13:06:58Z</time>
      </trkpt>
      <trkpt lat="44.80594" lon="0.67344">
        <ele>167.284</ele>
        <time>2019-05-07T13:07:02Z</time>
      </trkpt>
      <trkpt lat="44.80589" lon="0.67346">
        <ele>167.228</ele>
        <time>2019-05-07T13:07:04Z</time>
      </trkpt>
      <trkpt lat="44.80586" lon="0.67348">
        <ele>167.141</ele>
        <time>2019-05-07T13:07:07Z</time>
      </trkpt>
      <trkpt lat="44.80581" lon="0.6735">
        <ele>167</ele>
        <time>2019-05-07T13:07:12Z</time>
      </trkpt>
      <trkpt lat="44.80577" lon="0.67355">
        <ele>166.915</ele>
        <time>2019-05-07T13:07:15Z</time>
      </trkpt>
      <trkpt lat="44.80575" lon="0.67357">
        <ele>166.859</ele>
        <time>2019-05-07T13:07:17Z</time>
      </trkpt>
      <trkpt lat="44.80571" lon="0.67361">
        <ele>166.739</ele>
        <time>2019-05-07T13:07:21Z</time>
      </trkpt>
      <trkpt lat="44.80569" lon="0.67362">
        <ele>166.708</ele>
        <time>2019-05-07T13:07:22Z</time>
      </trkpt>
      <trkpt lat="44.80563" lon="0.67365">
        <ele>166.615</ele>
        <time>2019-05-07T13:07:25Z</time>
      </trkpt>
      <trkpt lat="44.80559" lon="0.67367">
        <ele>166.516</ele>
        <time>2019-05-07T13:07:28Z</time>
      </trkpt>
      <trkpt lat="44.80555" lon="0.67371">
        <ele>166.418</ele>
        <time>2019-05-07T13:07:31Z</time>
      </trkpt>
      <trkpt lat="44.8055" lon="0.67374">
        <ele>166.224</ele>
        <time>2019-05-07T13:07:37Z</time>
      </trkpt>
      <trkpt lat="44.80541" lon="0.67377">
        <ele>166.089</ele>
        <time>2019-05-07T13:07:41Z</time>
      </trkpt>
      <trkpt lat="44.80535" lon="0.67379">
        <ele>165.985</ele>
        <time>2019-05-07T13:07:44Z</time>
      </trkpt>
      <trkpt lat="44.8053" lon="0.67377">
        <ele>165.884</ele>
        <time>2019-05-07T13:07:47Z</time>
      </trkpt>
      <trkpt lat="44.80526" lon="0.67377">
        <ele>165.817</ele>
        <time>2019-05-07T13:07:49Z</time>
      </trkpt>
      <trkpt lat="44.80522" lon="0.67374">
        <ele>165.684</ele>
        <time>2019-05-07T13:07:53Z</time>
      </trkpt>
      <trkpt lat="44.80516" lon="0.67373">
        <ele>165.58</ele>
        <time>2019-05-07T13:07:56Z</time>
      </trkpt>
      <trkpt lat="44.80514" lon="0.67373">
        <ele>165.509</ele>
        <time>2019-05-07T13:07:58Z</time>
      </trkpt>
      <trkpt lat="44.8051" lon="0.67372">
        <ele>165.404</ele>
        <time>2019-05-07T13:08:01Z</time>
      </trkpt>
      <trkpt lat="44.80505" lon="0.67373">
        <ele>165.267</ele>
        <time>2019-05-07T13:08:05Z</time>
      </trkpt>
      <trkpt lat="44.805" lon="0.67372">
        <ele>165.134</ele>
        <time>2019-05-07T13:08:09Z</time>
      </trkpt>
      <trkpt lat="44.80497" lon="0.67372">
        <ele>165.101</ele>
        <time>2019-05-07T13:08:10Z</time>
      </trkpt>
      <trkpt lat="44.80493" lon="0.67372">
        <ele>165.001</ele>
        <time>2019-05-07T13:08:13Z</time>
      </trkpt>
      <trkpt lat="44.80487" lon="0.67372">
        <ele>164.869</ele>
        <time>2019-05-07T13:08:17Z</time>
      </trkpt>
      <trkpt lat="44.80484" lon="0.67372">
        <ele>164.802</ele>
        <time>2019-05-07T13:08:19Z</time>
      </trkpt>
      <trkpt lat="44.80479" lon="0.67371">
        <ele>164.668</ele>
        <time>2019-05-07T13:08:23Z</time>
      </trkpt>
      <trkpt lat="44.80476" lon="0.6737">
        <ele>164.602</ele>
        <time>2019-05-07T13:08:25Z</time>
      </trkpt>
      <trkpt lat="44.80469" lon="0.6737">
        <ele>164.47</ele>
        <time>2019-05-07T13:08:29Z</time>
      </trkpt>
      <trkpt lat="44.80466" lon="0.67371">
        <ele>164.404</ele>
        <time>2019-05-07T13:08:31Z</time>
      </trkpt>
      <trkpt lat="44.80463" lon="0.6737">
        <ele>164.304</ele>
        <time>2019-05-07T13:08:34Z</time>
      </trkpt>
      <trkpt lat="44.80458" lon="0.67369">
        <ele>164.172</ele>
        <time>2019-05-07T13:08:38Z</time>
      </trkpt>
      <trkpt lat="44.80455" lon="0.67369">
        <ele>164.109</ele>
        <time>2019-05-07T13:08:40Z</time>
      </trkpt>
      <trkpt lat="44.80453" lon="0.67368">
        <ele>164.046</ele>
        <time>2019-05-07T13:08:42Z</time>
      </trkpt>
      <trkpt lat="44.80447" lon="0.67367">
        <ele>163.955</ele>
        <time>2019-05-07T13:08:45Z</time>
      </trkpt>
      <trkpt lat="44.80444" lon="0.67367">
        <ele>163.926</ele>
        <time>2019-05-07T13:08:46Z</time>
      </trkpt>
      <trkpt lat="44.80442" lon="0.67367">
        <ele>163.896</ele>
        <time>2019-05-07T13:08:47Z</time>
      </trkpt>
      <trkpt lat="44.80437" lon="0.67365">
        <ele>163.839</ele>
        <time>2019-05-07T13:08:49Z</time>
      </trkpt>
      <trkpt lat="44.80434" lon="0.67364">
        <ele>163.782</ele>
        <time>2019-05-07T13:08:51Z</time>
      </trkpt>
      <trkpt lat="44.80429" lon="0.67364">
        <ele>163.7</ele>
        <time>2019-05-07T13:08:54Z</time>
      </trkpt>
      <trkpt lat="44.80424" lon="0.67362">
        <ele>163.62</ele>
        <time>2019-05-07T13:08:57Z</time>
      </trkpt>
      <trkpt lat="44.8042" lon="0.67361">
        <ele>163.567</ele>
        <time>2019-05-07T13:08:59Z</time>
      </trkpt>
      <trkpt lat="44.80416" lon="0.67359">
        <ele>163.465</ele>
        <time>2019-05-07T13:09:03Z</time>
      </trkpt>
      <trkpt lat="44.80411" lon="0.67359">
        <ele>163.39</ele>
        <time>2019-05-07T13:09:06Z</time>
      </trkpt>
      <trkpt lat="44.80406" lon="0.67359">
        <ele>163.296</ele>
        <time>2019-05-07T13:09:10Z</time>
      </trkpt>
      <trkpt lat="44.80401" lon="0.6736">
        <ele>163.229</ele>
        <time>2019-05-07T13:09:13Z</time>
      </trkpt>
      <trkpt lat="44.80396" lon="0.67359">
        <ele>163.184</ele>
        <time>2019-05-07T13:09:15Z</time>
      </trkpt>
      <trkpt lat="44.8039" lon="0.67361">
        <ele>163.112</ele>
        <time>2019-05-07T13:09:18Z</time>
      </trkpt>
      <trkpt lat="44.80384" lon="0.67362">
        <ele>163.011</ele>
        <time>2019-05-07T13:09:22Z</time>
      </trkpt>
      <trkpt lat="44.8038" lon="0.67364">
        <ele>162.855</ele>
        <time>2019-05-07T13:09:28Z</time>
      </trkpt>
      <trkpt lat="44.80378" lon="0.67369">
        <ele>162.756</ele>
        <time>2019-05-07T13:09:32Z</time>
      </trkpt>
      <trkpt lat="44.80375" lon="0.67374">
        <ele>162.684</ele>
        <time>2019-05-07T13:09:35Z</time>
      </trkpt>
      <trkpt lat="44.80371" lon="0.67377">
        <ele>162.615</ele>
        <time>2019-05-07T13:09:38Z</time>
      </trkpt>
      <trkpt lat="44.80366" lon="0.6738">
        <ele>162.547</ele>
        <time>2019-05-07T13:09:41Z</time>
      </trkpt>
      <trkpt lat="44.80363" lon="0.67382">
        <ele>162.481</ele>
        <time>2019-05-07T13:09:44Z</time>
      </trkpt>
      <trkpt lat="44.80359" lon="0.67384">
        <ele>162.413</ele>
        <time>2019-05-07T13:09:47Z</time>
      </trkpt>
      <trkpt lat="44.80354" lon="0.67383">
        <ele>162.367</ele>
        <time>2019-05-07T13:09:49Z</time>
      </trkpt>
      <trkpt lat="44.80349" lon="0.67384">
        <ele>162.297</ele>
        <time>2019-05-07T13:09:52Z</time>
      </trkpt>
      <trkpt lat="44.80345" lon="0.67387">
        <ele>162.226</ele>
        <time>2019-05-07T13:09:55Z</time>
      </trkpt>
      <trkpt lat="44.80342" lon="0.67388">
        <ele>162.181</ele>
        <time>2019-05-07T13:09:57Z</time>
      </trkpt>
      <trkpt lat="44.80338" lon="0.6739">
        <ele>162.111</ele>
        <time>2019-05-07T13:10:00Z</time>
      </trkpt>
      <trkpt lat="44.80332" lon="0.67391">
        <ele>162.02</ele>
        <time>2019-05-07T13:10:04Z</time>
      </trkpt>
      <trkpt lat="44.80328" lon="0.67395">
        <ele>161.953</ele>
        <time>2019-05-07T13:10:07Z</time>
      </trkpt>
      <trkpt lat="44.80325" lon="0.67398">
        <ele>161.908</ele>
        <time>2019-05-07T13:10:09Z</time>
      </trkpt>
      <trkpt lat="44.8032" lon="0.674">
        <ele>161.821</ele>
        <time>2019-05-07T13:10:13Z</time>
      </trkpt>
      <trkpt lat="44.80317" lon="0.67403">
        <ele>161.752</ele>
        <time>2019-05-07T13:10:16Z</time>
      </trkpt>
      <trkpt lat="44.80312" lon="0.67407">
        <ele>161.678</ele>
        <time>2019-05-07T13:10:19Z</time>
      </trkpt>
      <trkpt lat="44.80309" lon="0.67411">
        <ele>161.598</ele>
        <time>2019-05-07T13:10:22Z</time>
      </trkpt>
      <trkpt lat="44.80304" lon="0.67415">
        <ele>161.519</ele>
        <time>2019-05-07T13:10:25Z</time>
      </trkpt>
      <trkpt lat="44.80299" lon="0.67417">
        <ele>161.441</ele>
        <time>2019-05-07T13:10:28Z</time>
      </trkpt>
      <trkpt lat="44.80297" lon="0.67419">
        <ele>161.388</ele>
        <time>2019-05-07T13:10:30Z</time>
      </trkpt>
      <trkpt lat="44.80291" lon="0.67421">
        <ele>161.283</ele>
        <time>2019-05-07T13:10:34Z</time>
      </trkpt>
      <trkpt lat="44.80286" lon="0.67421">
        <ele>161.23</ele>
        <time>2019-05-07T13:10:36Z</time>
      </trkpt>
      <trkpt lat="44.80282" lon="0.67421">
        <ele>161.179</ele>
        <time>2019-05-07T13:10:38Z</time>
      </trkpt>
      <trkpt lat="44.80278" lon="0.67422">
        <ele>161.104</ele>
        <time>2019-05-07T13:10:41Z</time>
      </trkpt>
      <trkpt lat="44.80275" lon="0.67423">
        <ele>161.055</ele>
        <time>2019-05-07T13:10:43Z</time>
      </trkpt>
      <trkpt lat="44.8027" lon="0.67425">
        <ele>160.984</ele>
        <time>2019-05-07T13:10:46Z</time>
      </trkpt>
      <trkpt lat="44.80267" lon="0.67426">
        <ele>160.938</ele>
        <time>2019-05-07T13:10:48Z</time>
      </trkpt>
      <trkpt lat="44.80262" lon="0.67427">
        <ele>160.869</ele>
        <time>2019-05-07T13:10:51Z</time>
      </trkpt>
      <trkpt lat="44.80259" lon="0.67427">
        <ele>160.823</ele>
        <time>2019-05-07T13:10:53Z</time>
      </trkpt>
      <trkpt lat="44.80254" lon="0.67426">
        <ele>160.755</ele>
        <time>2019-05-07T13:10:56Z</time>
      </trkpt>
      <trkpt lat="44.80249" lon="0.67427">
        <ele>160.664</ele>
        <time>2019-05-07T13:11:00Z</time>
      </trkpt>
      <trkpt lat="44.80244" lon="0.6743">
        <ele>160.596</ele>
        <time>2019-05-07T13:11:03Z</time>
      </trkpt>
      <trkpt lat="44.80239" lon="0.6743">
        <ele>160.509</ele>
        <time>2019-05-07T13:11:07Z</time>
      </trkpt>
      <trkpt lat="44.80233" lon="0.67429">
        <ele>160.445</ele>
        <time>2019-05-07T13:11:10Z</time>
      </trkpt>
      <trkpt lat="44.80228" lon="0.6743">
        <ele>160.36</ele>
        <time>2019-05-07T13:11:14Z</time>
      </trkpt>
      <trkpt lat="44.80226" lon="0.67431">
        <ele>160.319</ele>
        <time>2019-05-07T13:11:16Z</time>
      </trkpt>
      <trkpt lat="44.80223" lon="0.67432">
        <ele>160.298</ele>
        <time>2019-05-07T13:11:17Z</time>
      </trkpt>
      <trkpt lat="44.80218" lon="0.67435">
        <ele>160.235</ele>
        <time>2019-05-07T13:11:20Z</time>
      </trkpt>
      <trkpt lat="44.80212" lon="0.67436">
        <ele>160.155</ele>
        <time>2019-05-07T13:11:24Z</time>
      </trkpt>
      <trkpt lat="44.80208" lon="0.67436">
        <ele>160.116</ele>
        <time>2019-05-07T13:11:26Z</time>
      </trkpt>
      <trkpt lat="44.80204" lon="0.67437">
        <ele>160.059</ele>
        <time>2019-05-07T13:11:29Z</time>
      </trkpt>
      <trkpt lat="44.80201" lon="0.67438">
        <ele>160.022</ele>
        <time>2019-05-07T13:11:31Z</time>
      </trkpt>
      <trkpt lat="44.80196" lon="0.6744">
        <ele>159.967</ele>
        <time>2019-05-07T13:11:34Z</time>
      </trkpt>
      <trkpt lat="44.80192" lon="0.67441">
        <ele>159.915</ele>
        <time>2019-05-07T13:11:37Z</time>
      </trkpt>
      <trkpt lat="44.80186" lon="0.67438">
        <ele>159.853</ele>
        <time>2019-05-07T13:11:40Z</time>
      </trkpt>
      <trkpt lat="44.80182" lon="0.67438">
        <ele>159.694</ele>
        <time>2019-05-07T13:11:46Z</time>
      </trkpt>
      <trkpt lat="44.8018" lon="0.67439">
        <ele>159.547</ele>
        <time>2019-05-07T13:11:54Z</time>
      </trkpt>
      <trkpt lat="44.80178" lon="0.67445">
        <ele>158.633</ele>
        <time>2019-05-07T13:12:59Z</time>
      </trkpt>
      <trkpt lat="44.80175" lon="0.6745">
        <ele>158.312</ele>
        <time>2019-05-07T13:13:05Z</time>
      </trkpt>
      <trkpt lat="44.80173" lon="0.67453">
        <ele>158.112</ele>
        <time>2019-05-07T13:13:09Z</time>
      </trkpt>
      <trkpt lat="44.80169" lon="0.67455">
        <ele>157.899</ele>
        <time>2019-05-07T13:13:15Z</time>
      </trkpt>
      <trkpt lat="44.80168" lon="0.67468">
        <ele>156.528</ele>
        <time>2019-05-07T13:14:08Z</time>
      </trkpt>
      <trkpt lat="44.80171" lon="0.67474">
        <ele>156.116</ele>
        <time>2019-05-07T13:14:14Z</time>
      </trkpt>
      <trkpt lat="44.80172" lon="0.6748">
        <ele>155.919</ele>
        <time>2019-05-07T13:14:17Z</time>
      </trkpt>
      <trkpt lat="44.80173" lon="0.67483">
        <ele>155.854</ele>
        <time>2019-05-07T13:14:18Z</time>
      </trkpt>
      <trkpt lat="44.80174" lon="0.67487">
        <ele>155.725</ele>
        <time>2019-05-07T13:14:20Z</time>
      </trkpt>
      <trkpt lat="44.80177" lon="0.67493">
        <ele>155.533</ele>
        <time>2019-05-07T13:14:23Z</time>
      </trkpt>
      <trkpt lat="44.8018" lon="0.67499">
        <ele>155.346</ele>
        <time>2019-05-07T13:14:26Z</time>
      </trkpt>
      <trkpt lat="44.80182" lon="0.67505">
        <ele>155.223</ele>
        <time>2019-05-07T13:14:28Z</time>
      </trkpt>
      <trkpt lat="44.80184" lon="0.67509">
        <ele>155.102</ele>
        <time>2019-05-07T13:14:30Z</time>
      </trkpt>
      <trkpt lat="44.80185" lon="0.67513">
        <ele>154.981</ele>
        <time>2019-05-07T13:14:32Z</time>
      </trkpt>
      <trkpt lat="44.80185" lon="0.67518">
        <ele>154.863</ele>
        <time>2019-05-07T13:14:34Z</time>
      </trkpt>
      <trkpt lat="44.80186" lon="0.67523">
        <ele>154.747</ele>
        <time>2019-05-07T13:14:36Z</time>
      </trkpt>
      <trkpt lat="44.80187" lon="0.67527">
        <ele>154.634</ele>
        <time>2019-05-07T13:14:38Z</time>
      </trkpt>
      <trkpt lat="44.80188" lon="0.67532">
        <ele>154.522</ele>
        <time>2019-05-07T13:14:40Z</time>
      </trkpt>
      <trkpt lat="44.80189" lon="0.67537">
        <ele>154.356</ele>
        <time>2019-05-07T13:14:43Z</time>
      </trkpt>
      <trkpt lat="44.80191" lon="0.67542">
        <ele>154.195</ele>
        <time>2019-05-07T13:14:46Z</time>
      </trkpt>
      <trkpt lat="44.80191" lon="0.67546">
        <ele>154.09</ele>
        <time>2019-05-07T13:14:48Z</time>
      </trkpt>
      <trkpt lat="44.80192" lon="0.6755">
        <ele>153.987</ele>
        <time>2019-05-07T13:14:50Z</time>
      </trkpt>
      <trkpt lat="44.80193" lon="0.67553">
        <ele>153.886</ele>
        <time>2019-05-07T13:14:52Z</time>
      </trkpt>
      <trkpt lat="44.80194" lon="0.67558">
        <ele>153.787</ele>
        <time>2019-05-07T13:14:54Z</time>
      </trkpt>
      <trkpt lat="44.80195" lon="0.67561">
        <ele>153.69</ele>
        <time>2019-05-07T13:14:56Z</time>
      </trkpt>
      <trkpt lat="44.80197" lon="0.67568">
        <ele>153.505</ele>
        <time>2019-05-07T13:15:00Z</time>
      </trkpt>
      <trkpt lat="44.80198" lon="0.67572">
        <ele>153.415</ele>
        <time>2019-05-07T13:15:02Z</time>
      </trkpt>
      <trkpt lat="44.80199" lon="0.67579">
        <ele>153.106</ele>
        <time>2019-05-07T13:15:09Z</time>
      </trkpt>
      <trkpt lat="44.80202" lon="0.67586">
        <ele>152.934</ele>
        <time>2019-05-07T13:15:13Z</time>
      </trkpt>
      <trkpt lat="44.80203" lon="0.6759">
        <ele>152.851</ele>
        <time>2019-05-07T13:15:15Z</time>
      </trkpt>
      <trkpt lat="44.80204" lon="0.67595">
        <ele>152.77</ele>
        <time>2019-05-07T13:15:17Z</time>
      </trkpt>
      <trkpt lat="44.80206" lon="0.67601">
        <ele>152.61</ele>
        <time>2019-05-07T13:15:21Z</time>
      </trkpt>
      <trkpt lat="44.80209" lon="0.67607">
        <ele>152.374</ele>
        <time>2019-05-07T13:15:27Z</time>
      </trkpt>
      <trkpt lat="44.80213" lon="0.67611">
        <ele>152.26</ele>
        <time>2019-05-07T13:15:30Z</time>
      </trkpt>
      <trkpt lat="44.80215" lon="0.67613">
        <ele>152.185</ele>
        <time>2019-05-07T13:15:32Z</time>
      </trkpt>
      <trkpt lat="44.80219" lon="0.67618">
        <ele>152.004</ele>
        <time>2019-05-07T13:15:37Z</time>
      </trkpt>
      <trkpt lat="44.80222" lon="0.67621">
        <ele>151.934</ele>
        <time>2019-05-07T13:15:39Z</time>
      </trkpt>
      <trkpt lat="44.80225" lon="0.67624">
        <ele>151.831</ele>
        <time>2019-05-07T13:15:42Z</time>
      </trkpt>
      <trkpt lat="44.8023" lon="0.67627">
        <ele>151.698</ele>
        <time>2019-05-07T13:15:46Z</time>
      </trkpt>
      <trkpt lat="44.80233" lon="0.67628">
        <ele>151.632</ele>
        <time>2019-05-07T13:15:48Z</time>
      </trkpt>
      <trkpt lat="44.80237" lon="0.67629">
        <ele>151.567</ele>
        <time>2019-05-07T13:15:50Z</time>
      </trkpt>
      <trkpt lat="44.80242" lon="0.67631">
        <ele>151.471</ele>
        <time>2019-05-07T13:15:53Z</time>
      </trkpt>
      <trkpt lat="44.80247" lon="0.67632">
        <ele>151.376</ele>
        <time>2019-05-07T13:15:56Z</time>
      </trkpt>
      <trkpt lat="44.80252" lon="0.67634">
        <ele>151.25</ele>
        <time>2019-05-07T13:16:00Z</time>
      </trkpt>
      <trkpt lat="44.80257" lon="0.67636">
        <ele>151.152</ele>
        <time>2019-05-07T13:16:03Z</time>
      </trkpt>
      <trkpt lat="44.80259" lon="0.67637">
        <ele>151.083</ele>
        <time>2019-05-07T13:16:05Z</time>
      </trkpt>
      <trkpt lat="44.80262" lon="0.67638">
        <ele>150.979</ele>
        <time>2019-05-07T13:16:08Z</time>
      </trkpt>
      <trkpt lat="44.80266" lon="0.6764">
        <ele>150.837</ele>
        <time>2019-05-07T13:16:12Z</time>
      </trkpt>
      <trkpt lat="44.8027" lon="0.67645">
        <ele>150.694</ele>
        <time>2019-05-07T13:16:16Z</time>
      </trkpt>
      <trkpt lat="44.80268" lon="0.6765">
        <ele>150.394</ele>
        <time>2019-05-07T13:16:25Z</time>
      </trkpt>
      <trkpt lat="44.80265" lon="0.67655">
        <ele>150.241</ele>
        <time>2019-05-07T13:16:30Z</time>
      </trkpt>
      <trkpt lat="44.80262" lon="0.67659">
        <ele>150.181</ele>
        <time>2019-05-07T13:16:32Z</time>
      </trkpt>
      <trkpt lat="44.8026" lon="0.67663">
        <ele>150.123</ele>
        <time>2019-05-07T13:16:34Z</time>
      </trkpt>
      <trkpt lat="44.80258" lon="0.67666">
        <ele>150.067</ele>
        <time>2019-05-07T13:16:36Z</time>
      </trkpt>
      <trkpt lat="44.80255" lon="0.67669">
        <ele>150.013</ele>
        <time>2019-05-07T13:16:38Z</time>
      </trkpt>
      <trkpt lat="44.80253" lon="0.67673">
        <ele>149.959</ele>
        <time>2019-05-07T13:16:40Z</time>
      </trkpt>
      <trkpt lat="44.80248" lon="0.67677">
        <ele>149.882</ele>
        <time>2019-05-07T13:16:43Z</time>
      </trkpt>
      <trkpt lat="44.80245" lon="0.67679">
        <ele>149.833</ele>
        <time>2019-05-07T13:16:45Z</time>
      </trkpt>
      <trkpt lat="44.80243" lon="0.67681">
        <ele>149.785</ele>
        <time>2019-05-07T13:16:47Z</time>
      </trkpt>
      <trkpt lat="44.80238" lon="0.67684">
        <ele>149.716</ele>
        <time>2019-05-07T13:16:50Z</time>
      </trkpt>
      <trkpt lat="44.80235" lon="0.6769">
        <ele>149.649</ele>
        <time>2019-05-07T13:16:53Z</time>
      </trkpt>
      <trkpt lat="44.80232" lon="0.67695">
        <ele>149.605</ele>
        <time>2019-05-07T13:16:55Z</time>
      </trkpt>
      <trkpt lat="44.8023" lon="0.67698">
        <ele>149.562</ele>
        <time>2019-05-07T13:16:57Z</time>
      </trkpt>
      <trkpt lat="44.80227" lon="0.67702">
        <ele>149.52</ele>
        <time>2019-05-07T13:16:59Z</time>
      </trkpt>
      <trkpt lat="44.80223" lon="0.67708">
        <ele>149.438</ele>
        <time>2019-05-07T13:17:03Z</time>
      </trkpt>
      <trkpt lat="44.8022" lon="0.67711">
        <ele>149.399</ele>
        <time>2019-05-07T13:17:05Z</time>
      </trkpt>
      <trkpt lat="44.80218" lon="0.67714">
        <ele>149.36</ele>
        <time>2019-05-07T13:17:07Z</time>
      </trkpt>
      <trkpt lat="44.80217" lon="0.67716">
        <ele>149.322</ele>
        <time>2019-05-07T13:17:09Z</time>
      </trkpt>
      <trkpt lat="44.80213" lon="0.67719">
        <ele>149.266</ele>
        <time>2019-05-07T13:17:12Z</time>
      </trkpt>
      <trkpt lat="44.80208" lon="0.67722">
        <ele>149.211</ele>
        <time>2019-05-07T13:17:15Z</time>
      </trkpt>
      <trkpt lat="44.80204" lon="0.67726">
        <ele>149.156</ele>
        <time>2019-05-07T13:17:18Z</time>
      </trkpt>
      <trkpt lat="44.80201" lon="0.6773">
        <ele>149.101</ele>
        <time>2019-05-07T13:17:21Z</time>
      </trkpt>
      <trkpt lat="44.80195" lon="0.67736">
        <ele>149.045</ele>
        <time>2019-05-07T13:17:24Z</time>
      </trkpt>
      <trkpt lat="44.80192" lon="0.67741">
        <ele>149.006</ele>
        <time>2019-05-07T13:17:26Z</time>
      </trkpt>
      <trkpt lat="44.80189" lon="0.67745">
        <ele>148.965</ele>
        <time>2019-05-07T13:17:28Z</time>
      </trkpt>
      <trkpt lat="44.80186" lon="0.67748">
        <ele>148.922</ele>
        <time>2019-05-07T13:17:30Z</time>
      </trkpt>
      <trkpt lat="44.80182" lon="0.67752">
        <ele>148.834</ele>
        <time>2019-05-07T13:17:34Z</time>
      </trkpt>
      <trkpt lat="44.80179" lon="0.67755">
        <ele>148.768</ele>
        <time>2019-05-07T13:17:37Z</time>
      </trkpt>
      <trkpt lat="44.80173" lon="0.67757">
        <ele>148.656</ele>
        <time>2019-05-07T13:17:42Z</time>
      </trkpt>
      <trkpt lat="44.80168" lon="0.6776">
        <ele>148.557</ele>
        <time>2019-05-07T13:17:46Z</time>
      </trkpt>
      <trkpt lat="44.80165" lon="0.67762">
        <ele>148.504</ele>
        <time>2019-05-07T13:17:48Z</time>
      </trkpt>
      <trkpt lat="44.8016" lon="0.67762">
        <ele>148.419</ele>
        <time>2019-05-07T13:17:51Z</time>
      </trkpt>
      <trkpt lat="44.80155" lon="0.67763">
        <ele>148.326</ele>
        <time>2019-05-07T13:17:54Z</time>
      </trkpt>
      <trkpt lat="44.80152" lon="0.67764">
        <ele>148.262</ele>
        <time>2019-05-07T13:17:56Z</time>
      </trkpt>
      <trkpt lat="44.80147" lon="0.67762">
        <ele>148.163</ele>
        <time>2019-05-07T13:17:59Z</time>
      </trkpt>
      <trkpt lat="44.80142" lon="0.67761">
        <ele>148.059</ele>
        <time>2019-05-07T13:18:02Z</time>
      </trkpt>
      <trkpt lat="44.8014" lon="0.67761">
        <ele>148.023</ele>
        <time>2019-05-07T13:18:03Z</time>
      </trkpt>
      <trkpt lat="44.80137" lon="0.6776">
        <ele>147.987</ele>
        <time>2019-05-07T13:18:04Z</time>
      </trkpt>
      <trkpt lat="44.80134" lon="0.67759">
        <ele>147.914</ele>
        <time>2019-05-07T13:18:06Z</time>
      </trkpt>
      <trkpt lat="44.80129" lon="0.6776">
        <ele>147.807</ele>
        <time>2019-05-07T13:18:09Z</time>
      </trkpt>
      <trkpt lat="44.80126" lon="0.67761">
        <ele>147.737</ele>
        <time>2019-05-07T13:18:11Z</time>
      </trkpt>
      <trkpt lat="44.80121" lon="0.67761">
        <ele>147.561</ele>
        <time>2019-05-07T13:18:16Z</time>
      </trkpt>
      <trkpt lat="44.80118" lon="0.6776">
        <ele>147.457</ele>
        <time>2019-05-07T13:18:19Z</time>
      </trkpt>
      <trkpt lat="44.80115" lon="0.6776">
        <ele>147.388</ele>
        <time>2019-05-07T13:18:21Z</time>
      </trkpt>
      <trkpt lat="44.80109" lon="0.67759">
        <ele>147.286</ele>
        <time>2019-05-07T13:18:24Z</time>
      </trkpt>
      <trkpt lat="44.80106" lon="0.67759">
        <ele>147.252</ele>
        <time>2019-05-07T13:18:25Z</time>
      </trkpt>
      <trkpt lat="44.80102" lon="0.67759">
        <ele>147.183</ele>
        <time>2019-05-07T13:18:27Z</time>
      </trkpt>
      <trkpt lat="44.80095" lon="0.67758">
        <ele>147.08</ele>
        <time>2019-05-07T13:18:30Z</time>
      </trkpt>
      <trkpt lat="44.8009" lon="0.67758">
        <ele>146.938</ele>
        <time>2019-05-07T13:18:34Z</time>
      </trkpt>
      <trkpt lat="44.80085" lon="0.67761">
        <ele>146.763</ele>
        <time>2019-05-07T13:18:39Z</time>
      </trkpt>
      <trkpt lat="44.8008" lon="0.67764">
        <ele>146.632</ele>
        <time>2019-05-07T13:18:43Z</time>
      </trkpt>
      <trkpt lat="44.80076" lon="0.67768">
        <ele>146.539</ele>
        <time>2019-05-07T13:18:46Z</time>
      </trkpt>
      <trkpt lat="44.80072" lon="0.67772">
        <ele>146.417</ele>
        <time>2019-05-07T13:18:50Z</time>
      </trkpt>
      <trkpt lat="44.80069" lon="0.67774">
        <ele>146.297</ele>
        <time>2019-05-07T13:18:54Z</time>
      </trkpt>
      <trkpt lat="44.80065" lon="0.6778">
        <ele>146.16</ele>
        <time>2019-05-07T13:18:59Z</time>
      </trkpt>
      <trkpt lat="44.80063" lon="0.67783">
        <ele>146.079</ele>
        <time>2019-05-07T13:19:02Z</time>
      </trkpt>
      <trkpt lat="44.80061" lon="0.6779">
        <ele>145.972</ele>
        <time>2019-05-07T13:19:06Z</time>
      </trkpt>
      <trkpt lat="44.80058" lon="0.67797">
        <ele>145.845</ele>
        <time>2019-05-07T13:19:11Z</time>
      </trkpt>
      <trkpt lat="44.80054" lon="0.67802">
        <ele>145.721</ele>
        <time>2019-05-07T13:19:16Z</time>
      </trkpt>
      <trkpt lat="44.80051" lon="0.67807">
        <ele>145.674</ele>
        <time>2019-05-07T13:19:18Z</time>
      </trkpt>
      <trkpt lat="44.8005" lon="0.6781">
        <ele>145.651</ele>
        <time>2019-05-07T13:19:19Z</time>
      </trkpt>
      <trkpt lat="44.80047" lon="0.67817">
        <ele>145.579</ele>
        <time>2019-05-07T13:19:22Z</time>
      </trkpt>
      <trkpt lat="44.8004" lon="0.67823">
        <ele>145.462</ele>
        <time>2019-05-07T13:19:27Z</time>
      </trkpt>
      <trkpt lat="44.80037" lon="0.67828">
        <ele>145.396</ele>
        <time>2019-05-07T13:19:30Z</time>
      </trkpt>
      <trkpt lat="44.80033" lon="0.67831">
        <ele>145.332</ele>
        <time>2019-05-07T13:19:33Z</time>
      </trkpt>
      <trkpt lat="44.80031" lon="0.67834">
        <ele>145.291</ele>
        <time>2019-05-07T13:19:35Z</time>
      </trkpt>
      <trkpt lat="44.80028" lon="0.67837">
        <ele>145.251</ele>
        <time>2019-05-07T13:19:37Z</time>
      </trkpt>
      <trkpt lat="44.80025" lon="0.67841">
        <ele>145.212</ele>
        <time>2019-05-07T13:19:39Z</time>
      </trkpt>
      <trkpt lat="44.80021" lon="0.67846">
        <ele>145.153</ele>
        <time>2019-05-07T13:19:42Z</time>
      </trkpt>
      <trkpt lat="44.80016" lon="0.67851">
        <ele>145.077</ele>
        <time>2019-05-07T13:19:46Z</time>
      </trkpt>
      <trkpt lat="44.80013" lon="0.67854">
        <ele>145.039</ele>
        <time>2019-05-07T13:19:48Z</time>
      </trkpt>
      <trkpt lat="44.80009" lon="0.67857">
        <ele>144.983</ele>
        <time>2019-05-07T13:19:51Z</time>
      </trkpt>
      <trkpt lat="44.80005" lon="0.67861">
        <ele>144.927</ele>
        <time>2019-05-07T13:19:54Z</time>
      </trkpt>
      <trkpt lat="44.80001" lon="0.67863">
        <ele>144.871</ele>
        <time>2019-05-07T13:19:57Z</time>
      </trkpt>
      <trkpt lat="44.79997" lon="0.67867">
        <ele>144.816</ele>
        <time>2019-05-07T13:20:00Z</time>
      </trkpt>
      <trkpt lat="44.79994" lon="0.67871">
        <ele>144.761</ele>
        <time>2019-05-07T13:20:03Z</time>
      </trkpt>
      <trkpt lat="44.79991" lon="0.67873">
        <ele>144.725</ele>
        <time>2019-05-07T13:20:05Z</time>
      </trkpt>
      <trkpt lat="44.79985" lon="0.67874">
        <ele>144.635</ele>
        <time>2019-05-07T13:20:10Z</time>
      </trkpt>
      <trkpt lat="44.79981" lon="0.67878">
        <ele>144.564</ele>
        <time>2019-05-07T13:20:14Z</time>
      </trkpt>
      <trkpt lat="44.79976" lon="0.67881">
        <ele>144.511</ele>
        <time>2019-05-07T13:20:17Z</time>
      </trkpt>
      <trkpt lat="44.79972" lon="0.67883">
        <ele>144.441</ele>
        <time>2019-05-07T13:20:21Z</time>
      </trkpt>
      <trkpt lat="44.79968" lon="0.67887">
        <ele>144.387</ele>
        <time>2019-05-07T13:20:24Z</time>
      </trkpt>
      <trkpt lat="44.79964" lon="0.67889">
        <ele>144.314</ele>
        <time>2019-05-07T13:20:28Z</time>
      </trkpt>
      <trkpt lat="44.7996" lon="0.67893">
        <ele>144.239</ele>
        <time>2019-05-07T13:20:32Z</time>
      </trkpt>
      <trkpt lat="44.79955" lon="0.67895">
        <ele>144.182</ele>
        <time>2019-05-07T13:20:35Z</time>
      </trkpt>
      <trkpt lat="44.79951" lon="0.679">
        <ele>144.125</ele>
        <time>2019-05-07T13:20:38Z</time>
      </trkpt>
      <trkpt lat="44.79947" lon="0.67902">
        <ele>144.066</ele>
        <time>2019-05-07T13:20:41Z</time>
      </trkpt>
      <trkpt lat="44.79943" lon="0.67906">
        <ele>143.981</ele>
        <time>2019-05-07T13:20:45Z</time>
      </trkpt>
      <trkpt lat="44.7994" lon="0.67909">
        <ele>143.893</ele>
        <time>2019-05-07T13:20:49Z</time>
      </trkpt>
      <trkpt lat="44.79935" lon="0.67912">
        <ele>143.781</ele>
        <time>2019-05-07T13:20:54Z</time>
      </trkpt>
      <trkpt lat="44.79932" lon="0.67917">
        <ele>143.695</ele>
        <time>2019-05-07T13:20:58Z</time>
      </trkpt>
      <trkpt lat="44.79929" lon="0.67926">
        <ele>143.651</ele>
        <time>2019-05-07T13:21:00Z</time>
      </trkpt>
      <trkpt lat="44.79928" lon="0.67931">
        <ele>143.629</ele>
        <time>2019-05-07T13:21:01Z</time>
      </trkpt>
      <trkpt lat="44.79925" lon="0.67936">
        <ele>143.54</ele>
        <time>2019-05-07T13:21:05Z</time>
      </trkpt>
      <trkpt lat="44.79923" lon="0.67939">
        <ele>143.496</ele>
        <time>2019-05-07T13:21:07Z</time>
      </trkpt>
      <trkpt lat="44.79922" lon="0.67946">
        <ele>143.426</ele>
        <time>2019-05-07T13:21:10Z</time>
      </trkpt>
      <trkpt lat="44.79921" lon="0.67951">
        <ele>143.402</ele>
        <time>2019-05-07T13:21:11Z</time>
      </trkpt>
      <trkpt lat="44.79917" lon="0.67956">
        <ele>143.328</ele>
        <time>2019-05-07T13:21:14Z</time>
      </trkpt>
      <trkpt lat="44.79914" lon="0.6796">
        <ele>143.278</ele>
        <time>2019-05-07T13:21:16Z</time>
      </trkpt>
      <trkpt lat="44.79911" lon="0.67968">
        <ele>143.202</ele>
        <time>2019-05-07T13:21:19Z</time>
      </trkpt>
      <trkpt lat="44.7991" lon="0.67972">
        <ele>143.152</ele>
        <time>2019-05-07T13:21:21Z</time>
      </trkpt>
      <trkpt lat="44.79909" lon="0.67982">
        <ele>143.075</ele>
        <time>2019-05-07T13:21:24Z</time>
      </trkpt>
      <trkpt lat="44.79909" lon="0.67987">
        <ele>143.023</ele>
        <time>2019-05-07T13:21:26Z</time>
      </trkpt>
      <trkpt lat="44.79906" lon="0.67992">
        <ele>142.89</ele>
        <time>2019-05-07T13:21:31Z</time>
      </trkpt>
      <trkpt lat="44.79905" lon="0.67999">
        <ele>142.779</ele>
        <time>2019-05-07T13:21:35Z</time>
      </trkpt>
      <trkpt lat="44.79903" lon="0.68005">
        <ele>142.696</ele>
        <time>2019-05-07T13:21:38Z</time>
      </trkpt>
      <trkpt lat="44.799" lon="0.6801">
        <ele>142.554</ele>
        <time>2019-05-07T13:21:43Z</time>
      </trkpt>
      <trkpt lat="44.79898" lon="0.68019">
        <ele>142.441</ele>
        <time>2019-05-07T13:21:47Z</time>
      </trkpt>
      <trkpt lat="44.79895" lon="0.68026">
        <ele>142.36</ele>
        <time>2019-05-07T13:21:50Z</time>
      </trkpt>
      <trkpt lat="44.79893" lon="0.68029">
        <ele>142.277</ele>
        <time>2019-05-07T13:21:53Z</time>
      </trkpt>
      <trkpt lat="44.79892" lon="0.68036">
        <ele>142.165</ele>
        <time>2019-05-07T13:21:57Z</time>
      </trkpt>
      <trkpt lat="44.79889" lon="0.68043">
        <ele>142.031</ele>
        <time>2019-05-07T13:22:02Z</time>
      </trkpt>
      <trkpt lat="44.79887" lon="0.68049">
        <ele>141.954</ele>
        <time>2019-05-07T13:22:05Z</time>
      </trkpt>
      <trkpt lat="44.79885" lon="0.68056">
        <ele>141.878</ele>
        <time>2019-05-07T13:22:08Z</time>
      </trkpt>
      <trkpt lat="44.79884" lon="0.68062">
        <ele>141.778</ele>
        <time>2019-05-07T13:22:12Z</time>
      </trkpt>
      <trkpt lat="44.79884" lon="0.68069">
        <ele>141.682</ele>
        <time>2019-05-07T13:22:16Z</time>
      </trkpt>
      <trkpt lat="44.79882" lon="0.68075">
        <ele>141.588</ele>
        <time>2019-05-07T13:22:20Z</time>
      </trkpt>
      <trkpt lat="44.79883" lon="0.68083">
        <ele>141.449</ele>
        <time>2019-05-07T13:22:26Z</time>
      </trkpt>
      <trkpt lat="44.79881" lon="0.68089">
        <ele>141.359</ele>
        <time>2019-05-07T13:22:31Z</time>
      </trkpt>
      <trkpt lat="44.79879" lon="0.68097">
        <ele>141.292</ele>
        <time>2019-05-07T13:22:35Z</time>
      </trkpt>
      <trkpt lat="44.7988" lon="0.68105">
        <ele>141.18</ele>
        <time>2019-05-07T13:22:40Z</time>
      </trkpt>
      <trkpt lat="44.79879" lon="0.68112">
        <ele>141.047</ele>
        <time>2019-05-07T13:22:46Z</time>
      </trkpt>
      <trkpt lat="44.79879" lon="0.68117">
        <ele>141.002</ele>
        <time>2019-05-07T13:22:48Z</time>
      </trkpt>
      <trkpt lat="44.79879" lon="0.68125">
        <ele>140.937</ele>
        <time>2019-05-07T13:22:51Z</time>
      </trkpt>
      <trkpt lat="44.7988" lon="0.68132">
        <ele>140.874</ele>
        <time>2019-05-07T13:22:54Z</time>
      </trkpt>
      <trkpt lat="44.7988" lon="0.68136">
        <ele>140.832</ele>
        <time>2019-05-07T13:22:56Z</time>
      </trkpt>
      <trkpt lat="44.7988" lon="0.68143">
        <ele>140.77</ele>
        <time>2019-05-07T13:22:59Z</time>
      </trkpt>
      <trkpt lat="44.79882" lon="0.68149">
        <ele>140.708</ele>
        <time>2019-05-07T13:23:02Z</time>
      </trkpt>
      <trkpt lat="44.79883" lon="0.68154">
        <ele>140.667</ele>
        <time>2019-05-07T13:23:04Z</time>
      </trkpt>
      <trkpt lat="44.79884" lon="0.68162">
        <ele>140.605</ele>
        <time>2019-05-07T13:23:07Z</time>
      </trkpt>
      <trkpt lat="44.7988" lon="0.6817">
        <ele>140.564</ele>
        <time>2019-05-07T13:23:09Z</time>
      </trkpt>
      <trkpt lat="44.79878" lon="0.68174">
        <ele>140.525</ele>
        <time>2019-05-07T13:23:11Z</time>
      </trkpt>
      <trkpt lat="44.79878" lon="0.68182">
        <ele>140.468</ele>
        <time>2019-05-07T13:23:14Z</time>
      </trkpt>
      <trkpt lat="44.79878" lon="0.68186">
        <ele>140.43</ele>
        <time>2019-05-07T13:23:16Z</time>
      </trkpt>
      <trkpt lat="44.79878" lon="0.68193">
        <ele>140.372</ele>
        <time>2019-05-07T13:23:19Z</time>
      </trkpt>
      <trkpt lat="44.79878" lon="0.682">
        <ele>140.313</ele>
        <time>2019-05-07T13:23:22Z</time>
      </trkpt>
      <trkpt lat="44.79878" lon="0.68204">
        <ele>140.273</ele>
        <time>2019-05-07T13:23:24Z</time>
      </trkpt>
      <trkpt lat="44.79878" lon="0.68208">
        <ele>140.235</ele>
        <time>2019-05-07T13:23:26Z</time>
      </trkpt>
      <trkpt lat="44.7988" lon="0.68214">
        <ele>140.18</ele>
        <time>2019-05-07T13:23:29Z</time>
      </trkpt>
      <trkpt lat="44.79879" lon="0.68223">
        <ele>140.11</ele>
        <time>2019-05-07T13:23:33Z</time>
      </trkpt>
      <trkpt lat="44.79878" lon="0.68226">
        <ele>140.075</ele>
        <time>2019-05-07T13:23:35Z</time>
      </trkpt>
      <trkpt lat="44.79878" lon="0.6823">
        <ele>140.041</ele>
        <time>2019-05-07T13:23:37Z</time>
      </trkpt>
      <trkpt lat="44.79878" lon="0.68235">
        <ele>140.007</ele>
        <time>2019-05-07T13:23:39Z</time>
      </trkpt>
      <trkpt lat="44.79878" lon="0.68239">
        <ele>139.975</ele>
        <time>2019-05-07T13:23:41Z</time>
      </trkpt>
      <trkpt lat="44.79878" lon="0.68245">
        <ele>139.93</ele>
        <time>2019-05-07T13:23:44Z</time>
      </trkpt>
      <trkpt lat="44.79878" lon="0.68251">
        <ele>139.901</ele>
        <time>2019-05-07T13:23:46Z</time>
      </trkpt>
      <trkpt lat="44.79879" lon="0.68256">
        <ele>139.872</ele>
        <time>2019-05-07T13:23:48Z</time>
      </trkpt>
      <trkpt lat="44.79879" lon="0.68263">
        <ele>139.821</ele>
        <time>2019-05-07T13:23:52Z</time>
      </trkpt>
      <trkpt lat="44.79879" lon="0.68272">
        <ele>139.766</ele>
        <time>2019-05-07T13:23:57Z</time>
      </trkpt>
      <trkpt lat="44.79878" lon="0.68278">
        <ele>139.736</ele>
        <time>2019-05-07T13:24:00Z</time>
      </trkpt>
      <trkpt lat="44.79877" lon="0.68282">
        <ele>139.717</ele>
        <time>2019-05-07T13:24:02Z</time>
      </trkpt>
      <trkpt lat="44.79877" lon="0.68286">
        <ele>139.698</ele>
        <time>2019-05-07T13:24:04Z</time>
      </trkpt>
      <trkpt lat="44.79876" lon="0.6829">
        <ele>139.658</ele>
        <time>2019-05-07T13:24:08Z</time>
      </trkpt>
      <trkpt lat="44.79881" lon="0.68296">
        <ele>139.605</ele>
        <time>2019-05-07T13:24:13Z</time>
      </trkpt>
      <trkpt lat="44.79882" lon="0.68298">
        <ele>139.584</ele>
        <time>2019-05-07T13:24:15Z</time>
      </trkpt>
      <trkpt lat="44.79885" lon="0.68302">
        <ele>139.554</ele>
        <time>2019-05-07T13:24:18Z</time>
      </trkpt>
      <trkpt lat="44.79889" lon="0.68309">
        <ele>139.516</ele>
        <time>2019-05-07T13:24:22Z</time>
      </trkpt>
      <trkpt lat="44.7989" lon="0.68315">
        <ele>139.48</ele>
        <time>2019-05-07T13:24:26Z</time>
      </trkpt>
      <trkpt lat="44.7989" lon="0.68322">
        <ele>139.442</ele>
        <time>2019-05-07T13:24:30Z</time>
      </trkpt>
      <trkpt lat="44.79892" lon="0.68327">
        <ele>139.399</ele>
        <time>2019-05-07T13:24:34Z</time>
      </trkpt>
      <trkpt lat="44.79893" lon="0.68331">
        <ele>139.375</ele>
        <time>2019-05-07T13:24:36Z</time>
      </trkpt>
      <trkpt lat="44.79895" lon="0.68337">
        <ele>139.338</ele>
        <time>2019-05-07T13:24:39Z</time>
      </trkpt>
      <trkpt lat="44.79895" lon="0.68343">
        <ele>139.286</ele>
        <time>2019-05-07T13:24:43Z</time>
      </trkpt>
      <trkpt lat="44.79898" lon="0.68352">
        <ele>139.238</ele>
        <time>2019-05-07T13:24:47Z</time>
      </trkpt>
      <trkpt lat="44.79901" lon="0.68359">
        <ele>139.206</ele>
        <time>2019-05-07T13:24:50Z</time>
      </trkpt>
      <trkpt lat="44.79903" lon="0.68366">
        <ele>139.154</ele>
        <time>2019-05-07T13:24:55Z</time>
      </trkpt>
      <trkpt lat="44.79905" lon="0.68371">
        <ele>139.124</ele>
        <time>2019-05-07T13:24:58Z</time>
      </trkpt>
      <trkpt lat="44.79906" lon="0.68374">
        <ele>139.105</ele>
        <time>2019-05-07T13:25:01Z</time>
      </trkpt>
      <trkpt lat="44.79907" lon="0.68381">
        <ele>139.062</ele>
        <time>2019-05-07T13:25:08Z</time>
      </trkpt>
      <trkpt lat="44.79911" lon="0.68386">
        <ele>139.049</ele>
        <time>2019-05-07T13:25:12Z</time>
      </trkpt>
      <trkpt lat="44.79914" lon="0.68392">
        <ele>139.047</ele>
        <time>2019-05-07T13:25:18Z</time>
      </trkpt>
      <trkpt lat="44.79915" lon="0.68395">
        <ele>139.063</ele>
        <time>2019-05-07T13:25:23Z</time>
      </trkpt>
      <trkpt lat="44.79919" lon="0.684">
        <ele>139.088</ele>
        <time>2019-05-07T13:25:27Z</time>
      </trkpt>
      <trkpt lat="44.79921" lon="0.68406">
        <ele>139.174</ele>
        <time>2019-05-07T13:25:35Z</time>
      </trkpt>
      <trkpt lat="44.79922" lon="0.6841">
        <ele>139.219</ele>
        <time>2019-05-07T13:25:38Z</time>
      </trkpt>
      <trkpt lat="44.79923" lon="0.68416">
        <ele>139.263</ele>
        <time>2019-05-07T13:25:41Z</time>
      </trkpt>
      <trkpt lat="44.79924" lon="0.6842">
        <ele>139.32</ele>
        <time>2019-05-07T13:25:45Z</time>
      </trkpt>
      <trkpt lat="44.79926" lon="0.68426">
        <ele>139.377</ele>
        <time>2019-05-07T13:25:50Z</time>
      </trkpt>
      <trkpt lat="44.79929" lon="0.68432">
        <ele>139.42</ele>
        <time>2019-05-07T13:25:53Z</time>
      </trkpt>
      <trkpt lat="44.79934" lon="0.68437">
        <ele>139.503</ele>
        <time>2019-05-07T13:25:58Z</time>
      </trkpt>
      <trkpt lat="44.79936" lon="0.6844">
        <ele>139.539</ele>
        <time>2019-05-07T13:26:00Z</time>
      </trkpt>
      <trkpt lat="44.79939" lon="0.68444">
        <ele>139.597</ele>
        <time>2019-05-07T13:26:04Z</time>
      </trkpt>
      <trkpt lat="44.79943" lon="0.68449">
        <ele>139.757</ele>
        <time>2019-05-07T13:26:12Z</time>
      </trkpt>
      <trkpt lat="44.79946" lon="0.68454">
        <ele>139.868</ele>
        <time>2019-05-07T13:26:17Z</time>
      </trkpt>
      <trkpt lat="44.79945" lon="0.68465">
        <ele>139.945</ele>
        <time>2019-05-07T13:26:20Z</time>
      </trkpt>
      <trkpt lat="44.79947" lon="0.68471">
        <ele>140.029</ele>
        <time>2019-05-07T13:26:23Z</time>
      </trkpt>
      <trkpt lat="44.7995" lon="0.68477">
        <ele>140.19</ele>
        <time>2019-05-07T13:26:28Z</time>
      </trkpt>
      <trkpt lat="44.79952" lon="0.6848">
        <ele>140.261</ele>
        <time>2019-05-07T13:26:30Z</time>
      </trkpt>
      <trkpt lat="44.79956" lon="0.68485">
        <ele>140.447</ele>
        <time>2019-05-07T13:26:35Z</time>
      </trkpt>
      <trkpt lat="44.79961" lon="0.68489">
        <ele>140.652</ele>
        <time>2019-05-07T13:26:40Z</time>
      </trkpt>
      <trkpt lat="44.79964" lon="0.68494">
        <ele>140.868</ele>
        <time>2019-05-07T13:26:45Z</time>
      </trkpt>
      <trkpt lat="44.79968" lon="0.68498">
        <ele>141.102</ele>
        <time>2019-05-07T13:26:50Z</time>
      </trkpt>
      <trkpt lat="44.79972" lon="0.68507">
        <ele>141.242</ele>
        <time>2019-05-07T13:26:53Z</time>
      </trkpt>
      <trkpt lat="44.79974" lon="0.6851">
        <ele>141.294</ele>
        <time>2019-05-07T13:26:55Z</time>
      </trkpt>
      <trkpt lat="44.79975" lon="0.68512">
        <ele>141.655</ele>
        <time>2019-05-07T13:27:02Z</time>
      </trkpt>
      <trkpt lat="44.79979" lon="0.68509">
        <ele>143.616</ele>
        <time>2019-05-07T13:27:34Z</time>
      </trkpt>
      <trkpt lat="44.79984" lon="0.68511">
        <ele>144.188</ele>
        <time>2019-05-07T13:27:42Z</time>
      </trkpt>
      <trkpt lat="44.79987" lon="0.68515">
        <ele>144.606</ele>
        <time>2019-05-07T13:27:48Z</time>
      </trkpt>
      <trkpt lat="44.7999" lon="0.68518">
        <ele>144.812</ele>
        <time>2019-05-07T13:27:51Z</time>
      </trkpt>
      <trkpt lat="44.79992" lon="0.68524">
        <ele>145.081</ele>
        <time>2019-05-07T13:27:55Z</time>
      </trkpt>
      <trkpt lat="44.79994" lon="0.68529">
        <ele>145.351</ele>
        <time>2019-05-07T13:27:59Z</time>
      </trkpt>
      <trkpt lat="44.79996" lon="0.68533">
        <ele>145.557</ele>
        <time>2019-05-07T13:28:02Z</time>
      </trkpt>
      <trkpt lat="44.79997" lon="0.68539">
        <ele>145.826</ele>
        <time>2019-05-07T13:28:06Z</time>
      </trkpt>
      <trkpt lat="44.8" lon="0.68546">
        <ele>146.082</ele>
        <time>2019-05-07T13:28:10Z</time>
      </trkpt>
      <trkpt lat="44.80001" lon="0.68553">
        <ele>146.388</ele>
        <time>2019-05-07T13:28:15Z</time>
      </trkpt>
      <trkpt lat="44.80002" lon="0.68558">
        <ele>146.567</ele>
        <time>2019-05-07T13:28:18Z</time>
      </trkpt>
      <trkpt lat="44.80004" lon="0.68564">
        <ele>146.91</ele>
        <time>2019-05-07T13:28:24Z</time>
      </trkpt>
      <trkpt lat="44.80005" lon="0.68567">
        <ele>147.019</ele>
        <time>2019-05-07T13:28:26Z</time>
      </trkpt>
      <trkpt lat="44.80006" lon="0.68571">
        <ele>147.177</ele>
        <time>2019-05-07T13:28:29Z</time>
      </trkpt>
      <trkpt lat="44.80008" lon="0.68576">
        <ele>147.329</ele>
        <time>2019-05-07T13:28:32Z</time>
      </trkpt>
      <trkpt lat="44.80009" lon="0.68579">
        <ele>147.476</ele>
        <time>2019-05-07T13:28:35Z</time>
      </trkpt>
      <trkpt lat="44.8001" lon="0.68582">
        <ele>147.618</ele>
        <time>2019-05-07T13:28:38Z</time>
      </trkpt>
      <trkpt lat="44.80012" lon="0.68587">
        <ele>147.844</ele>
        <time>2019-05-07T13:28:43Z</time>
      </trkpt>
      <trkpt lat="44.80012" lon="0.68596">
        <ele>148.014</ele>
        <time>2019-05-07T13:28:47Z</time>
      </trkpt>
      <trkpt lat="44.80012" lon="0.68599">
        <ele>148.098</ele>
        <time>2019-05-07T13:28:49Z</time>
      </trkpt>
      <trkpt lat="44.80012" lon="0.68603">
        <ele>148.219</ele>
        <time>2019-05-07T13:28:52Z</time>
      </trkpt>
      <trkpt lat="44.80012" lon="0.68607">
        <ele>148.336</ele>
        <time>2019-05-07T13:28:55Z</time>
      </trkpt>
      <trkpt lat="44.80012" lon="0.68617">
        <ele>148.453</ele>
        <time>2019-05-07T13:28:58Z</time>
      </trkpt>
      <trkpt lat="44.80015" lon="0.68622">
        <ele>148.582</ele>
        <time>2019-05-07T13:29:01Z</time>
      </trkpt>
      <trkpt lat="44.80021" lon="0.68626">
        <ele>148.726</ele>
        <time>2019-05-07T13:29:04Z</time>
      </trkpt>
      <trkpt lat="44.80023" lon="0.68633">
        <ele>149.089</ele>
        <time>2019-05-07T13:29:11Z</time>
      </trkpt>
      <trkpt lat="44.80026" lon="0.68638">
        <ele>149.571</ele>
        <time>2019-05-07T13:29:19Z</time>
      </trkpt>
      <trkpt lat="44.8003" lon="0.68643">
        <ele>149.976</ele>
        <time>2019-05-07T13:29:25Z</time>
      </trkpt>
      <trkpt lat="44.80034" lon="0.68645">
        <ele>150.358</ele>
        <time>2019-05-07T13:29:30Z</time>
      </trkpt>
      <trkpt lat="44.80037" lon="0.68646">
        <ele>150.674</ele>
        <time>2019-05-07T13:29:34Z</time>
      </trkpt>
      <trkpt lat="44.80042" lon="0.68644">
        <ele>151.223</ele>
        <time>2019-05-07T13:29:41Z</time>
      </trkpt>
      <trkpt lat="44.80045" lon="0.68644">
        <ele>151.459</ele>
        <time>2019-05-07T13:29:44Z</time>
      </trkpt>
      <trkpt lat="44.80051" lon="0.68643">
        <ele>151.777</ele>
        <time>2019-05-07T13:29:48Z</time>
      </trkpt>
      <trkpt lat="44.80053" lon="0.68643">
        <ele>151.935</ele>
        <time>2019-05-07T13:29:50Z</time>
      </trkpt>
      <trkpt lat="44.80056" lon="0.68642">
        <ele>152.17</ele>
        <time>2019-05-07T13:29:53Z</time>
      </trkpt>
      <trkpt lat="44.80062" lon="0.68645">
        <ele>152.552</ele>
        <time>2019-05-07T13:29:58Z</time>
      </trkpt>
      <trkpt lat="44.80065" lon="0.68646">
        <ele>152.773</ele>
        <time>2019-05-07T13:30:01Z</time>
      </trkpt>
      <trkpt lat="44.80069" lon="0.68648">
        <ele>152.917</ele>
        <time>2019-05-07T13:30:03Z</time>
      </trkpt>
      <trkpt lat="44.80073" lon="0.68652">
        <ele>153.276</ele>
        <time>2019-05-07T13:30:08Z</time>
      </trkpt>
      <trkpt lat="44.80079" lon="0.68654">
        <ele>153.561</ele>
        <time>2019-05-07T13:30:12Z</time>
      </trkpt>
      <trkpt lat="44.80082" lon="0.68656">
        <ele>153.703</ele>
        <time>2019-05-07T13:30:14Z</time>
      </trkpt>
      <trkpt lat="44.80088" lon="0.6866">
        <ele>153.91</ele>
        <time>2019-05-07T13:30:17Z</time>
      </trkpt>
      <trkpt lat="44.80091" lon="0.68664">
        <ele>154.053</ele>
        <time>2019-05-07T13:30:19Z</time>
      </trkpt>
      <trkpt lat="44.80096" lon="0.68668">
        <ele>154.418</ele>
        <time>2019-05-07T13:30:24Z</time>
      </trkpt>
      <trkpt lat="44.801" lon="0.6867">
        <ele>154.807</ele>
        <time>2019-05-07T13:30:29Z</time>
      </trkpt>
      <trkpt lat="44.80104" lon="0.68676">
        <ele>155.271</ele>
        <time>2019-05-07T13:30:35Z</time>
      </trkpt>
      <trkpt lat="44.80107" lon="0.68679">
        <ele>155.507</ele>
        <time>2019-05-07T13:30:38Z</time>
      </trkpt>
      <trkpt lat="44.80111" lon="0.68683">
        <ele>155.825</ele>
        <time>2019-05-07T13:30:42Z</time>
      </trkpt>
      <trkpt lat="44.80113" lon="0.68687">
        <ele>155.987</ele>
        <time>2019-05-07T13:30:44Z</time>
      </trkpt>
      <trkpt lat="44.80114" lon="0.68691">
        <ele>156.146</ele>
        <time>2019-05-07T13:30:46Z</time>
      </trkpt>
      <trkpt lat="44.80116" lon="0.68694">
        <ele>156.303</ele>
        <time>2019-05-07T13:30:48Z</time>
      </trkpt>
      <trkpt lat="44.80118" lon="0.68698">
        <ele>156.606</ele>
        <time>2019-05-07T13:30:52Z</time>
      </trkpt>
      <trkpt lat="44.80122" lon="0.68702">
        <ele>156.826</ele>
        <time>2019-05-07T13:30:55Z</time>
      </trkpt>
      <trkpt lat="44.80126" lon="0.68709">
        <ele>157.129</ele>
        <time>2019-05-07T13:31:00Z</time>
      </trkpt>
      <trkpt lat="44.80131" lon="0.68713">
        <ele>157.394</ele>
        <time>2019-05-07T13:31:03Z</time>
      </trkpt>
      <trkpt lat="44.80135" lon="0.68718">
        <ele>157.823</ele>
        <time>2019-05-07T13:31:07Z</time>
      </trkpt>
      <trkpt lat="44.80137" lon="0.68723">
        <ele>158.474</ele>
        <time>2019-05-07T13:31:13Z</time>
      </trkpt>
      <trkpt lat="44.80142" lon="0.68732">
        <ele>159.192</ele>
        <time>2019-05-07T13:31:18Z</time>
      </trkpt>
      <trkpt lat="44.80143" lon="0.68736">
        <ele>159.494</ele>
        <time>2019-05-07T13:31:20Z</time>
      </trkpt>
      <trkpt lat="44.80145" lon="0.6874">
        <ele>159.961</ele>
        <time>2019-05-07T13:31:23Z</time>
      </trkpt>
      <trkpt lat="44.80146" lon="0.68747">
        <ele>160.764</ele>
        <time>2019-05-07T13:31:28Z</time>
      </trkpt>
      <trkpt lat="44.80149" lon="0.68752">
        <ele>161.405</ele>
        <time>2019-05-07T13:31:32Z</time>
      </trkpt>
      <trkpt lat="44.80155" lon="0.68754">
        <ele>162.043</ele>
        <time>2019-05-07T13:31:36Z</time>
      </trkpt>
      <trkpt lat="44.80157" lon="0.68765">
        <ele>162.807</ele>
        <time>2019-05-07T13:31:41Z</time>
      </trkpt>
      <trkpt lat="44.80159" lon="0.6877">
        <ele>163.258</ele>
        <time>2019-05-07T13:31:44Z</time>
      </trkpt>
      <trkpt lat="44.8016" lon="0.68773">
        <ele>163.561</ele>
        <time>2019-05-07T13:31:46Z</time>
      </trkpt>
      <trkpt lat="44.80163" lon="0.68779">
        <ele>164.168</ele>
        <time>2019-05-07T13:31:50Z</time>
      </trkpt>
      <trkpt lat="44.80164" lon="0.68787">
        <ele>164.761</ele>
        <time>2019-05-07T13:31:54Z</time>
      </trkpt>
      <trkpt lat="44.80164" lon="0.6879">
        <ele>165.055</ele>
        <time>2019-05-07T13:31:56Z</time>
      </trkpt>
      <trkpt lat="44.80164" lon="0.68794">
        <ele>165.437</ele>
        <time>2019-05-07T13:32:04Z</time>
      </trkpt>
      <trkpt lat="44.80167" lon="0.688">
        <ele>166.294</ele>
        <time>2019-05-07T13:32:17Z</time>
      </trkpt>
      <trkpt lat="44.80169" lon="0.68807">
        <ele>166.806</ele>
        <time>2019-05-07T13:32:20Z</time>
      </trkpt>
      <trkpt lat="44.80173" lon="0.68813">
        <ele>167.467</ele>
        <time>2019-05-07T13:32:24Z</time>
      </trkpt>
      <trkpt lat="44.80175" lon="0.68821">
        <ele>168.099</ele>
        <time>2019-05-07T13:32:28Z</time>
      </trkpt>
      <trkpt lat="44.80179" lon="0.68826">
        <ele>168.707</ele>
        <time>2019-05-07T13:32:32Z</time>
      </trkpt>
      <trkpt lat="44.80181" lon="0.6883">
        <ele>169.003</ele>
        <time>2019-05-07T13:32:34Z</time>
      </trkpt>
      <trkpt lat="44.80184" lon="0.68835">
        <ele>169.583</ele>
        <time>2019-05-07T13:32:38Z</time>
      </trkpt>
      <trkpt lat="44.80187" lon="0.6884">
        <ele>170.143</ele>
        <time>2019-05-07T13:32:42Z</time>
      </trkpt>
      <trkpt lat="44.80189" lon="0.68843">
        <ele>170.419</ele>
        <time>2019-05-07T13:32:44Z</time>
      </trkpt>
      <trkpt lat="44.80191" lon="0.68846">
        <ele>170.692</ele>
        <time>2019-05-07T13:32:46Z</time>
      </trkpt>
      <trkpt lat="44.80196" lon="0.6885">
        <ele>171.231</ele>
        <time>2019-05-07T13:32:50Z</time>
      </trkpt>
      <trkpt lat="44.80201" lon="0.68853">
        <ele>171.762</ele>
        <time>2019-05-07T13:32:54Z</time>
      </trkpt>
      <trkpt lat="44.80206" lon="0.68854">
        <ele>172.286</ele>
        <time>2019-05-07T13:32:58Z</time>
      </trkpt>
      <trkpt lat="44.80211" lon="0.68857">
        <ele>172.806</ele>
        <time>2019-05-07T13:33:02Z</time>
      </trkpt>
      <trkpt lat="44.80216" lon="0.68858">
        <ele>173.457</ele>
        <time>2019-05-07T13:33:07Z</time>
      </trkpt>
      <trkpt lat="44.80219" lon="0.68859">
        <ele>173.849</ele>
        <time>2019-05-07T13:33:10Z</time>
      </trkpt>
      <trkpt lat="44.80224" lon="0.6886">
        <ele>174.521</ele>
        <time>2019-05-07T13:33:16Z</time>
      </trkpt>
      <trkpt lat="44.80224" lon="0.6886">
        <ele>174.997</ele>
        <time>2019-05-07T13:33:24Z</time>
      </trkpt>
      <trkpt lat="44.80228" lon="0.68861">
        <ele>179.879</ele>
        <time>2019-05-07T13:35:12Z</time>
      </trkpt>
      <trkpt lat="44.80233" lon="0.68858">
        <ele>180.496</ele>
        <time>2019-05-07T13:35:15Z</time>
      </trkpt>
      <trkpt lat="44.80239" lon="0.68856">
        <ele>181.081</ele>
        <time>2019-05-07T13:35:18Z</time>
      </trkpt>
      <trkpt lat="44.80241" lon="0.68854">
        <ele>181.455</ele>
        <time>2019-05-07T13:35:20Z</time>
      </trkpt>
      <trkpt lat="44.80243" lon="0.68853">
        <ele>181.817</ele>
        <time>2019-05-07T13:35:22Z</time>
      </trkpt>
      <trkpt lat="44.80247" lon="0.6885">
        <ele>182.338</ele>
        <time>2019-05-07T13:35:25Z</time>
      </trkpt>
      <trkpt lat="44.8025" lon="0.68849">
        <ele>182.671</ele>
        <time>2019-05-07T13:35:27Z</time>
      </trkpt>
      <trkpt lat="44.80254" lon="0.68844">
        <ele>183.311</ele>
        <time>2019-05-07T13:35:31Z</time>
      </trkpt>
      <trkpt lat="44.80256" lon="0.68841">
        <ele>183.769</ele>
        <time>2019-05-07T13:35:34Z</time>
      </trkpt>
      <trkpt lat="44.80262" lon="0.68839">
        <ele>184.357</ele>
        <time>2019-05-07T13:35:38Z</time>
      </trkpt>
      <trkpt lat="44.80266" lon="0.68836">
        <ele>184.921</ele>
        <time>2019-05-07T13:35:42Z</time>
      </trkpt>
      <trkpt lat="44.80269" lon="0.68834">
        <ele>185.192</ele>
        <time>2019-05-07T13:35:44Z</time>
      </trkpt>
      <trkpt lat="44.80274" lon="0.68831">
        <ele>185.715</ele>
        <time>2019-05-07T13:35:48Z</time>
      </trkpt>
      <trkpt lat="44.80281" lon="0.68826">
        <ele>186.448</ele>
        <time>2019-05-07T13:35:54Z</time>
      </trkpt>
      <trkpt lat="44.80284" lon="0.68825">
        <ele>186.68</ele>
        <time>2019-05-07T13:35:56Z</time>
      </trkpt>
      <trkpt lat="44.80287" lon="0.68822">
        <ele>187.02</ele>
        <time>2019-05-07T13:35:59Z</time>
      </trkpt>
      <trkpt lat="44.80291" lon="0.68819">
        <ele>187.351</ele>
        <time>2019-05-07T13:36:02Z</time>
      </trkpt>
      <trkpt lat="44.80295" lon="0.68815">
        <ele>187.775</ele>
        <time>2019-05-07T13:36:06Z</time>
      </trkpt>
      <trkpt lat="44.80298" lon="0.68813">
        <ele>187.98</ele>
        <time>2019-05-07T13:36:08Z</time>
      </trkpt>
      <trkpt lat="44.80302" lon="0.68811">
        <ele>188.278</ele>
        <time>2019-05-07T13:36:11Z</time>
      </trkpt>
      <trkpt lat="44.80305" lon="0.6881">
        <ele>188.469</ele>
        <time>2019-05-07T13:36:13Z</time>
      </trkpt>
      <trkpt lat="44.8031" lon="0.68806">
        <ele>188.84</ele>
        <time>2019-05-07T13:36:17Z</time>
      </trkpt>
      <trkpt lat="44.80314" lon="0.68802">
        <ele>189.107</ele>
        <time>2019-05-07T13:36:20Z</time>
      </trkpt>
      <trkpt lat="44.80319" lon="0.68799">
        <ele>189.367</ele>
        <time>2019-05-07T13:36:23Z</time>
      </trkpt>
      <trkpt lat="44.80322" lon="0.68794">
        <ele>189.62</ele>
        <time>2019-05-07T13:36:26Z</time>
      </trkpt>
      <trkpt lat="44.80327" lon="0.6879">
        <ele>189.941</ele>
        <time>2019-05-07T13:36:30Z</time>
      </trkpt>
      <trkpt lat="44.8033" lon="0.68787">
        <ele>190.095</ele>
        <time>2019-05-07T13:36:32Z</time>
      </trkpt>
      <trkpt lat="44.80334" lon="0.68784">
        <ele>190.319</ele>
        <time>2019-05-07T13:36:35Z</time>
      </trkpt>
      <trkpt lat="44.80337" lon="0.68781">
        <ele>190.538</ele>
        <time>2019-05-07T13:36:38Z</time>
      </trkpt>
      <trkpt lat="44.8034" lon="0.68779">
        <ele>190.682</ele>
        <time>2019-05-07T13:36:40Z</time>
      </trkpt>
      <trkpt lat="44.80342" lon="0.68776">
        <ele>190.823</ele>
        <time>2019-05-07T13:36:42Z</time>
      </trkpt>
      <trkpt lat="44.80346" lon="0.68771">
        <ele>191.097</ele>
        <time>2019-05-07T13:36:46Z</time>
      </trkpt>
      <trkpt lat="44.80351" lon="0.68766">
        <ele>191.356</ele>
        <time>2019-05-07T13:36:50Z</time>
      </trkpt>
      <trkpt lat="44.80354" lon="0.68764">
        <ele>191.479</ele>
        <time>2019-05-07T13:36:52Z</time>
      </trkpt>
      <trkpt lat="44.80358" lon="0.68758">
        <ele>191.713</ele>
        <time>2019-05-07T13:36:56Z</time>
      </trkpt>
      <trkpt lat="44.80361" lon="0.68755">
        <ele>191.826</ele>
        <time>2019-05-07T13:36:58Z</time>
      </trkpt>
      <trkpt lat="44.80363" lon="0.68752">
        <ele>191.936</ele>
        <time>2019-05-07T13:37:00Z</time>
      </trkpt>
      <trkpt lat="44.80365" lon="0.6875">
        <ele>192.043</ele>
        <time>2019-05-07T13:37:02Z</time>
      </trkpt>
      <trkpt lat="44.80368" lon="0.68748">
        <ele>192.148</ele>
        <time>2019-05-07T13:37:04Z</time>
      </trkpt>
      <trkpt lat="44.8037" lon="0.68746">
        <ele>192.251</ele>
        <time>2019-05-07T13:37:06Z</time>
      </trkpt>
      <trkpt lat="44.80375" lon="0.68741">
        <ele>192.452</ele>
        <time>2019-05-07T13:37:10Z</time>
      </trkpt>
      <trkpt lat="44.80379" lon="0.68737">
        <ele>192.642</ele>
        <time>2019-05-07T13:37:14Z</time>
      </trkpt>
      <trkpt lat="44.80382" lon="0.68735">
        <ele>192.731</ele>
        <time>2019-05-07T13:37:16Z</time>
      </trkpt>
      <trkpt lat="44.80385" lon="0.68732">
        <ele>192.818</ele>
        <time>2019-05-07T13:37:18Z</time>
      </trkpt>
      <trkpt lat="44.80387" lon="0.68729">
        <ele>192.901</ele>
        <time>2019-05-07T13:37:20Z</time>
      </trkpt>
      <trkpt lat="44.80389" lon="0.68727">
        <ele>192.982</ele>
        <time>2019-05-07T13:37:22Z</time>
      </trkpt>
      <trkpt lat="44.80392" lon="0.68725">
        <ele>193.059</ele>
        <time>2019-05-07T13:37:24Z</time>
      </trkpt>
      <trkpt lat="44.80397" lon="0.68722">
        <ele>193.169</ele>
        <time>2019-05-07T13:37:27Z</time>
      </trkpt>
      <trkpt lat="44.80401" lon="0.68717">
        <ele>193.273</ele>
        <time>2019-05-07T13:37:30Z</time>
      </trkpt>
      <trkpt lat="44.80404" lon="0.68714">
        <ele>193.34</ele>
        <time>2019-05-07T13:37:32Z</time>
      </trkpt>
      <trkpt lat="44.80406" lon="0.68712">
        <ele>193.406</ele>
        <time>2019-05-07T13:37:34Z</time>
      </trkpt>
      <trkpt lat="44.80409" lon="0.68709">
        <ele>193.471</ele>
        <time>2019-05-07T13:37:36Z</time>
      </trkpt>
      <trkpt lat="44.80412" lon="0.68706">
        <ele>193.534</ele>
        <time>2019-05-07T13:37:38Z</time>
      </trkpt>
      <trkpt lat="44.80417" lon="0.687">
        <ele>193.657</ele>
        <time>2019-05-07T13:37:42Z</time>
      </trkpt>
      <trkpt lat="44.80419" lon="0.68697">
        <ele>193.746</ele>
        <time>2019-05-07T13:37:45Z</time>
      </trkpt>
      <trkpt lat="44.80423" lon="0.68692">
        <ele>193.86</ele>
        <time>2019-05-07T13:37:49Z</time>
      </trkpt>
      <trkpt lat="44.80427" lon="0.68686">
        <ele>193.972</ele>
        <time>2019-05-07T13:37:53Z</time>
      </trkpt>
      <trkpt lat="44.80432" lon="0.68681">
        <ele>194.079</ele>
        <time>2019-05-07T13:37:57Z</time>
      </trkpt>
      <trkpt lat="44.80435" lon="0.68678">
        <ele>194.155</ele>
        <time>2019-05-07T13:38:00Z</time>
      </trkpt>
      <trkpt lat="44.80439" lon="0.68674">
        <ele>194.204</ele>
        <time>2019-05-07T13:38:02Z</time>
      </trkpt>
      <trkpt lat="44.80441" lon="0.68671">
        <ele>194.253</ele>
        <time>2019-05-07T13:38:04Z</time>
      </trkpt>
      <trkpt lat="44.80445" lon="0.68668">
        <ele>194.323</ele>
        <time>2019-05-07T13:38:07Z</time>
      </trkpt>
      <trkpt lat="44.80448" lon="0.68666">
        <ele>194.368</ele>
        <time>2019-05-07T13:38:09Z</time>
      </trkpt>
      <trkpt lat="44.80452" lon="0.68664">
        <ele>194.412</ele>
        <time>2019-05-07T13:38:11Z</time>
      </trkpt>
      <trkpt lat="44.80456" lon="0.68662">
        <ele>194.474</ele>
        <time>2019-05-07T13:38:14Z</time>
      </trkpt>
      <trkpt lat="44.80461" lon="0.68658">
        <ele>194.552</ele>
        <time>2019-05-07T13:38:18Z</time>
      </trkpt>
      <trkpt lat="44.80465" lon="0.68654">
        <ele>194.605</ele>
        <time>2019-05-07T13:38:21Z</time>
      </trkpt>
      <trkpt lat="44.80469" lon="0.68649">
        <ele>194.653</ele>
        <time>2019-05-07T13:38:24Z</time>
      </trkpt>
      <trkpt lat="44.80471" lon="0.68646">
        <ele>194.682</ele>
        <time>2019-05-07T13:38:26Z</time>
      </trkpt>
      <trkpt lat="44.80475" lon="0.6864">
        <ele>194.722</ele>
        <time>2019-05-07T13:38:29Z</time>
      </trkpt>
      <trkpt lat="44.80478" lon="0.68636">
        <ele>194.746</ele>
        <time>2019-05-07T13:38:31Z</time>
      </trkpt>
      <trkpt lat="44.80481" lon="0.68633">
        <ele>194.796</ele>
        <time>2019-05-07T13:38:37Z</time>
      </trkpt>
      <trkpt lat="44.80484" lon="0.68629">
        <ele>194.838</ele>
        <time>2019-05-07T13:38:41Z</time>
      </trkpt>
      <trkpt lat="44.80487" lon="0.68624">
        <ele>194.892</ele>
        <time>2019-05-07T13:38:45Z</time>
      </trkpt>
      <trkpt lat="44.80489" lon="0.68622">
        <ele>194.919</ele>
        <time>2019-05-07T13:38:47Z</time>
      </trkpt>
      <trkpt lat="44.80492" lon="0.68619">
        <ele>194.945</ele>
        <time>2019-05-07T13:38:49Z</time>
      </trkpt>
      <trkpt lat="44.80494" lon="0.68616">
        <ele>194.97</ele>
        <time>2019-05-07T13:38:51Z</time>
      </trkpt>
      <trkpt lat="44.80497" lon="0.68611">
        <ele>195.006</ele>
        <time>2019-05-07T13:38:54Z</time>
      </trkpt>
      <trkpt lat="44.805" lon="0.68608">
        <ele>195.029</ele>
        <time>2019-05-07T13:38:56Z</time>
      </trkpt>
      <trkpt lat="44.80504" lon="0.68602">
        <ele>195.06</ele>
        <time>2019-05-07T13:38:59Z</time>
      </trkpt>
      <trkpt lat="44.80506" lon="0.68598">
        <ele>195.08</ele>
        <time>2019-05-07T13:39:01Z</time>
      </trkpt>
      <trkpt lat="44.80509" lon="0.68594">
        <ele>195.1</ele>
        <time>2019-05-07T13:39:03Z</time>
      </trkpt>
      <trkpt lat="44.80511" lon="0.6859">
        <ele>195.118</ele>
        <time>2019-05-07T13:39:05Z</time>
      </trkpt>
      <trkpt lat="44.80514" lon="0.68586">
        <ele>195.135</ele>
        <time>2019-05-07T13:39:07Z</time>
      </trkpt>
      <trkpt lat="44.80516" lon="0.68583">
        <ele>195.152</ele>
        <time>2019-05-07T13:39:09Z</time>
      </trkpt>
      <trkpt lat="44.80517" lon="0.68579">
        <ele>195.169</ele>
        <time>2019-05-07T13:39:11Z</time>
      </trkpt>
      <trkpt lat="44.80521" lon="0.68573">
        <ele>195.194</ele>
        <time>2019-05-07T13:39:14Z</time>
      </trkpt>
      <trkpt lat="44.80523" lon="0.6857">
        <ele>195.212</ele>
        <time>2019-05-07T13:39:16Z</time>
      </trkpt>
      <trkpt lat="44.80526" lon="0.68566">
        <ele>195.23</ele>
        <time>2019-05-07T13:39:18Z</time>
      </trkpt>
      <trkpt lat="44.80529" lon="0.68561">
        <ele>195.258</ele>
        <time>2019-05-07T13:39:21Z</time>
      </trkpt>
      <trkpt lat="44.80531" lon="0.68558">
        <ele>195.277</ele>
        <time>2019-05-07T13:39:23Z</time>
      </trkpt>
      <trkpt lat="44.80536" lon="0.68552">
        <ele>195.315</ele>
        <time>2019-05-07T13:39:27Z</time>
      </trkpt>
      <trkpt lat="44.80539" lon="0.68546">
        <ele>195.353</ele>
        <time>2019-05-07T13:39:31Z</time>
      </trkpt>
      <trkpt lat="44.8054" lon="0.68543">
        <ele>195.371</ele>
        <time>2019-05-07T13:39:33Z</time>
      </trkpt>
      <trkpt lat="44.80543" lon="0.68538">
        <ele>195.397</ele>
        <time>2019-05-07T13:39:36Z</time>
      </trkpt>
      <trkpt lat="44.80547" lon="0.68535">
        <ele>195.423</ele>
        <time>2019-05-07T13:39:39Z</time>
      </trkpt>
      <trkpt lat="44.80551" lon="0.68533">
        <ele>195.437</ele>
        <time>2019-05-07T13:39:41Z</time>
      </trkpt>
      <trkpt lat="44.80554" lon="0.6853">
        <ele>195.448</ele>
        <time>2019-05-07T13:39:43Z</time>
      </trkpt>
      <trkpt lat="44.80558" lon="0.68527">
        <ele>195.461</ele>
        <time>2019-05-07T13:39:46Z</time>
      </trkpt>
      <trkpt lat="44.80562" lon="0.68522">
        <ele>195.468</ele>
        <time>2019-05-07T13:39:49Z</time>
      </trkpt>
      <trkpt lat="44.80566" lon="0.68519">
        <ele>195.47</ele>
        <time>2019-05-07T13:39:52Z</time>
      </trkpt>
      <trkpt lat="44.80572" lon="0.68517">
        <ele>195.47</ele>
        <time>2019-05-07T13:39:56Z</time>
      </trkpt>
      <trkpt lat="44.80576" lon="0.68514">
        <ele>195.463</ele>
        <time>2019-05-07T13:40:00Z</time>
      </trkpt>
      <trkpt lat="44.80581" lon="0.68511">
        <ele>195.454</ele>
        <time>2019-05-07T13:40:03Z</time>
      </trkpt>
      <trkpt lat="44.80585" lon="0.68507">
        <ele>195.442</ele>
        <time>2019-05-07T13:40:06Z</time>
      </trkpt>
      <trkpt lat="44.80587" lon="0.68505">
        <ele>195.433</ele>
        <time>2019-05-07T13:40:08Z</time>
      </trkpt>
      <trkpt lat="44.8059" lon="0.68503">
        <ele>195.424</ele>
        <time>2019-05-07T13:40:10Z</time>
      </trkpt>
      <trkpt lat="44.80593" lon="0.68501">
        <ele>195.414</ele>
        <time>2019-05-07T13:40:12Z</time>
      </trkpt>
      <trkpt lat="44.80597" lon="0.68497">
        <ele>195.398</ele>
        <time>2019-05-07T13:40:15Z</time>
      </trkpt>
      <trkpt lat="44.80601" lon="0.68494">
        <ele>195.382</ele>
        <time>2019-05-07T13:40:18Z</time>
      </trkpt>
      <trkpt lat="44.80605" lon="0.6849">
        <ele>195.365</ele>
        <time>2019-05-07T13:40:21Z</time>
      </trkpt>
      <trkpt lat="44.8061" lon="0.68486">
        <ele>195.348</ele>
        <time>2019-05-07T13:40:24Z</time>
      </trkpt>
      <trkpt lat="44.80613" lon="0.68484">
        <ele>195.335</ele>
        <time>2019-05-07T13:40:26Z</time>
      </trkpt>
      <trkpt lat="44.80616" lon="0.6848">
        <ele>195.317</ele>
        <time>2019-05-07T13:40:29Z</time>
      </trkpt>
      <trkpt lat="44.8062" lon="0.68475">
        <ele>195.304</ele>
        <time>2019-05-07T13:40:32Z</time>
      </trkpt>
      <trkpt lat="44.80625" lon="0.68473">
        <ele>195.294</ele>
        <time>2019-05-07T13:40:36Z</time>
      </trkpt>
      <trkpt lat="44.80629" lon="0.6847">
        <ele>195.292</ele>
        <time>2019-05-07T13:40:40Z</time>
      </trkpt>
      <trkpt lat="44.80633" lon="0.68466">
        <ele>195.299</ele>
        <time>2019-05-07T13:40:44Z</time>
      </trkpt>
      <trkpt lat="44.80636" lon="0.68464">
        <ele>195.31</ele>
        <time>2019-05-07T13:40:47Z</time>
      </trkpt>
      <trkpt lat="44.8064" lon="0.6846">
        <ele>195.331</ele>
        <time>2019-05-07T13:40:51Z</time>
      </trkpt>
      <trkpt lat="44.80645" lon="0.68458">
        <ele>195.348</ele>
        <time>2019-05-07T13:40:54Z</time>
      </trkpt>
      <trkpt lat="44.80651" lon="0.68456">
        <ele>195.368</ele>
        <time>2019-05-07T13:40:57Z</time>
      </trkpt>
      <trkpt lat="44.80656" lon="0.68455">
        <ele>195.398</ele>
        <time>2019-05-07T13:41:01Z</time>
      </trkpt>
      <trkpt lat="44.80661" lon="0.68453">
        <ele>195.427</ele>
        <time>2019-05-07T13:41:05Z</time>
      </trkpt>
      <trkpt lat="44.80665" lon="0.6845">
        <ele>195.455</ele>
        <time>2019-05-07T13:41:09Z</time>
      </trkpt>
      <trkpt lat="44.8067" lon="0.68448">
        <ele>195.475</ele>
        <time>2019-05-07T13:41:12Z</time>
      </trkpt>
      <trkpt lat="44.80674" lon="0.68444">
        <ele>195.506</ele>
        <time>2019-05-07T13:41:17Z</time>
      </trkpt>
      <trkpt lat="44.80676" lon="0.68442">
        <ele>195.517</ele>
        <time>2019-05-07T13:41:25Z</time>
      </trkpt>
      <trkpt lat="44.80679" lon="0.68439">
        <ele>195.563</ele>
        <time>2019-05-07T13:41:41Z</time>
      </trkpt>
      <trkpt lat="44.80682" lon="0.68434">
        <ele>195.635</ele>
        <time>2019-05-07T13:42:02Z</time>
      </trkpt>
      <trkpt lat="44.80686" lon="0.68431">
        <ele>195.665</ele>
        <time>2019-05-07T13:42:12Z</time>
      </trkpt>
      <trkpt lat="44.80691" lon="0.68429">
        <ele>195.7</ele>
        <time>2019-05-07T13:42:18Z</time>
      </trkpt>
      <trkpt lat="44.80696" lon="0.68428">
        <ele>195.717</ele>
        <time>2019-05-07T13:42:22Z</time>
      </trkpt>
      <trkpt lat="44.80699" lon="0.68427">
        <ele>195.724</ele>
        <time>2019-05-07T13:42:24Z</time>
      </trkpt>
      <trkpt lat="44.80704" lon="0.68426">
        <ele>195.74</ele>
        <time>2019-05-07T13:42:29Z</time>
      </trkpt>
      <trkpt lat="44.80709" lon="0.68423">
        <ele>195.751</ele>
        <time>2019-05-07T13:42:33Z</time>
      </trkpt>
      <trkpt lat="44.80714" lon="0.68422">
        <ele>195.76</ele>
        <time>2019-05-07T13:42:37Z</time>
      </trkpt>
      <trkpt lat="44.8072" lon="0.68419">
        <ele>195.768</ele>
        <time>2019-05-07T13:42:41Z</time>
      </trkpt>
      <trkpt lat="44.80723" lon="0.68418">
        <ele>195.772</ele>
        <time>2019-05-07T13:42:43Z</time>
      </trkpt>
      <trkpt lat="44.80727" lon="0.68416">
        <ele>195.775</ele>
        <time>2019-05-07T13:42:46Z</time>
      </trkpt>
      <trkpt lat="44.80735" lon="0.68414">
        <ele>195.782</ele>
        <time>2019-05-07T13:42:51Z</time>
      </trkpt>
      <trkpt lat="44.8074" lon="0.68414">
        <ele>195.784</ele>
        <time>2019-05-07T13:42:54Z</time>
      </trkpt>
      <trkpt lat="44.80744" lon="0.68411">
        <ele>195.788</ele>
        <time>2019-05-07T13:42:58Z</time>
      </trkpt>
      <trkpt lat="44.80747" lon="0.68408">
        <ele>195.791</ele>
        <time>2019-05-07T13:43:01Z</time>
      </trkpt>
      <trkpt lat="44.80752" lon="0.68406">
        <ele>195.794</ele>
        <time>2019-05-07T13:43:04Z</time>
      </trkpt>
      <trkpt lat="44.80756" lon="0.68403">
        <ele>195.797</ele>
        <time>2019-05-07T13:43:07Z</time>
      </trkpt>
      <trkpt lat="44.8076" lon="0.684">
        <ele>195.799</ele>
        <time>2019-05-07T13:43:09Z</time>
      </trkpt>
      <trkpt lat="44.80764" lon="0.68396">
        <ele>195.803</ele>
        <time>2019-05-07T13:43:12Z</time>
      </trkpt>
      <trkpt lat="44.80767" lon="0.68393">
        <ele>195.805</ele>
        <time>2019-05-07T13:43:14Z</time>
      </trkpt>
      <trkpt lat="44.80769" lon="0.68392">
        <ele>195.808</ele>
        <time>2019-05-07T13:43:16Z</time>
      </trkpt>
      <trkpt lat="44.80774" lon="0.68388">
        <ele>195.816</ele>
        <time>2019-05-07T13:43:21Z</time>
      </trkpt>
      <trkpt lat="44.8078" lon="0.68383">
        <ele>195.821</ele>
        <time>2019-05-07T13:43:24Z</time>
      </trkpt>
      <trkpt lat="44.80786" lon="0.68381">
        <ele>195.823</ele>
        <time>2019-05-07T13:43:27Z</time>
      </trkpt>
      <trkpt lat="44.80788" lon="0.6838">
        <ele>195.825</ele>
        <time>2019-05-07T13:43:29Z</time>
      </trkpt>
      <trkpt lat="44.80792" lon="0.68378">
        <ele>195.825</ele>
        <time>2019-05-07T13:43:31Z</time>
      </trkpt>
      <trkpt lat="44.80795" lon="0.68377">
        <ele>195.825</ele>
        <time>2019-05-07T13:43:33Z</time>
      </trkpt>
      <trkpt lat="44.80799" lon="0.68376">
        <ele>195.823</ele>
        <time>2019-05-07T13:43:37Z</time>
      </trkpt>
      <trkpt lat="44.80803" lon="0.68371">
        <ele>195.821</ele>
        <time>2019-05-07T13:43:40Z</time>
      </trkpt>
      <trkpt lat="44.80808" lon="0.68368">
        <ele>195.819</ele>
        <time>2019-05-07T13:43:43Z</time>
      </trkpt>
      <trkpt lat="44.80813" lon="0.68363">
        <ele>195.817</ele>
        <time>2019-05-07T13:43:46Z</time>
      </trkpt>
      <trkpt lat="44.80818" lon="0.6836">
        <ele>195.814</ele>
        <time>2019-05-07T13:43:50Z</time>
      </trkpt>
      <trkpt lat="44.80822" lon="0.68359">
        <ele>195.813</ele>
        <time>2019-05-07T13:43:54Z</time>
      </trkpt>
      <trkpt lat="44.80828" lon="0.68358">
        <ele>195.812</ele>
        <time>2019-05-07T13:43:57Z</time>
      </trkpt>
      <trkpt lat="44.80833" lon="0.68354">
        <ele>195.808</ele>
        <time>2019-05-07T13:44:01Z</time>
      </trkpt>
      <trkpt lat="44.80839" lon="0.68353">
        <ele>195.804</ele>
        <time>2019-05-07T13:44:05Z</time>
      </trkpt>
      <trkpt lat="44.80845" lon="0.68347">
        <ele>195.799</ele>
        <time>2019-05-07T13:44:09Z</time>
      </trkpt>
      <trkpt lat="44.8085" lon="0.68344">
        <ele>195.795</ele>
        <time>2019-05-07T13:44:12Z</time>
      </trkpt>
      <trkpt lat="44.80854" lon="0.68343">
        <ele>195.789</ele>
        <time>2019-05-07T13:44:16Z</time>
      </trkpt>
      <trkpt lat="44.80857" lon="0.68342">
        <ele>195.785</ele>
        <time>2019-05-07T13:44:18Z</time>
      </trkpt>
      <trkpt lat="44.80863" lon="0.68343">
        <ele>195.774</ele>
        <time>2019-05-07T13:44:24Z</time>
      </trkpt>
      <trkpt lat="44.80868" lon="0.68341">
        <ele>195.761</ele>
        <time>2019-05-07T13:44:29Z</time>
      </trkpt>
      <trkpt lat="44.80873" lon="0.68338">
        <ele>195.752</ele>
        <time>2019-05-07T13:44:32Z</time>
      </trkpt>
      <trkpt lat="44.80877" lon="0.68333">
        <ele>195.746</ele>
        <time>2019-05-07T13:44:34Z</time>
      </trkpt>
      <trkpt lat="44.80882" lon="0.68332">
        <ele>195.74</ele>
        <time>2019-05-07T13:44:37Z</time>
      </trkpt>
      <trkpt lat="44.80886" lon="0.68331">
        <ele>195.736</ele>
        <time>2019-05-07T13:44:39Z</time>
      </trkpt>
      <trkpt lat="44.80891" lon="0.68325">
        <ele>195.728</ele>
        <time>2019-05-07T13:44:43Z</time>
      </trkpt>
      <trkpt lat="44.80897" lon="0.68321">
        <ele>195.724</ele>
        <time>2019-05-07T13:44:46Z</time>
      </trkpt>
      <trkpt lat="44.80901" lon="0.68317">
        <ele>195.72</ele>
        <time>2019-05-07T13:44:50Z</time>
      </trkpt>
      <trkpt lat="44.80906" lon="0.68313">
        <ele>195.719</ele>
        <time>2019-05-07T13:44:54Z</time>
      </trkpt>
      <trkpt lat="44.80911" lon="0.68311">
        <ele>195.717</ele>
        <time>2019-05-07T13:44:57Z</time>
      </trkpt>
      <trkpt lat="44.80915" lon="0.6831">
        <ele>195.716</ele>
        <time>2019-05-07T13:44:59Z</time>
      </trkpt>
      <trkpt lat="44.80919" lon="0.68305">
        <ele>195.713</ele>
        <time>2019-05-07T13:45:02Z</time>
      </trkpt>
      <trkpt lat="44.80921" lon="0.68302">
        <ele>195.71</ele>
        <time>2019-05-07T13:45:05Z</time>
      </trkpt>
      <trkpt lat="44.80926" lon="0.68298">
        <ele>195.707</ele>
        <time>2019-05-07T13:45:08Z</time>
      </trkpt>
      <trkpt lat="44.80928" lon="0.68297">
        <ele>195.704</ele>
        <time>2019-05-07T13:45:10Z</time>
      </trkpt>
      <trkpt lat="44.80931" lon="0.68294">
        <ele>195.702</ele>
        <time>2019-05-07T13:45:12Z</time>
      </trkpt>
      <trkpt lat="44.80935" lon="0.68289">
        <ele>195.698</ele>
        <time>2019-05-07T13:45:16Z</time>
      </trkpt>
      <trkpt lat="44.80939" lon="0.68283">
        <ele>195.695</ele>
        <time>2019-05-07T13:45:20Z</time>
      </trkpt>
      <trkpt lat="44.80944" lon="0.68281">
        <ele>195.693</ele>
        <time>2019-05-07T13:45:23Z</time>
      </trkpt>
      <trkpt lat="44.80948" lon="0.68277">
        <ele>195.69</ele>
        <time>2019-05-07T13:45:26Z</time>
      </trkpt>
      <trkpt lat="44.80953" lon="0.68274">
        <ele>195.686</ele>
        <time>2019-05-07T13:45:29Z</time>
      </trkpt>
      <trkpt lat="44.80957" lon="0.68271">
        <ele>195.683</ele>
        <time>2019-05-07T13:45:32Z</time>
      </trkpt>
      <trkpt lat="44.8096" lon="0.68269">
        <ele>195.678</ele>
        <time>2019-05-07T13:45:35Z</time>
      </trkpt>
      <trkpt lat="44.80963" lon="0.68262">
        <ele>195.672</ele>
        <time>2019-05-07T13:45:39Z</time>
      </trkpt>
      <trkpt lat="44.80966" lon="0.68258">
        <ele>195.668</ele>
        <time>2019-05-07T13:45:42Z</time>
      </trkpt>
      <trkpt lat="44.8097" lon="0.68253">
        <ele>195.662</ele>
        <time>2019-05-07T13:45:46Z</time>
      </trkpt>
      <trkpt lat="44.80974" lon="0.6825">
        <ele>195.657</ele>
        <time>2019-05-07T13:45:48Z</time>
      </trkpt>
      <trkpt lat="44.80976" lon="0.68247">
        <ele>195.653</ele>
        <time>2019-05-07T13:45:50Z</time>
      </trkpt>
      <trkpt lat="44.8098" lon="0.68244">
        <ele>195.649</ele>
        <time>2019-05-07T13:45:53Z</time>
      </trkpt>
      <trkpt lat="44.80983" lon="0.68238">
        <ele>195.644</ele>
        <time>2019-05-07T13:45:57Z</time>
      </trkpt>
      <trkpt lat="44.80985" lon="0.68234">
        <ele>195.64</ele>
        <time>2019-05-07T13:45:59Z</time>
      </trkpt>
      <trkpt lat="44.80987" lon="0.68228">
        <ele>195.636</ele>
        <time>2019-05-07T13:46:02Z</time>
      </trkpt>
      <trkpt lat="44.80991" lon="0.68224">
        <ele>195.634</ele>
        <time>2019-05-07T13:46:06Z</time>
      </trkpt>
      <trkpt lat="44.80994" lon="0.68222">
        <ele>195.635</ele>
        <time>2019-05-07T13:46:09Z</time>
      </trkpt>
      <trkpt lat="44.80998" lon="0.6822">
        <ele>195.64</ele>
        <time>2019-05-07T13:46:13Z</time>
      </trkpt>
      <trkpt lat="44.81001" lon="0.68219">
        <ele>195.646</ele>
        <time>2019-05-07T13:46:16Z</time>
      </trkpt>
      <trkpt lat="44.81007" lon="0.68218">
        <ele>195.656</ele>
        <time>2019-05-07T13:46:21Z</time>
      </trkpt>
      <trkpt lat="44.81011" lon="0.68215">
        <ele>195.665</ele>
        <time>2019-05-07T13:46:25Z</time>
      </trkpt>
      <trkpt lat="44.81016" lon="0.68214">
        <ele>195.674</ele>
        <time>2019-05-07T13:46:28Z</time>
      </trkpt>
      <trkpt lat="44.81021" lon="0.6821">
        <ele>195.682</ele>
        <time>2019-05-07T13:46:31Z</time>
      </trkpt>
      <trkpt lat="44.81026" lon="0.68206">
        <ele>195.692</ele>
        <time>2019-05-07T13:46:34Z</time>
      </trkpt>
      <trkpt lat="44.81031" lon="0.68205">
        <ele>195.709</ele>
        <time>2019-05-07T13:46:39Z</time>
      </trkpt>
      <trkpt lat="44.81034" lon="0.68205">
        <ele>195.721</ele>
        <time>2019-05-07T13:46:43Z</time>
      </trkpt>
      <trkpt lat="44.81041" lon="0.68205">
        <ele>195.734</ele>
        <time>2019-05-07T13:46:47Z</time>
      </trkpt>
      <trkpt lat="44.81048" lon="0.68204">
        <ele>195.747</ele>
        <time>2019-05-07T13:46:51Z</time>
      </trkpt>
      <trkpt lat="44.81053" lon="0.68204">
        <ele>195.755</ele>
        <time>2019-05-07T13:46:53Z</time>
      </trkpt>
      <trkpt lat="44.81056" lon="0.68204">
        <ele>195.768</ele>
        <time>2019-05-07T13:46:56Z</time>
      </trkpt>
      <trkpt lat="44.8106" lon="0.68203">
        <ele>195.783</ele>
        <time>2019-05-07T13:46:59Z</time>
      </trkpt>
      <trkpt lat="44.81066" lon="0.68204">
        <ele>195.805</ele>
        <time>2019-05-07T13:47:03Z</time>
      </trkpt>
      <trkpt lat="44.81069" lon="0.68205">
        <ele>195.816</ele>
        <time>2019-05-07T13:47:05Z</time>
      </trkpt>
      <trkpt lat="44.81072" lon="0.68205">
        <ele>195.829</ele>
        <time>2019-05-07T13:47:07Z</time>
      </trkpt>
      <trkpt lat="44.81077" lon="0.68205">
        <ele>195.849</ele>
        <time>2019-05-07T13:47:10Z</time>
      </trkpt>
      <trkpt lat="44.81083" lon="0.68203">
        <ele>195.877</ele>
        <time>2019-05-07T13:47:14Z</time>
      </trkpt>
      <trkpt lat="44.81086" lon="0.68202">
        <ele>195.898</ele>
        <time>2019-05-07T13:47:17Z</time>
      </trkpt>
      <trkpt lat="44.81088" lon="0.682">
        <ele>195.924</ele>
        <time>2019-05-07T13:47:21Z</time>
      </trkpt>
      <trkpt lat="44.81095" lon="0.68199">
        <ele>195.96</ele>
        <time>2019-05-07T13:47:27Z</time>
      </trkpt>
      <trkpt lat="44.81099" lon="0.68199">
        <ele>195.984</ele>
        <time>2019-05-07T13:47:31Z</time>
      </trkpt>
      <trkpt lat="44.81104" lon="0.68198">
        <ele>196</ele>
        <time>2019-05-07T13:47:34Z</time>
      </trkpt>
      <trkpt lat="44.81113" lon="0.68197">
        <ele>196.016</ele>
        <time>2019-05-07T13:47:37Z</time>
      </trkpt>
      <trkpt lat="44.81117" lon="0.68196">
        <ele>196.028</ele>
        <time>2019-05-07T13:47:39Z</time>
      </trkpt>
      <trkpt lat="44.81122" lon="0.68194">
        <ele>196.039</ele>
        <time>2019-05-07T13:47:41Z</time>
      </trkpt>
      <trkpt lat="44.81128" lon="0.68195">
        <ele>196.057</ele>
        <time>2019-05-07T13:47:44Z</time>
      </trkpt>
      <trkpt lat="44.81128" lon="0.68195">
        <ele>196.057</ele>
        <time>2019-05-07T13:47:49Z</time>
      </trkpt>
      <trkpt lat="44.81132" lon="0.68191">
        <ele>196.094</ele>
        <time>2019-05-07T13:47:50Z</time>
      </trkpt>
      <trkpt lat="44.81138" lon="0.6819">
        <ele>196.112</ele>
        <time>2019-05-07T13:47:53Z</time>
      </trkpt>
      <trkpt lat="44.81141" lon="0.68189">
        <ele>196.125</ele>
        <time>2019-05-07T13:47:55Z</time>
      </trkpt>
      <trkpt lat="44.81146" lon="0.68187">
        <ele>196.152</ele>
        <time>2019-05-07T13:47:59Z</time>
      </trkpt>
      <trkpt lat="44.81151" lon="0.68183">
        <ele>196.175</ele>
        <time>2019-05-07T13:48:03Z</time>
      </trkpt>
      <trkpt lat="44.81153" lon="0.6818">
        <ele>196.186</ele>
        <time>2019-05-07T13:48:05Z</time>
      </trkpt>
      <trkpt lat="44.81154" lon="0.68174">
        <ele>196.208</ele>
        <time>2019-05-07T13:48:10Z</time>
      </trkpt>
      <trkpt lat="44.81155" lon="0.68169">
        <ele>196.23</ele>
        <time>2019-05-07T13:48:14Z</time>
      </trkpt>
      <trkpt lat="44.81156" lon="0.68162">
        <ele>196.259</ele>
        <time>2019-05-07T13:48:19Z</time>
      </trkpt>
      <trkpt lat="44.81156" lon="0.68156">
        <ele>196.282</ele>
        <time>2019-05-07T13:48:23Z</time>
      </trkpt>
      <trkpt lat="44.81156" lon="0.68152">
        <ele>196.297</ele>
        <time>2019-05-07T13:48:26Z</time>
      </trkpt>
      <trkpt lat="44.81155" lon="0.68148">
        <ele>196.315</ele>
        <time>2019-05-07T13:48:30Z</time>
      </trkpt>
      <trkpt lat="44.81155" lon="0.68141">
        <ele>196.328</ele>
        <time>2019-05-07T13:48:34Z</time>
      </trkpt>
      <trkpt lat="44.81155" lon="0.68135">
        <ele>196.34</ele>
        <time>2019-05-07T13:48:39Z</time>
      </trkpt>
      <trkpt lat="44.81154" lon="0.6813">
        <ele>196.361</ele>
        <time>2019-05-07T13:48:44Z</time>
      </trkpt>
      <trkpt lat="44.81157" lon="0.68124">
        <ele>196.379</ele>
        <time>2019-05-07T13:48:48Z</time>
      </trkpt>
      <trkpt lat="44.81161" lon="0.68121">
        <ele>196.396</ele>
        <time>2019-05-07T13:48:52Z</time>
      </trkpt>
      <trkpt lat="44.81165" lon="0.68116">
        <ele>196.408</ele>
        <time>2019-05-07T13:48:55Z</time>
      </trkpt>
      <trkpt lat="44.81166" lon="0.68113">
        <ele>196.417</ele>
        <time>2019-05-07T13:48:57Z</time>
      </trkpt>
      <trkpt lat="44.81172" lon="0.68108">
        <ele>196.438</ele>
        <time>2019-05-07T13:49:03Z</time>
      </trkpt>
      <trkpt lat="44.81176" lon="0.68101">
        <ele>196.451</ele>
        <time>2019-05-07T13:49:06Z</time>
      </trkpt>
      <trkpt lat="44.81179" lon="0.68096">
        <ele>196.465</ele>
        <time>2019-05-07T13:49:09Z</time>
      </trkpt>
      <trkpt lat="44.8118" lon="0.68093">
        <ele>196.468</ele>
        <time>2019-05-07T13:49:10Z</time>
      </trkpt>
      <trkpt lat="44.81183" lon="0.68087">
        <ele>196.482</ele>
        <time>2019-05-07T13:49:15Z</time>
      </trkpt>
      <trkpt lat="44.81185" lon="0.68081">
        <ele>196.489</ele>
        <time>2019-05-07T13:49:20Z</time>
      </trkpt>
      <trkpt lat="44.81186" lon="0.68077">
        <ele>196.49</ele>
        <time>2019-05-07T13:49:22Z</time>
      </trkpt>
      <trkpt lat="44.81189" lon="0.68068">
        <ele>196.486</ele>
        <time>2019-05-07T13:49:28Z</time>
      </trkpt>
      <trkpt lat="44.81191" lon="0.68063">
        <ele>196.48</ele>
        <time>2019-05-07T13:49:32Z</time>
      </trkpt>
      <trkpt lat="44.81194" lon="0.68057">
        <ele>196.466</ele>
        <time>2019-05-07T13:49:39Z</time>
      </trkpt>
      <trkpt lat="44.81195" lon="0.68049">
        <ele>196.449</ele>
        <time>2019-05-07T13:49:44Z</time>
      </trkpt>
      <trkpt lat="44.81199" lon="0.68045">
        <ele>196.433</ele>
        <time>2019-05-07T13:49:47Z</time>
      </trkpt>
      <trkpt lat="44.812" lon="0.68038">
        <ele>196.395</ele>
        <time>2019-05-07T13:49:52Z</time>
      </trkpt>
      <trkpt lat="44.81201" lon="0.68031">
        <ele>196.338</ele>
        <time>2019-05-07T13:49:58Z</time>
      </trkpt>
      <trkpt lat="44.81202" lon="0.68028">
        <ele>196.299</ele>
        <time>2019-05-07T13:50:02Z</time>
      </trkpt>
      <trkpt lat="44.81205" lon="0.68023">
        <ele>196.254</ele>
        <time>2019-05-07T13:50:07Z</time>
      </trkpt>
      <trkpt lat="44.81207" lon="0.6802">
        <ele>196.235</ele>
        <time>2019-05-07T13:50:09Z</time>
      </trkpt>
      <trkpt lat="44.81209" lon="0.68017">
        <ele>196.206</ele>
        <time>2019-05-07T13:50:12Z</time>
      </trkpt>
      <trkpt lat="44.81211" lon="0.6801">
        <ele>196.188</ele>
        <time>2019-05-07T13:50:14Z</time>
      </trkpt>
      <trkpt lat="44.81213" lon="0.68007">
        <ele>196.162</ele>
        <time>2019-05-07T13:50:17Z</time>
      </trkpt>
      <trkpt lat="44.81214" lon="0.68">
        <ele>196.125</ele>
        <time>2019-05-07T13:50:21Z</time>
      </trkpt>
      <trkpt lat="44.81217" lon="0.67994">
        <ele>196.097</ele>
        <time>2019-05-07T13:50:24Z</time>
      </trkpt>
      <trkpt lat="44.81217" lon="0.67985">
        <ele>196.051</ele>
        <time>2019-05-07T13:50:29Z</time>
      </trkpt>
      <trkpt lat="44.81218" lon="0.67978">
        <ele>196.011</ele>
        <time>2019-05-07T13:50:33Z</time>
      </trkpt>
      <trkpt lat="44.81222" lon="0.67972">
        <ele>195.977</ele>
        <time>2019-05-07T13:50:36Z</time>
      </trkpt>
      <trkpt lat="44.81224" lon="0.67965">
        <ele>195.916</ele>
        <time>2019-05-07T13:50:41Z</time>
      </trkpt>
      <trkpt lat="44.81228" lon="0.67958">
        <ele>195.877</ele>
        <time>2019-05-07T13:50:44Z</time>
      </trkpt>
      <trkpt lat="44.81231" lon="0.67955">
        <ele>195.85</ele>
        <time>2019-05-07T13:50:46Z</time>
      </trkpt>
      <trkpt lat="44.81234" lon="0.67949">
        <ele>195.806</ele>
        <time>2019-05-07T13:50:49Z</time>
      </trkpt>
      <trkpt lat="44.81238" lon="0.67945">
        <ele>195.757</ele>
        <time>2019-05-07T13:50:52Z</time>
      </trkpt>
      <trkpt lat="44.8124" lon="0.67942">
        <ele>195.722</ele>
        <time>2019-05-07T13:50:54Z</time>
      </trkpt>
      <trkpt lat="44.81242" lon="0.67939">
        <ele>195.686</ele>
        <time>2019-05-07T13:50:56Z</time>
      </trkpt>
      <trkpt lat="44.81244" lon="0.67937">
        <ele>195.649</ele>
        <time>2019-05-07T13:50:58Z</time>
      </trkpt>
      <trkpt lat="44.81248" lon="0.67931">
        <ele>195.591</ele>
        <time>2019-05-07T13:51:01Z</time>
      </trkpt>
      <trkpt lat="44.81251" lon="0.67924">
        <ele>195.51</ele>
        <time>2019-05-07T13:51:05Z</time>
      </trkpt>
      <trkpt lat="44.81254" lon="0.6792">
        <ele>195.408</ele>
        <time>2019-05-07T13:51:10Z</time>
      </trkpt>
      <trkpt lat="44.81257" lon="0.67915">
        <ele>195.345</ele>
        <time>2019-05-07T13:51:13Z</time>
      </trkpt>
      <trkpt lat="44.81261" lon="0.67909">
        <ele>195.244</ele>
        <time>2019-05-07T13:51:18Z</time>
      </trkpt>
      <trkpt lat="44.81264" lon="0.67903">
        <ele>195.205</ele>
        <time>2019-05-07T13:51:20Z</time>
      </trkpt>
      <trkpt lat="44.81269" lon="0.67898">
        <ele>195.118</ele>
        <time>2019-05-07T13:51:25Z</time>
      </trkpt>
      <trkpt lat="44.81271" lon="0.67892">
        <ele>195.044</ele>
        <time>2019-05-07T13:51:30Z</time>
      </trkpt>
      <trkpt lat="44.81276" lon="0.67889">
        <ele>194.98</ele>
        <time>2019-05-07T13:51:35Z</time>
      </trkpt>
      <trkpt lat="44.8128" lon="0.67884">
        <ele>194.921</ele>
        <time>2019-05-07T13:51:40Z</time>
      </trkpt>
      <trkpt lat="44.81283" lon="0.67878">
        <ele>194.887</ele>
        <time>2019-05-07T13:51:43Z</time>
      </trkpt>
      <trkpt lat="44.81285" lon="0.67875">
        <ele>194.866</ele>
        <time>2019-05-07T13:51:45Z</time>
      </trkpt>
      <trkpt lat="44.81286" lon="0.67872">
        <ele>194.844</ele>
        <time>2019-05-07T13:51:47Z</time>
      </trkpt>
      <trkpt lat="44.81288" lon="0.67866">
        <ele>194.814</ele>
        <time>2019-05-07T13:51:50Z</time>
      </trkpt>
      <trkpt lat="44.81291" lon="0.6786">
        <ele>194.793</ele>
        <time>2019-05-07T13:51:52Z</time>
      </trkpt>
      <trkpt lat="44.81294" lon="0.67854">
        <ele>194.76</ele>
        <time>2019-05-07T13:51:55Z</time>
      </trkpt>
      <trkpt lat="44.81297" lon="0.67848">
        <ele>194.712</ele>
        <time>2019-05-07T13:51:59Z</time>
      </trkpt>
      <trkpt lat="44.813" lon="0.67843">
        <ele>194.674</ele>
        <time>2019-05-07T13:52:02Z</time>
      </trkpt>
      <trkpt lat="44.81302" lon="0.67839">
        <ele>194.648</ele>
        <time>2019-05-07T13:52:04Z</time>
      </trkpt>
      <trkpt lat="44.81305" lon="0.67833">
        <ele>194.61</ele>
        <time>2019-05-07T13:52:07Z</time>
      </trkpt>
      <trkpt lat="44.81309" lon="0.67828">
        <ele>194.547</ele>
        <time>2019-05-07T13:52:12Z</time>
      </trkpt>
      <trkpt lat="44.81313" lon="0.67824">
        <ele>194.496</ele>
        <time>2019-05-07T13:52:16Z</time>
      </trkpt>
      <trkpt lat="44.81318" lon="0.67822">
        <ele>194.445</ele>
        <time>2019-05-07T13:52:20Z</time>
      </trkpt>
      <trkpt lat="44.81322" lon="0.67817">
        <ele>194.406</ele>
        <time>2019-05-07T13:52:23Z</time>
      </trkpt>
      <trkpt lat="44.81328" lon="0.67813">
        <ele>194.35</ele>
        <time>2019-05-07T13:52:27Z</time>
      </trkpt>
      <trkpt lat="44.8133" lon="0.67812">
        <ele>194.321</ele>
        <time>2019-05-07T13:52:29Z</time>
      </trkpt>
      <trkpt lat="44.81333" lon="0.6781">
        <ele>194.291</ele>
        <time>2019-05-07T13:52:31Z</time>
      </trkpt>
      <trkpt lat="44.81336" lon="0.67806">
        <ele>194.232</ele>
        <time>2019-05-07T13:52:35Z</time>
      </trkpt>
      <trkpt lat="44.81346" lon="0.67803">
        <ele>194.164</ele>
        <time>2019-05-07T13:52:40Z</time>
      </trkpt>
      <trkpt lat="44.8135" lon="0.678">
        <ele>194.092</ele>
        <time>2019-05-07T13:52:45Z</time>
      </trkpt>
      <trkpt lat="44.81352" lon="0.67798">
        <ele>194.063</ele>
        <time>2019-05-07T13:52:47Z</time>
      </trkpt>
      <trkpt lat="44.81356" lon="0.67793">
        <ele>194.003</ele>
        <time>2019-05-07T13:52:51Z</time>
      </trkpt>
      <trkpt lat="44.81358" lon="0.67786">
        <ele>193.959</ele>
        <time>2019-05-07T13:52:54Z</time>
      </trkpt>
      <trkpt lat="44.81359" lon="0.67782">
        <ele>193.93</ele>
        <time>2019-05-07T13:52:56Z</time>
      </trkpt>
      <trkpt lat="44.81363" lon="0.67778">
        <ele>193.888</ele>
        <time>2019-05-07T13:52:59Z</time>
      </trkpt>
      <trkpt lat="44.81368" lon="0.67774">
        <ele>193.82</ele>
        <time>2019-05-07T13:53:04Z</time>
      </trkpt>
      <trkpt lat="44.81376" lon="0.67776">
        <ele>193.775</ele>
        <time>2019-05-07T13:53:07Z</time>
      </trkpt>
      <trkpt lat="44.81379" lon="0.67777">
        <ele>193.743</ele>
        <time>2019-05-07T13:53:09Z</time>
      </trkpt>
      <trkpt lat="44.81383" lon="0.67778">
        <ele>193.709</ele>
        <time>2019-05-07T13:53:11Z</time>
      </trkpt>
      <trkpt lat="44.81388" lon="0.67776">
        <ele>193.64</ele>
        <time>2019-05-07T13:53:15Z</time>
      </trkpt>
      <trkpt lat="44.81393" lon="0.67774">
        <ele>193.605</ele>
        <time>2019-05-07T13:53:17Z</time>
      </trkpt>
      <trkpt lat="44.81398" lon="0.67774">
        <ele>193.551</ele>
        <time>2019-05-07T13:53:20Z</time>
      </trkpt>
      <trkpt lat="44.81404" lon="0.67772">
        <ele>193.496</ele>
        <time>2019-05-07T13:53:23Z</time>
      </trkpt>
      <trkpt lat="44.81408" lon="0.67771">
        <ele>193.456</ele>
        <time>2019-05-07T13:53:25Z</time>
      </trkpt>
      <trkpt lat="44.81414" lon="0.67771">
        <ele>193.395</ele>
        <time>2019-05-07T13:53:28Z</time>
      </trkpt>
      <trkpt lat="44.81419" lon="0.67768">
        <ele>193.33</ele>
        <time>2019-05-07T13:53:31Z</time>
      </trkpt>
      <trkpt lat="44.81422" lon="0.67767">
        <ele>193.283</ele>
        <time>2019-05-07T13:53:33Z</time>
      </trkpt>
      <trkpt lat="44.81427" lon="0.67764">
        <ele>193.209</ele>
        <time>2019-05-07T13:53:36Z</time>
      </trkpt>
      <trkpt lat="44.81432" lon="0.67762">
        <ele>193.132</ele>
        <time>2019-05-07T13:53:39Z</time>
      </trkpt>
      <trkpt lat="44.81436" lon="0.6776">
        <ele>193.08</ele>
        <time>2019-05-07T13:53:41Z</time>
      </trkpt>
      <trkpt lat="44.8144" lon="0.67758">
        <ele>193.028</ele>
        <time>2019-05-07T13:53:43Z</time>
      </trkpt>
      <trkpt lat="44.81442" lon="0.67756">
        <ele>193.001</ele>
        <time>2019-05-07T13:53:44Z</time>
      </trkpt>
      <trkpt lat="44.81448" lon="0.67754">
        <ele>192.921</ele>
        <time>2019-05-07T13:53:47Z</time>
      </trkpt>
      <trkpt lat="44.81453" lon="0.67751">
        <ele>192.817</ele>
        <time>2019-05-07T13:53:51Z</time>
      </trkpt>
      <trkpt lat="44.81456" lon="0.6775">
        <ele>192.766</ele>
        <time>2019-05-07T13:53:53Z</time>
      </trkpt>
      <trkpt lat="44.81461" lon="0.67747">
        <ele>192.688</ele>
        <time>2019-05-07T13:53:56Z</time>
      </trkpt>
      <trkpt lat="44.81465" lon="0.67744">
        <ele>192.582</ele>
        <time>2019-05-07T13:54:00Z</time>
      </trkpt>
      <trkpt lat="44.8147" lon="0.67742">
        <ele>192.504</ele>
        <time>2019-05-07T13:54:03Z</time>
      </trkpt>
      <trkpt lat="44.81475" lon="0.6774">
        <ele>192.426</ele>
        <time>2019-05-07T13:54:06Z</time>
      </trkpt>
      <trkpt lat="44.81479" lon="0.6774">
        <ele>192.348</ele>
        <time>2019-05-07T13:54:09Z</time>
      </trkpt>
      <trkpt lat="44.81483" lon="0.67739">
        <ele>192.271</ele>
        <time>2019-05-07T13:54:12Z</time>
      </trkpt>
      <trkpt lat="44.81487" lon="0.67738">
        <ele>192.22</ele>
        <time>2019-05-07T13:54:14Z</time>
      </trkpt>
      <trkpt lat="44.8149" lon="0.67737">
        <ele>192.17</ele>
        <time>2019-05-07T13:54:16Z</time>
      </trkpt>
      <trkpt lat="44.81494" lon="0.67737">
        <ele>192.093</ele>
        <time>2019-05-07T13:54:19Z</time>
      </trkpt>
      <trkpt lat="44.81498" lon="0.67736">
        <ele>192.016</ele>
        <time>2019-05-07T13:54:22Z</time>
      </trkpt>
      <trkpt lat="44.815" lon="0.67735">
        <ele>191.964</ele>
        <time>2019-05-07T13:54:24Z</time>
      </trkpt>
      <trkpt lat="44.81505" lon="0.67733">
        <ele>191.886</ele>
        <time>2019-05-07T13:54:27Z</time>
      </trkpt>
      <trkpt lat="44.8151" lon="0.67733">
        <ele>191.784</ele>
        <time>2019-05-07T13:54:31Z</time>
      </trkpt>
      <trkpt lat="44.81515" lon="0.67733">
        <ele>191.712</ele>
        <time>2019-05-07T13:54:34Z</time>
      </trkpt>
      <trkpt lat="44.81517" lon="0.67733">
        <ele>191.664</ele>
        <time>2019-05-07T13:54:36Z</time>
      </trkpt>
      <trkpt lat="44.81519" lon="0.67732">
        <ele>191.617</ele>
        <time>2019-05-07T13:54:38Z</time>
      </trkpt>
      <trkpt lat="44.81524" lon="0.67731">
        <ele>191.524</ele>
        <time>2019-05-07T13:54:42Z</time>
      </trkpt>
      <trkpt lat="44.8153" lon="0.67732">
        <ele>191.429</ele>
        <time>2019-05-07T13:54:46Z</time>
      </trkpt>
      <trkpt lat="44.81532" lon="0.67732">
        <ele>191.358</ele>
        <time>2019-05-07T13:54:49Z</time>
      </trkpt>
      <trkpt lat="44.81537" lon="0.67731">
        <ele>191.266</ele>
        <time>2019-05-07T13:54:53Z</time>
      </trkpt>
      <trkpt lat="44.8154" lon="0.67729">
        <ele>191.218</ele>
        <time>2019-05-07T13:54:55Z</time>
      </trkpt>
      <trkpt lat="44.81545" lon="0.6773">
        <ele>191.138</ele>
        <time>2019-05-07T13:54:58Z</time>
      </trkpt>
      <trkpt lat="44.81551" lon="0.6773">
        <ele>191.046</ele>
        <time>2019-05-07T13:55:01Z</time>
      </trkpt>
      <trkpt lat="44.81554" lon="0.67729">
        <ele>190.977</ele>
        <time>2019-05-07T13:55:03Z</time>
      </trkpt>
      <trkpt lat="44.81556" lon="0.67728">
        <ele>190.942</ele>
        <time>2019-05-07T13:55:04Z</time>
      </trkpt>
      <trkpt lat="44.81561" lon="0.67728">
        <ele>190.832</ele>
        <time>2019-05-07T13:55:07Z</time>
      </trkpt>
      <trkpt lat="44.81565" lon="0.67729">
        <ele>190.759</ele>
        <time>2019-05-07T13:55:09Z</time>
      </trkpt>
      <trkpt lat="44.81568" lon="0.67729">
        <ele>190.686</ele>
        <time>2019-05-07T13:55:11Z</time>
      </trkpt>
      <trkpt lat="44.81571" lon="0.67729">
        <ele>190.576</ele>
        <time>2019-05-07T13:55:14Z</time>
      </trkpt>
      <trkpt lat="44.81576" lon="0.67727">
        <ele>190.423</ele>
        <time>2019-05-07T13:55:18Z</time>
      </trkpt>
      <trkpt lat="44.81582" lon="0.67727">
        <ele>190.265</ele>
        <time>2019-05-07T13:55:22Z</time>
      </trkpt>
      <trkpt lat="44.81587" lon="0.67725">
        <ele>190.104</ele>
        <time>2019-05-07T13:55:26Z</time>
      </trkpt>
      <trkpt lat="44.81592" lon="0.67724">
        <ele>189.941</ele>
        <time>2019-05-07T13:55:30Z</time>
      </trkpt>
      <trkpt lat="44.81595" lon="0.67724">
        <ele>189.856</ele>
        <time>2019-05-07T13:55:32Z</time>
      </trkpt>
      <trkpt lat="44.816" lon="0.67723">
        <ele>189.673</ele>
        <time>2019-05-07T13:55:36Z</time>
      </trkpt>
      <trkpt lat="44.81604" lon="0.6772">
        <ele>189.44</ele>
        <time>2019-05-07T13:55:41Z</time>
      </trkpt>
      <trkpt lat="44.81608" lon="0.67715">
        <ele>189.202</ele>
        <time>2019-05-07T13:55:46Z</time>
      </trkpt>
      <trkpt lat="44.81609" lon="0.67712">
        <ele>189.107</ele>
        <time>2019-05-07T13:55:48Z</time>
      </trkpt>
      <trkpt lat="44.81612" lon="0.67706">
        <ele>188.865</ele>
        <time>2019-05-07T13:55:53Z</time>
      </trkpt>
      <trkpt lat="44.81614" lon="0.67697">
        <ele>188.671</ele>
        <time>2019-05-07T13:55:57Z</time>
      </trkpt>
      <trkpt lat="44.81614" lon="0.6769">
        <ele>188.48</ele>
        <time>2019-05-07T13:56:01Z</time>
      </trkpt>
      <trkpt lat="44.81616" lon="0.67683">
        <ele>188.294</ele>
        <time>2019-05-07T13:56:05Z</time>
      </trkpt>
      <trkpt lat="44.81616" lon="0.67676">
        <ele>188.151</ele>
        <time>2019-05-07T13:56:08Z</time>
      </trkpt>
      <trkpt lat="44.81618" lon="0.67669">
        <ele>188.005</ele>
        <time>2019-05-07T13:56:11Z</time>
      </trkpt>
      <trkpt lat="44.81619" lon="0.67663">
        <ele>187.909</ele>
        <time>2019-05-07T13:56:13Z</time>
      </trkpt>
      <trkpt lat="44.8162" lon="0.67657">
        <ele>187.719</ele>
        <time>2019-05-07T13:56:17Z</time>
      </trkpt>
      <trkpt lat="44.81623" lon="0.67651">
        <ele>187.492</ele>
        <time>2019-05-07T13:56:22Z</time>
      </trkpt>
      <trkpt lat="44.81625" lon="0.67647">
        <ele>187.404</ele>
        <time>2019-05-07T13:56:24Z</time>
      </trkpt>
      <trkpt lat="44.81627" lon="0.67642">
        <ele>187.315</ele>
        <time>2019-05-07T13:56:26Z</time>
      </trkpt>
      <trkpt lat="44.81629" lon="0.67635">
        <ele>187.176</ele>
        <time>2019-05-07T13:56:29Z</time>
      </trkpt>
      <trkpt lat="44.81631" lon="0.67627">
        <ele>186.98</ele>
        <time>2019-05-07T13:56:33Z</time>
      </trkpt>
      <trkpt lat="44.81631" lon="0.67621">
        <ele>186.776</ele>
        <time>2019-05-07T13:56:37Z</time>
      </trkpt>
      <trkpt lat="44.81633" lon="0.67615">
        <ele>186.666</ele>
        <time>2019-05-07T13:56:39Z</time>
      </trkpt>
      <trkpt lat="44.81635" lon="0.6761">
        <ele>186.549</ele>
        <time>2019-05-07T13:56:41Z</time>
      </trkpt>
      <trkpt lat="44.81637" lon="0.67607">
        <ele>186.434</ele>
        <time>2019-05-07T13:56:43Z</time>
      </trkpt>
      <trkpt lat="44.8164" lon="0.67601">
        <ele>186.263</ele>
        <time>2019-05-07T13:56:46Z</time>
      </trkpt>
      <trkpt lat="44.81644" lon="0.67595">
        <ele>186.092</ele>
        <time>2019-05-07T13:56:49Z</time>
      </trkpt>
      <trkpt lat="44.81648" lon="0.67591">
        <ele>185.918</ele>
        <time>2019-05-07T13:56:52Z</time>
      </trkpt>
      <trkpt lat="44.8165" lon="0.67588">
        <ele>185.802</ele>
        <time>2019-05-07T13:56:54Z</time>
      </trkpt>
      <trkpt lat="44.81652" lon="0.67585">
        <ele>185.687</ele>
        <time>2019-05-07T13:56:56Z</time>
      </trkpt>
      <trkpt lat="44.81656" lon="0.67579">
        <ele>185.463</ele>
        <time>2019-05-07T13:57:00Z</time>
      </trkpt>
      <trkpt lat="44.81658" lon="0.67576">
        <ele>185.353</ele>
        <time>2019-05-07T13:57:02Z</time>
      </trkpt>
      <trkpt lat="44.81661" lon="0.67569">
        <ele>185.075</ele>
        <time>2019-05-07T13:57:07Z</time>
      </trkpt>
      <trkpt lat="44.81663" lon="0.67565">
        <ele>184.897</ele>
        <time>2019-05-07T13:57:10Z</time>
      </trkpt>
      <trkpt lat="44.81666" lon="0.67561">
        <ele>184.656</ele>
        <time>2019-05-07T13:57:14Z</time>
      </trkpt>
      <trkpt lat="44.8167" lon="0.67554">
        <ele>184.476</ele>
        <time>2019-05-07T13:57:17Z</time>
      </trkpt>
      <trkpt lat="44.81674" lon="0.67549">
        <ele>184.262</ele>
        <time>2019-05-07T13:57:20Z</time>
      </trkpt>
      <trkpt lat="44.81678" lon="0.67545">
        <ele>183.911</ele>
        <time>2019-05-07T13:57:24Z</time>
      </trkpt>
      <trkpt lat="44.81683" lon="0.67543">
        <ele>183.255</ele>
        <time>2019-05-07T13:57:31Z</time>
      </trkpt>
      <trkpt lat="44.81686" lon="0.67538">
        <ele>182.43</ele>
        <time>2019-05-07T13:57:39Z</time>
      </trkpt>
      <trkpt lat="44.8169" lon="0.67535">
        <ele>182.019</ele>
        <time>2019-05-07T13:57:43Z</time>
      </trkpt>
      <trkpt lat="44.81693" lon="0.67532">
        <ele>181.819</ele>
        <time>2019-05-07T13:57:45Z</time>
      </trkpt>
      <trkpt lat="44.81696" lon="0.67529">
        <ele>181.619</ele>
        <time>2019-05-07T13:57:47Z</time>
      </trkpt>
      <trkpt lat="44.81702" lon="0.67525">
        <ele>181.304</ele>
        <time>2019-05-07T13:57:50Z</time>
      </trkpt>
      <trkpt lat="44.81707" lon="0.67522">
        <ele>180.974</ele>
        <time>2019-05-07T13:57:53Z</time>
      </trkpt>
      <trkpt lat="44.81709" lon="0.67521">
        <ele>180.862</ele>
        <time>2019-05-07T13:57:54Z</time>
      </trkpt>
      <trkpt lat="44.81712" lon="0.67519">
        <ele>180.629</ele>
        <time>2019-05-07T13:57:56Z</time>
      </trkpt>
      <trkpt lat="44.81717" lon="0.67515">
        <ele>180.133</ele>
        <time>2019-05-07T13:58:00Z</time>
      </trkpt>
      <trkpt lat="44.8172" lon="0.67512">
        <ele>179.747</ele>
        <time>2019-05-07T13:58:03Z</time>
      </trkpt>
      <trkpt lat="44.81722" lon="0.6751">
        <ele>179.487</ele>
        <time>2019-05-07T13:58:05Z</time>
      </trkpt>
      <trkpt lat="44.81724" lon="0.67508">
        <ele>179.215</ele>
        <time>2019-05-07T13:58:07Z</time>
      </trkpt>
      <trkpt lat="44.81727" lon="0.67506">
        <ele>178.935</ele>
        <time>2019-05-07T13:58:09Z</time>
      </trkpt>
      <trkpt lat="44.8173" lon="0.67503">
        <ele>178.517</ele>
        <time>2019-05-07T13:58:12Z</time>
      </trkpt>
      <trkpt lat="44.81733" lon="0.675">
        <ele>178.241</ele>
        <time>2019-05-07T13:58:14Z</time>
      </trkpt>
      <trkpt lat="44.81737" lon="0.67496">
        <ele>177.683</ele>
        <time>2019-05-07T13:58:18Z</time>
      </trkpt>
      <trkpt lat="44.8174" lon="0.67494">
        <ele>177.233</ele>
        <time>2019-05-07T13:58:21Z</time>
      </trkpt>
      <trkpt lat="44.81743" lon="0.67492">
        <ele>176.367</ele>
        <time>2019-05-07T13:58:26Z</time>
      </trkpt>
      <trkpt lat="44.81747" lon="0.67497">
        <ele>174.83</ele>
        <time>2019-05-07T13:58:34Z</time>
      </trkpt>
      <trkpt lat="44.8175" lon="0.67503">
        <ele>173.687</ele>
        <time>2019-05-07T13:58:40Z</time>
      </trkpt>
      <trkpt lat="44.81754" lon="0.67506">
        <ele>172.427</ele>
        <time>2019-05-07T13:58:47Z</time>
      </trkpt>
      <trkpt lat="44.81759" lon="0.67505">
        <ele>171.745</ele>
        <time>2019-05-07T13:58:51Z</time>
      </trkpt>
      <trkpt lat="44.81762" lon="0.67504">
        <ele>171.411</ele>
        <time>2019-05-07T13:58:53Z</time>
      </trkpt>
      <trkpt lat="44.81765" lon="0.67502">
        <ele>171.076</ele>
        <time>2019-05-07T13:58:55Z</time>
      </trkpt>
      <trkpt lat="44.8177" lon="0.67501">
        <ele>170.577</ele>
        <time>2019-05-07T13:58:58Z</time>
      </trkpt>
      <trkpt lat="44.81773" lon="0.67501">
        <ele>170.086</ele>
        <time>2019-05-07T13:59:01Z</time>
      </trkpt>
      <trkpt lat="44.81778" lon="0.67501">
        <ele>169.287</ele>
        <time>2019-05-07T13:59:06Z</time>
      </trkpt>
      <trkpt lat="44.81783" lon="0.67499">
        <ele>168.823</ele>
        <time>2019-05-07T13:59:09Z</time>
      </trkpt>
      <trkpt lat="44.81788" lon="0.67497">
        <ele>168.362</ele>
        <time>2019-05-07T13:59:12Z</time>
      </trkpt>
      <trkpt lat="44.81792" lon="0.67495">
        <ele>167.737</ele>
        <time>2019-05-07T13:59:16Z</time>
      </trkpt>
      <trkpt lat="44.81798" lon="0.67494">
        <ele>167.133</ele>
        <time>2019-05-07T13:59:20Z</time>
      </trkpt>
      <trkpt lat="44.81803" lon="0.6749">
        <ele>166.392</ele>
        <time>2019-05-07T13:59:25Z</time>
      </trkpt>
      <trkpt lat="44.81806" lon="0.67484">
        <ele>165.527</ele>
        <time>2019-05-07T13:59:31Z</time>
      </trkpt>
      <trkpt lat="44.81809" lon="0.67479">
        <ele>164.823</ele>
        <time>2019-05-07T13:59:36Z</time>
      </trkpt>
      <trkpt lat="44.81812" lon="0.67473">
        <ele>164.277</ele>
        <time>2019-05-07T13:59:40Z</time>
      </trkpt>
      <trkpt lat="44.81814" lon="0.67469">
        <ele>163.718</ele>
        <time>2019-05-07T13:59:45Z</time>
      </trkpt>
      <trkpt lat="44.81818" lon="0.67465">
        <ele>162.788</ele>
        <time>2019-05-07T14:00:00Z</time>
      </trkpt>
      <trkpt lat="44.8182" lon="0.67462">
        <ele>162.258</ele>
        <time>2019-05-07T14:00:08Z</time>
      </trkpt>
      <trkpt lat="44.81821" lon="0.67455">
        <ele>161.542</ele>
        <time>2019-05-07T14:00:13Z</time>
      </trkpt>
      <trkpt lat="44.81824" lon="0.67449">
        <ele>160.737</ele>
        <time>2019-05-07T14:00:19Z</time>
      </trkpt>
      <trkpt lat="44.81826" lon="0.67442">
        <ele>160.115</ele>
        <time>2019-05-07T14:00:24Z</time>
      </trkpt>
      <trkpt lat="44.81829" lon="0.67436">
        <ele>159.527</ele>
        <time>2019-05-07T14:00:29Z</time>
      </trkpt>
      <trkpt lat="44.81831" lon="0.6743">
        <ele>159.066</ele>
        <time>2019-05-07T14:00:33Z</time>
      </trkpt>
      <trkpt lat="44.81834" lon="0.67425">
        <ele>158.309</ele>
        <time>2019-05-07T14:00:40Z</time>
      </trkpt>
      <trkpt lat="44.81839" lon="0.6742">
        <ele>157.809</ele>
        <time>2019-05-07T14:00:45Z</time>
      </trkpt>
      <trkpt lat="44.81842" lon="0.67414">
        <ele>157.521</ele>
        <time>2019-05-07T14:00:48Z</time>
      </trkpt>
      <trkpt lat="44.81846" lon="0.67411">
        <ele>157.241</ele>
        <time>2019-05-07T14:00:51Z</time>
      </trkpt>
      <trkpt lat="44.81851" lon="0.67411">
        <ele>156.798</ele>
        <time>2019-05-07T14:00:56Z</time>
      </trkpt>
      <trkpt lat="44.81851" lon="0.6741">
        <ele>156.491</ele>
        <time>2019-05-07T14:01:04Z</time>
      </trkpt>
      <trkpt lat="44.81854" lon="0.67404">
        <ele>156.044</ele>
        <time>2019-05-07T14:01:09Z</time>
      </trkpt>
      <trkpt lat="44.81854" lon="0.67404">
        <ele>156.044</ele>
        <time>2019-05-07T14:01:16Z</time>
      </trkpt>
      <trkpt lat="44.81854" lon="0.67404">
        <ele>156.044</ele>
        <time>2019-05-07T14:01:17Z</time>
      </trkpt>
      <trkpt lat="44.81858" lon="0.674">
        <ele>154.828</ele>
        <time>2019-05-07T14:01:41Z</time>
      </trkpt>
      <trkpt lat="44.8186" lon="0.67398">
        <ele>154.311</ele>
        <time>2019-05-07T14:01:46Z</time>
      </trkpt>
      <trkpt lat="44.81862" lon="0.67395">
        <ele>153.953</ele>
        <time>2019-05-07T14:01:49Z</time>
      </trkpt>
      <trkpt lat="44.81865" lon="0.6739">
        <ele>153.5</ele>
        <time>2019-05-07T14:01:53Z</time>
      </trkpt>
      <trkpt lat="44.81868" lon="0.67384">
        <ele>152.783</ele>
        <time>2019-05-07T14:02:07Z</time>
      </trkpt>
      <trkpt lat="44.81873" lon="0.67381">
        <ele>152.207</ele>
        <time>2019-05-07T14:02:13Z</time>
      </trkpt>
      <trkpt lat="44.81875" lon="0.67379">
        <ele>151.938</ele>
        <time>2019-05-07T14:02:16Z</time>
      </trkpt>
      <trkpt lat="44.81881" lon="0.67377">
        <ele>151.592</ele>
        <time>2019-05-07T14:02:20Z</time>
      </trkpt>
      <trkpt lat="44.81885" lon="0.67379">
        <ele>151.181</ele>
        <time>2019-05-07T14:02:25Z</time>
      </trkpt>
      <trkpt lat="44.81889" lon="0.67381">
        <ele>150.948</ele>
        <time>2019-05-07T14:02:28Z</time>
      </trkpt>
      <trkpt lat="44.81893" lon="0.67383">
        <ele>150.723</ele>
        <time>2019-05-07T14:02:31Z</time>
      </trkpt>
      <trkpt lat="44.81899" lon="0.67384">
        <ele>150.437</ele>
        <time>2019-05-07T14:02:35Z</time>
      </trkpt>
      <trkpt lat="44.81901" lon="0.67385">
        <ele>150.165</ele>
        <time>2019-05-07T14:02:39Z</time>
      </trkpt>
      <trkpt lat="44.81902" lon="0.67387">
        <ele>149.826</ele>
        <time>2019-05-07T14:02:47Z</time>
      </trkpt>
      <trkpt lat="44.81906" lon="0.67389">
        <ele>148.906</ele>
        <time>2019-05-07T14:03:08Z</time>
      </trkpt>
      <trkpt lat="44.8191" lon="0.67393">
        <ele>148.542</ele>
        <time>2019-05-07T14:03:12Z</time>
      </trkpt>
      <trkpt lat="44.81915" lon="0.67397">
        <ele>148.111</ele>
        <time>2019-05-07T14:03:17Z</time>
      </trkpt>
      <trkpt lat="44.81918" lon="0.674">
        <ele>147.781</ele>
        <time>2019-05-07T14:03:21Z</time>
      </trkpt>
      <trkpt lat="44.81923" lon="0.67403">
        <ele>147.166</ele>
        <time>2019-05-07T14:03:29Z</time>
      </trkpt>
      <trkpt lat="44.81925" lon="0.67405">
        <ele>147.093</ele>
        <time>2019-05-07T14:03:30Z</time>
      </trkpt>
      <trkpt lat="44.81925" lon="0.67405">
        <ele>147.093</ele>
        <time>2019-05-07T14:05:39Z</time>
      </trkpt>
      <trkpt lat="44.81932" lon="0.67409">
        <ele>135.438</ele>
        <time>2019-05-07T14:07:20Z</time>
      </trkpt>
      <trkpt lat="44.81937" lon="0.67407">
        <ele>134.661</ele>
        <time>2019-05-07T14:07:32Z</time>
      </trkpt>
      <trkpt lat="44.8194" lon="0.67406">
        <ele>134.534</ele>
        <time>2019-05-07T14:07:34Z</time>
      </trkpt>
      <trkpt lat="44.81943" lon="0.67405">
        <ele>134.352</ele>
        <time>2019-05-07T14:07:37Z</time>
      </trkpt>
      <trkpt lat="44.81948" lon="0.67404">
        <ele>134.125</ele>
        <time>2019-05-07T14:07:41Z</time>
      </trkpt>
      <trkpt lat="44.81953" lon="0.67401">
        <ele>133.864</ele>
        <time>2019-05-07T14:07:46Z</time>
      </trkpt>
      <trkpt lat="44.81957" lon="0.67401">
        <ele>133.717</ele>
        <time>2019-05-07T14:07:49Z</time>
      </trkpt>
      <trkpt lat="44.81963" lon="0.67401">
        <ele>133.439</ele>
        <time>2019-05-07T14:07:55Z</time>
      </trkpt>
      <trkpt lat="44.81967" lon="0.674">
        <ele>133.27</ele>
        <time>2019-05-07T14:07:59Z</time>
      </trkpt>
      <trkpt lat="44.8197" lon="0.67399">
        <ele>133.15</ele>
        <time>2019-05-07T14:08:02Z</time>
      </trkpt>
      <trkpt lat="44.81973" lon="0.67398">
        <ele>133.074</ele>
        <time>2019-05-07T14:08:04Z</time>
      </trkpt>
      <trkpt lat="44.81979" lon="0.67397">
        <ele>132.927</ele>
        <time>2019-05-07T14:08:08Z</time>
      </trkpt>
      <trkpt lat="44.81985" lon="0.67396">
        <ele>132.787</ele>
        <time>2019-05-07T14:08:12Z</time>
      </trkpt>
      <trkpt lat="44.8199" lon="0.67394">
        <ele>132.652</ele>
        <time>2019-05-07T14:08:16Z</time>
      </trkpt>
      <trkpt lat="44.81992" lon="0.67393">
        <ele>132.585</ele>
        <time>2019-05-07T14:08:18Z</time>
      </trkpt>
      <trkpt lat="44.81994" lon="0.67392">
        <ele>132.519</ele>
        <time>2019-05-07T14:08:20Z</time>
      </trkpt>
      <trkpt lat="44.81997" lon="0.67391">
        <ele>132.453</ele>
        <time>2019-05-07T14:08:22Z</time>
      </trkpt>
      <trkpt lat="44.82" lon="0.6739">
        <ele>132.358</ele>
        <time>2019-05-07T14:08:25Z</time>
      </trkpt>
      <trkpt lat="44.82003" lon="0.67389">
        <ele>132.296</ele>
        <time>2019-05-07T14:08:27Z</time>
      </trkpt>
      <trkpt lat="44.82005" lon="0.67388">
        <ele>132.237</ele>
        <time>2019-05-07T14:08:29Z</time>
      </trkpt>
      <trkpt lat="44.82009" lon="0.67386">
        <ele>132.123</ele>
        <time>2019-05-07T14:08:33Z</time>
      </trkpt>
      <trkpt lat="44.82012" lon="0.67385">
        <ele>132.069</ele>
        <time>2019-05-07T14:08:35Z</time>
      </trkpt>
      <trkpt lat="44.82017" lon="0.67381">
        <ele>131.962</ele>
        <time>2019-05-07T14:08:39Z</time>
      </trkpt>
      <trkpt lat="44.82021" lon="0.6738">
        <ele>131.887</ele>
        <time>2019-05-07T14:08:42Z</time>
      </trkpt>
      <trkpt lat="44.82025" lon="0.67379">
        <ele>131.815</ele>
        <time>2019-05-07T14:08:45Z</time>
      </trkpt>
      <trkpt lat="44.82029" lon="0.67377">
        <ele>131.746</ele>
        <time>2019-05-07T14:08:48Z</time>
      </trkpt>
      <trkpt lat="44.82034" lon="0.67377">
        <ele>131.679</ele>
        <time>2019-05-07T14:08:51Z</time>
      </trkpt>
      <trkpt lat="44.82039" lon="0.67374">
        <ele>131.594</ele>
        <time>2019-05-07T14:08:55Z</time>
      </trkpt>
      <trkpt lat="44.82042" lon="0.67373">
        <ele>131.553</ele>
        <time>2019-05-07T14:08:57Z</time>
      </trkpt>
      <trkpt lat="44.82046" lon="0.67368">
        <ele>131.53</ele>
        <time>2019-05-07T14:08:58Z</time>
      </trkpt>
      <trkpt lat="44.82051" lon="0.67365">
        <ele>131.482</ele>
        <time>2019-05-07T14:09:00Z</time>
      </trkpt>
      <trkpt lat="44.82057" lon="0.67363">
        <ele>131.405</ele>
        <time>2019-05-07T14:09:03Z</time>
      </trkpt>
      <trkpt lat="44.82062" lon="0.67361">
        <ele>131.325</ele>
        <time>2019-05-07T14:09:06Z</time>
      </trkpt>
      <trkpt lat="44.82067" lon="0.67357">
        <ele>131.24</ele>
        <time>2019-05-07T14:09:09Z</time>
      </trkpt>
      <trkpt lat="44.82069" lon="0.67356">
        <ele>131.181</ele>
        <time>2019-05-07T14:09:11Z</time>
      </trkpt>
      <trkpt lat="44.82074" lon="0.67355">
        <ele>131.056</ele>
        <time>2019-05-07T14:09:15Z</time>
      </trkpt>
      <trkpt lat="44.82079" lon="0.67352">
        <ele>130.837</ele>
        <time>2019-05-07T14:09:22Z</time>
      </trkpt>
      <trkpt lat="44.82084" lon="0.6735">
        <ele>130.713</ele>
        <time>2019-05-07T14:09:26Z</time>
      </trkpt>
      <trkpt lat="44.82087" lon="0.67349">
        <ele>130.65</ele>
        <time>2019-05-07T14:09:28Z</time>
      </trkpt>
      <trkpt lat="44.82092" lon="0.67347">
        <ele>130.55</ele>
        <time>2019-05-07T14:09:31Z</time>
      </trkpt>
      <trkpt lat="44.82097" lon="0.67346">
        <ele>130.409</ele>
        <time>2019-05-07T14:09:35Z</time>
      </trkpt>
      <trkpt lat="44.821" lon="0.67345">
        <ele>130.336</ele>
        <time>2019-05-07T14:09:37Z</time>
      </trkpt>
      <trkpt lat="44.82103" lon="0.67344">
        <ele>130.261</ele>
        <time>2019-05-07T14:09:39Z</time>
      </trkpt>
      <trkpt lat="44.82105" lon="0.67343">
        <ele>130.187</ele>
        <time>2019-05-07T14:09:41Z</time>
      </trkpt>
      <trkpt lat="44.82107" lon="0.67342">
        <ele>130.114</ele>
        <time>2019-05-07T14:09:43Z</time>
      </trkpt>
      <trkpt lat="44.82111" lon="0.67341">
        <ele>130.001</ele>
        <time>2019-05-07T14:09:46Z</time>
      </trkpt>
      <trkpt lat="44.82114" lon="0.6734">
        <ele>129.922</ele>
        <time>2019-05-07T14:09:48Z</time>
      </trkpt>
      <trkpt lat="44.82117" lon="0.67338">
        <ele>129.799</ele>
        <time>2019-05-07T14:09:51Z</time>
      </trkpt>
      <trkpt lat="44.82123" lon="0.67338">
        <ele>129.623</ele>
        <time>2019-05-07T14:09:55Z</time>
      </trkpt>
      <trkpt lat="44.82127" lon="0.67337">
        <ele>129.41</ele>
        <time>2019-05-07T14:10:00Z</time>
      </trkpt>
      <trkpt lat="44.82132" lon="0.67337">
        <ele>129.246</ele>
        <time>2019-05-07T14:10:04Z</time>
      </trkpt>
      <trkpt lat="44.82137" lon="0.67337">
        <ele>129.083</ele>
        <time>2019-05-07T14:10:08Z</time>
      </trkpt>
      <trkpt lat="44.82142" lon="0.67337">
        <ele>128.883</ele>
        <time>2019-05-07T14:10:13Z</time>
      </trkpt>
      <trkpt lat="44.82146" lon="0.67337">
        <ele>128.768</ele>
        <time>2019-05-07T14:10:16Z</time>
      </trkpt>
      <trkpt lat="44.82151" lon="0.67335">
        <ele>128.612</ele>
        <time>2019-05-07T14:10:20Z</time>
      </trkpt>
      <trkpt lat="44.82156" lon="0.67334">
        <ele>128.415</ele>
        <time>2019-05-07T14:10:25Z</time>
      </trkpt>
      <trkpt lat="44.8216" lon="0.67334">
        <ele>128.262</ele>
        <time>2019-05-07T14:10:29Z</time>
      </trkpt>
      <trkpt lat="44.82165" lon="0.67333">
        <ele>128.113</ele>
        <time>2019-05-07T14:10:33Z</time>
      </trkpt>
      <trkpt lat="44.82165" lon="0.67333">
        <ele>51</ele>
        <time>2019-05-07T14:10:50Z</time>
      </trkpt>
      <trkpt lat="44.82165" lon="0.67333">
        <ele>51</ele>
        <time>2019-05-07T14:10:59Z</time>
      </trkpt>
    </trkseg>
  </trk>
</gpx>